<?xml version="1.0" encoding="utf-8"?>
<gpx xmlns:xsi="http://www.w3.org/2001/XMLSchema-instance" xmlns:xsd="http://www.w3.org/2001/XMLSchema" version="1.1" creator="Shapelink.com" xmlns="http://www.topografix.com/GPX/1/1" xmlns:gpxtpx="http://www.garmin.com/xmlschemas/TrackPointExtension/v1">
  <metadata>
    <name>Löpning 6.13 km, 2017-12-11</name>
    <desc></desc>
    <author><name>Bengt-Åke Forslund</name></author> 
    <time>2017-12-11T18:05:52Z</time>
  </metadata>
  <trk>
    <name>Löpning 6.13 km, 2017-12-11</name>
    <trkseg>
      <trkpt lat="62.637623289103" lon="17.966237031522">
        <ele>56.2</ele>
        <time>2017-12-11T18:05:52Z</time>
      </trkpt>
      <trkpt lat="62.637637622152" lon="17.966259327376">
        <ele>56.2</ele>
        <time>2017-12-11T18:05:53Z</time>
      </trkpt>
      <trkpt lat="62.637614907203" lon="17.966241138653">
        <ele>56.4</ele>
        <time>2017-12-11T18:05:54Z</time>
      </trkpt>
      <trkpt lat="62.637586157286" lon="17.966213310745">
        <ele>56.4</ele>
        <time>2017-12-11T18:05:55Z</time>
      </trkpt>
      <trkpt lat="62.637567046554" lon="17.966194116194">
        <ele>56</ele>
        <time>2017-12-11T18:05:56Z</time>
      </trkpt>
      <trkpt lat="62.637560927767" lon="17.966183387362">
        <ele>56</ele>
        <time>2017-12-11T18:05:57Z</time>
      </trkpt>
      <trkpt lat="62.637551959134" lon="17.966166707381">
        <ele>55.8</ele>
        <time>2017-12-11T18:05:58Z</time>
      </trkpt>
      <trkpt lat="62.637544583062" lon="17.966150697952">
        <ele>56</ele>
        <time>2017-12-11T18:05:59Z</time>
      </trkpt>
      <trkpt lat="62.637535614429" lon="17.966131671039">
        <ele>56</ele>
        <time>2017-12-11T18:06:00Z</time>
      </trkpt>
      <trkpt lat="62.637529579461" lon="17.966116667438">
        <ele>56</ele>
        <time>2017-12-11T18:06:01Z</time>
      </trkpt>
      <trkpt lat="62.637507702702" lon="17.966087833702">
        <ele>56</ele>
        <time>2017-12-11T18:06:02Z</time>
      </trkpt>
      <trkpt lat="62.637487502323" lon="17.96606201745">
        <ele>56</ele>
        <time>2017-12-11T18:06:03Z</time>
      </trkpt>
      <trkpt lat="62.637492531463" lon="17.966049360781">
        <ele>55.8</ele>
        <time>2017-12-11T18:06:04Z</time>
      </trkpt>
      <trkpt lat="62.637460344967" lon="17.966011306955">
        <ele>55.8</ele>
        <time>2017-12-11T18:06:05Z</time>
      </trkpt>
      <trkpt lat="62.637444922271" lon="17.96597987483">
        <ele>55.8</ele>
        <time>2017-12-11T18:06:06Z</time>
      </trkpt>
      <trkpt lat="62.637424805711" lon="17.965947520696">
        <ele>55.6</ele>
        <time>2017-12-11T18:06:07Z</time>
      </trkpt>
      <trkpt lat="62.637409383015" lon="17.965928074688">
        <ele>55.8</ele>
        <time>2017-12-11T18:06:08Z</time>
      </trkpt>
      <trkpt lat="62.637396139613" lon="17.965906030291">
        <ele>56</ele>
        <time>2017-12-11T18:06:09Z</time>
      </trkpt>
      <trkpt lat="62.637379878727" lon="17.965886919559">
        <ele>56</ele>
        <time>2017-12-11T18:06:10Z</time>
      </trkpt>
      <trkpt lat="62.637370490999" lon="17.965854733063">
        <ele>55.8</ele>
        <time>2017-12-11T18:06:11Z</time>
      </trkpt>
      <trkpt lat="62.63735112881" lon="17.965812404468">
        <ele>56</ele>
        <time>2017-12-11T18:06:12Z</time>
      </trkpt>
      <trkpt lat="62.637340567616" lon="17.965796814134">
        <ele>56</ele>
        <time>2017-12-11T18:06:13Z</time>
      </trkpt>
      <trkpt lat="62.637322462712" lon="17.965761442516">
        <ele>55.8</ele>
        <time>2017-12-11T18:06:14Z</time>
      </trkpt>
      <trkpt lat="62.63730670474" lon="17.965711821668">
        <ele>55.8</ele>
        <time>2017-12-11T18:06:15Z</time>
      </trkpt>
      <trkpt lat="62.637294886261" lon="17.965683574665">
        <ele>56</ele>
        <time>2017-12-11T18:06:16Z</time>
      </trkpt>
      <trkpt lat="62.637284325067" lon="17.965652813092">
        <ele>56</ele>
        <time>2017-12-11T18:06:17Z</time>
      </trkpt>
      <trkpt lat="62.63726982438" lon="17.965615010723">
        <ele>55.8</ele>
        <time>2017-12-11T18:06:18Z</time>
      </trkpt>
      <trkpt lat="62.637255658969" lon="17.965574693784">
        <ele>55.8</ele>
        <time>2017-12-11T18:06:19Z</time>
      </trkpt>
      <trkpt lat="62.637240068635" lon="17.965530856447">
        <ele>56</ele>
        <time>2017-12-11T18:06:20Z</time>
      </trkpt>
      <trkpt lat="62.637226657595" lon="17.965486264739">
        <ele>55.8</ele>
        <time>2017-12-11T18:06:21Z</time>
      </trkpt>
      <trkpt lat="62.637212911279" lon="17.965436895348">
        <ele>55.8</ele>
        <time>2017-12-11T18:06:22Z</time>
      </trkpt>
      <trkpt lat="62.637199248782" lon="17.965395572581">
        <ele>56</ele>
        <time>2017-12-11T18:06:23Z</time>
      </trkpt>
      <trkpt lat="62.637186173018" lon="17.965363218447">
        <ele>55.8</ele>
        <time>2017-12-11T18:06:24Z</time>
      </trkpt>
      <trkpt lat="62.637170331227" lon="17.965317956187">
        <ele>55.8</ele>
        <time>2017-12-11T18:06:25Z</time>
      </trkpt>
      <trkpt lat="62.637155327626" lon="17.965264395846">
        <ele>55.8</ele>
        <time>2017-12-11T18:06:26Z</time>
      </trkpt>
      <trkpt lat="62.637141916586" lon="17.965216032283">
        <ele>55.8</ele>
        <time>2017-12-11T18:06:27Z</time>
      </trkpt>
      <trkpt lat="62.637132445039" lon="17.965191724773">
        <ele>55.8</ele>
        <time>2017-12-11T18:06:28Z</time>
      </trkpt>
      <trkpt lat="62.63712062656" lon="17.965155598784">
        <ele>55.8</ele>
        <time>2017-12-11T18:06:29Z</time>
      </trkpt>
      <trkpt lat="62.637109310995" lon="17.965124334297">
        <ele>56</ele>
        <time>2017-12-11T18:06:30Z</time>
      </trkpt>
      <trkpt lat="62.63709631905" lon="17.965079994046">
        <ele>55.8</ele>
        <time>2017-12-11T18:06:31Z</time>
      </trkpt>
      <trkpt lat="62.637085171123" lon="17.965031714302">
        <ele>55.8</ele>
        <time>2017-12-11T18:06:32Z</time>
      </trkpt>
      <trkpt lat="62.637071508626" lon="17.964985027119">
        <ele>55.8</ele>
        <time>2017-12-11T18:06:33Z</time>
      </trkpt>
      <trkpt lat="62.637052481713" lon="17.964920486489">
        <ele>55.8</ele>
        <time>2017-12-11T18:06:34Z</time>
      </trkpt>
      <trkpt lat="62.637034628266" lon="17.964866004139">
        <ele>55.8</ele>
        <time>2017-12-11T18:06:35Z</time>
      </trkpt>
      <trkpt lat="62.637008141462" lon="17.964826609209">
        <ele>55.8</ele>
        <time>2017-12-11T18:06:36Z</time>
      </trkpt>
      <trkpt lat="62.636985258875" lon="17.96477120485">
        <ele>56</ele>
        <time>2017-12-11T18:06:37Z</time>
      </trkpt>
      <trkpt lat="62.636968327437" lon="17.964724852943">
        <ele>55.8</ele>
        <time>2017-12-11T18:06:38Z</time>
      </trkpt>
      <trkpt lat="62.636948043239" lon="17.964669448584">
        <ele>55.8</ele>
        <time>2017-12-11T18:06:39Z</time>
      </trkpt>
      <trkpt lat="62.636931279439" lon="17.964623767229">
        <ele>56</ele>
        <time>2017-12-11T18:06:40Z</time>
      </trkpt>
      <trkpt lat="62.636914934734" lon="17.964580516625">
        <ele>55.8</ele>
        <time>2017-12-11T18:06:41Z</time>
      </trkpt>
      <trkpt lat="62.636898925305" lon="17.964531566329">
        <ele>55.8</ele>
        <time>2017-12-11T18:06:42Z</time>
      </trkpt>
      <trkpt lat="62.63688174241" lon="17.964493847779">
        <ele>55.8</ele>
        <time>2017-12-11T18:06:43Z</time>
      </trkpt>
      <trkpt lat="62.636863553687" lon="17.964445232759">
        <ele>55.8</ele>
        <time>2017-12-11T18:06:44Z</time>
      </trkpt>
      <trkpt lat="62.636847879534" lon="17.964406927476">
        <ele>55.6</ele>
        <time>2017-12-11T18:06:45Z</time>
      </trkpt>
      <trkpt lat="62.636830193725" lon="17.964363425415">
        <ele>55.8</ele>
        <time>2017-12-11T18:06:46Z</time>
      </trkpt>
      <trkpt lat="62.63681049626" lon="17.964315564766">
        <ele>55.8</ele>
        <time>2017-12-11T18:06:47Z</time>
      </trkpt>
      <trkpt lat="62.636790547338" lon="17.964269464316">
        <ele>55.8</ele>
        <time>2017-12-11T18:06:48Z</time>
      </trkpt>
      <trkpt lat="62.636767497113" lon="17.964218502364">
        <ele>55.8</ele>
        <time>2017-12-11T18:06:49Z</time>
      </trkpt>
      <trkpt lat="62.636750398037" lon="17.964176844321">
        <ele>55.8</ele>
        <time>2017-12-11T18:06:50Z</time>
      </trkpt>
      <trkpt lat="62.636734891522" lon="17.964135689192">
        <ele>55.6</ele>
        <time>2017-12-11T18:06:51Z</time>
      </trkpt>
      <trkpt lat="62.636717121894" lon="17.964092103312">
        <ele>55.6</ele>
        <time>2017-12-11T18:06:52Z</time>
      </trkpt>
      <trkpt lat="62.636701950655" lon="17.964057402246">
        <ele>55.6</ele>
        <time>2017-12-11T18:06:53Z</time>
      </trkpt>
      <trkpt lat="62.63668309138" lon="17.964004009543">
        <ele>55.6</ele>
        <time>2017-12-11T18:06:54Z</time>
      </trkpt>
      <trkpt lat="62.636666746675" lon="17.963957909093">
        <ele>55.4</ele>
        <time>2017-12-11T18:06:55Z</time>
      </trkpt>
      <trkpt lat="62.636643947907" lon="17.963916921602">
        <ele>55.6</ele>
        <time>2017-12-11T18:06:56Z</time>
      </trkpt>
      <trkpt lat="62.636625843003" lon="17.963868138944">
        <ele>55.6</ele>
        <time>2017-12-11T18:06:57Z</time>
      </trkpt>
      <trkpt lat="62.636610923221" lon="17.963831174765">
        <ele>55.6</ele>
        <time>2017-12-11T18:06:58Z</time>
      </trkpt>
      <trkpt lat="62.636592063946" lon="17.963791444559">
        <ele>55.4</ele>
        <time>2017-12-11T18:06:59Z</time>
      </trkpt>
      <trkpt lat="62.636575467784" lon="17.963759090425">
        <ele>55.4</ele>
        <time>2017-12-11T18:07:00Z</time>
      </trkpt>
      <trkpt lat="62.636561302373" lon="17.963749283602">
        <ele>55.4</ele>
        <time>2017-12-11T18:07:01Z</time>
      </trkpt>
      <trkpt lat="62.636538587424" lon="17.963764454841">
        <ele>55.2</ele>
        <time>2017-12-11T18:07:02Z</time>
      </trkpt>
      <trkpt lat="62.636518638502" lon="17.963784739039">
        <ele>55.2</ele>
        <time>2017-12-11T18:07:03Z</time>
      </trkpt>
      <trkpt lat="62.636494079535" lon="17.963816841716">
        <ele>55.2</ele>
        <time>2017-12-11T18:07:04Z</time>
      </trkpt>
      <trkpt lat="62.636470526396" lon="17.963841819778">
        <ele>55.2</ele>
        <time>2017-12-11T18:07:05Z</time>
      </trkpt>
      <trkpt lat="62.636446637981" lon="17.963870318238">
        <ele>55.2</ele>
        <time>2017-12-11T18:07:06Z</time>
      </trkpt>
      <trkpt lat="62.636427024335" lon="17.963902923829">
        <ele>55.2</ele>
        <time>2017-12-11T18:07:07Z</time>
      </trkpt>
      <trkpt lat="62.636411434001" lon="17.963932344298">
        <ele>55.2</ele>
        <time>2017-12-11T18:07:08Z</time>
      </trkpt>
      <trkpt lat="62.636390646889" lon="17.963963944061">
        <ele>55.2</ele>
        <time>2017-12-11T18:07:09Z</time>
      </trkpt>
      <trkpt lat="62.636368602492" lon="17.963993532168">
        <ele>55.2</ele>
        <time>2017-12-11T18:07:10Z</time>
      </trkpt>
      <trkpt lat="62.636350162312" lon="17.964013061995">
        <ele>55.4</ele>
        <time>2017-12-11T18:07:11Z</time>
      </trkpt>
      <trkpt lat="62.63632853701" lon="17.964039884075">
        <ele>55.4</ele>
        <time>2017-12-11T18:07:12Z</time>
      </trkpt>
      <trkpt lat="62.636307330803" lon="17.964065281232">
        <ele>55.4</ele>
        <time>2017-12-11T18:07:13Z</time>
      </trkpt>
      <trkpt lat="62.636283861483" lon="17.964088666733">
        <ele>55.6</ele>
        <time>2017-12-11T18:07:14Z</time>
      </trkpt>
      <trkpt lat="62.636260978896" lon="17.964118841573">
        <ele>55.8</ele>
        <time>2017-12-11T18:07:15Z</time>
      </trkpt>
      <trkpt lat="62.636242287259" lon="17.964149519327">
        <ele>55.6</ele>
        <time>2017-12-11T18:07:16Z</time>
      </trkpt>
      <trkpt lat="62.636223260346" lon="17.964172066638">
        <ele>55.8</ele>
        <time>2017-12-11T18:07:17Z</time>
      </trkpt>
      <trkpt lat="62.636204233433" lon="17.964193105207">
        <ele>55.8</ele>
        <time>2017-12-11T18:07:18Z</time>
      </trkpt>
      <trkpt lat="62.636181350846" lon="17.964216742165">
        <ele>55.8</ele>
        <time>2017-12-11T18:07:19Z</time>
      </trkpt>
      <trkpt lat="62.636158132983" lon="17.964244570073">
        <ele>55.8</ele>
        <time>2017-12-11T18:07:20Z</time>
      </trkpt>
      <trkpt lat="62.636136340043" lon="17.964266865927">
        <ele>56</ele>
        <time>2017-12-11T18:07:21Z</time>
      </trkpt>
      <trkpt lat="62.63611563675" lon="17.964283294451">
        <ele>56</ele>
        <time>2017-12-11T18:07:22Z</time>
      </trkpt>
      <trkpt lat="62.636097448027" lon="17.964297795138">
        <ele>55.8</ele>
        <time>2017-12-11T18:07:23Z</time>
      </trkpt>
      <trkpt lat="62.636072302327" lon="17.964319588078">
        <ele>56</ele>
        <time>2017-12-11T18:07:24Z</time>
      </trkpt>
      <trkpt lat="62.636050006473" lon="17.964341045742">
        <ele>56</ele>
        <time>2017-12-11T18:07:25Z</time>
      </trkpt>
      <trkpt lat="62.636029806094" lon="17.964362335768">
        <ele>56</ele>
        <time>2017-12-11T18:07:26Z</time>
      </trkpt>
      <trkpt lat="62.636010108629" lon="17.964382452328">
        <ele>56</ele>
        <time>2017-12-11T18:07:27Z</time>
      </trkpt>
      <trkpt lat="62.635989572974" lon="17.964399719042">
        <ele>56.2</ele>
        <time>2017-12-11T18:07:28Z</time>
      </trkpt>
      <trkpt lat="62.635970546061" lon="17.964415896109">
        <ele>56.4</ele>
        <time>2017-12-11T18:07:29Z</time>
      </trkpt>
      <trkpt lat="62.635954201356" lon="17.96443257609">
        <ele>56.4</ele>
        <time>2017-12-11T18:07:30Z</time>
      </trkpt>
      <trkpt lat="62.635939197755" lon="17.964447747329">
        <ele>56.4</ele>
        <time>2017-12-11T18:07:31Z</time>
      </trkpt>
      <trkpt lat="62.635916566625" lon="17.964467444794">
        <ele>56.6</ele>
        <time>2017-12-11T18:07:32Z</time>
      </trkpt>
      <trkpt lat="62.635894438409" lon="17.96448454387">
        <ele>56.4</ele>
        <time>2017-12-11T18:07:33Z</time>
      </trkpt>
      <trkpt lat="62.635876920238" lon="17.964503235507">
        <ele>56.4</ele>
        <time>2017-12-11T18:07:34Z</time>
      </trkpt>
      <trkpt lat="62.635861246085" lon="17.964520418402">
        <ele>56.6</ele>
        <time>2017-12-11T18:07:35Z</time>
      </trkpt>
      <trkpt lat="62.635839117869" lon="17.964541289333">
        <ele>56.6</ele>
        <time>2017-12-11T18:07:36Z</time>
      </trkpt>
      <trkpt lat="62.635815648549" lon="17.964561322074">
        <ele>56.8</ele>
        <time>2017-12-11T18:07:37Z</time>
      </trkpt>
      <trkpt lat="62.635796202541" lon="17.964577834417">
        <ele>56.8</ele>
        <time>2017-12-11T18:07:38Z</time>
      </trkpt>
      <trkpt lat="62.635779271103" lon="17.964592754199">
        <ele>57</ele>
        <time>2017-12-11T18:07:39Z</time>
      </trkpt>
      <trkpt lat="62.635752951937" lon="17.964607673981">
        <ele>57</ele>
        <time>2017-12-11T18:07:40Z</time>
      </trkpt>
      <trkpt lat="62.635745240589" lon="17.964612870759">
        <ele>56.8</ele>
        <time>2017-12-11T18:07:41Z</time>
      </trkpt>
      <trkpt lat="62.635721352174" lon="17.96462871255">
        <ele>57</ele>
        <time>2017-12-11T18:07:42Z</time>
      </trkpt>
      <trkpt lat="62.635694362456" lon="17.964643883789">
        <ele>57</ele>
        <time>2017-12-11T18:07:43Z</time>
      </trkpt>
      <trkpt lat="62.635671312231" lon="17.964664084168">
        <ele>57</ele>
        <time>2017-12-11T18:07:44Z</time>
      </trkpt>
      <trkpt lat="62.63565379406" lon="17.964683278719">
        <ele>57.2</ele>
        <time>2017-12-11T18:07:45Z</time>
      </trkpt>
      <trkpt lat="62.635627977808" lon="17.964696522121">
        <ele>57.2</ele>
        <time>2017-12-11T18:07:46Z</time>
      </trkpt>
      <trkpt lat="62.63559763533" lon="17.964712615369">
        <ele>57.2</ele>
        <time>2017-12-11T18:07:47Z</time>
      </trkpt>
      <trkpt lat="62.63556578411" lon="17.964729798264">
        <ele>57.4</ele>
        <time>2017-12-11T18:07:48Z</time>
      </trkpt>
      <trkpt lat="62.635548601215" lon="17.964742035838">
        <ele>57.6</ele>
        <time>2017-12-11T18:07:49Z</time>
      </trkpt>
      <trkpt lat="62.635520438031" lon="17.964756536525">
        <ele>57.4</ele>
        <time>2017-12-11T18:07:50Z</time>
      </trkpt>
      <trkpt lat="62.635496381978" lon="17.964771288669">
        <ele>57.6</ele>
        <time>2017-12-11T18:07:51Z</time>
      </trkpt>
      <trkpt lat="62.635465704224" lon="17.964785705537">
        <ele>57.8</ele>
        <time>2017-12-11T18:07:52Z</time>
      </trkpt>
      <trkpt lat="62.635442486361" lon="17.964796853464">
        <ele>57.8</ele>
        <time>2017-12-11T18:07:53Z</time>
      </trkpt>
      <trkpt lat="62.635412311521" lon="17.964807666115">
        <ele>57.6</ele>
        <time>2017-12-11T18:07:54Z</time>
      </trkpt>
      <trkpt lat="62.635389931848" lon="17.964814287816">
        <ele>57.8</ele>
        <time>2017-12-11T18:07:55Z</time>
      </trkpt>
      <trkpt lat="62.635365205243" lon="17.964824765191">
        <ele>57.8</ele>
        <time>2017-12-11T18:07:56Z</time>
      </trkpt>
      <trkpt lat="62.63534282557" lon="17.964832141263">
        <ele>57.8</ele>
        <time>2017-12-11T18:07:57Z</time>
      </trkpt>
      <trkpt lat="62.635320110621" lon="17.964838176231">
        <ele>57.8</ele>
        <time>2017-12-11T18:07:58Z</time>
      </trkpt>
      <trkpt lat="62.635296892758" lon="17.964848988882">
        <ele>58</ele>
        <time>2017-12-11T18:07:59Z</time>
      </trkpt>
      <trkpt lat="62.635273758714" lon="17.96485250928">
        <ele>57.8</ele>
        <time>2017-12-11T18:08:00Z</time>
      </trkpt>
      <trkpt lat="62.635246349901" lon="17.964859633895">
        <ele>58</ele>
        <time>2017-12-11T18:08:01Z</time>
      </trkpt>
      <trkpt lat="62.635217013251" lon="17.964867093786">
        <ele>58</ele>
        <time>2017-12-11T18:08:02Z</time>
      </trkpt>
      <trkpt lat="62.635193460112" lon="17.964870195089">
        <ele>58</ele>
        <time>2017-12-11T18:08:03Z</time>
      </trkpt>
      <trkpt lat="62.635171248077" lon="17.964876230057">
        <ele>58</ele>
        <time>2017-12-11T18:08:04Z</time>
      </trkpt>
      <trkpt lat="62.635151131517" lon="17.964881259197">
        <ele>58</ele>
        <time>2017-12-11T18:08:05Z</time>
      </trkpt>
      <trkpt lat="62.635120286125" lon="17.964886707432">
        <ele>58.2</ele>
        <time>2017-12-11T18:08:06Z</time>
      </trkpt>
      <trkpt lat="62.635086590887" lon="17.964887042708">
        <ele>58.4</ele>
        <time>2017-12-11T18:08:07Z</time>
      </trkpt>
      <trkpt lat="62.635059349712" lon="17.964885785423">
        <ele>58.2</ele>
        <time>2017-12-11T18:08:08Z</time>
      </trkpt>
      <trkpt lat="62.635028588139" lon="17.964890730744">
        <ele>58.4</ele>
        <time>2017-12-11T18:08:09Z</time>
      </trkpt>
      <trkpt lat="62.635001430783" lon="17.964896178979">
        <ele>58.6</ele>
        <time>2017-12-11T18:08:10Z</time>
      </trkpt>
      <trkpt lat="62.634974441065" lon="17.964903219775">
        <ele>58.4</ele>
        <time>2017-12-11T18:08:11Z</time>
      </trkpt>
      <trkpt lat="62.634947451347" lon="17.964908416553">
        <ele>58.6</ele>
        <time>2017-12-11T18:08:12Z</time>
      </trkpt>
      <trkpt lat="62.634921048362" lon="17.964912104589">
        <ele>58.6</ele>
        <time>2017-12-11T18:08:13Z</time>
      </trkpt>
      <trkpt lat="62.634892801359" lon="17.964916714634">
        <ele>58.6</ele>
        <time>2017-12-11T18:08:14Z</time>
      </trkpt>
      <trkpt lat="62.634870337867" lon="17.964919983575">
        <ele>58.6</ele>
        <time>2017-12-11T18:08:15Z</time>
      </trkpt>
      <trkpt lat="62.634843348149" lon="17.964923001059">
        <ele>58.8</ele>
        <time>2017-12-11T18:08:16Z</time>
      </trkpt>
      <trkpt lat="62.634818034811" lon="17.96492459362">
        <ele>58.8</ele>
        <time>2017-12-11T18:08:17Z</time>
      </trkpt>
      <trkpt lat="62.634791631826" lon="17.964928700751">
        <ele>58.8</ele>
        <time>2017-12-11T18:08:18Z</time>
      </trkpt>
      <trkpt lat="62.634763720099" lon="17.964925012715">
        <ele>58.8</ele>
        <time>2017-12-11T18:08:19Z</time>
      </trkpt>
      <trkpt lat="62.634737233295" lon="17.96491872629">
        <ele>58.8</ele>
        <time>2017-12-11T18:08:20Z</time>
      </trkpt>
      <trkpt lat="62.634711333224" lon="17.964911685494">
        <ele>58.8</ele>
        <time>2017-12-11T18:08:21Z</time>
      </trkpt>
      <trkpt lat="62.634682499488" lon="17.964911685494">
        <ele>59</ele>
        <time>2017-12-11T18:08:22Z</time>
      </trkpt>
      <trkpt lat="62.63466305348" lon="17.964914200064">
        <ele>59</ele>
        <time>2017-12-11T18:08:23Z</time>
      </trkpt>
      <trkpt lat="62.634633130097" lon="17.964913194236">
        <ele>58.8</ele>
        <time>2017-12-11T18:08:24Z</time>
      </trkpt>
      <trkpt lat="62.634607900578" lon="17.964908416553">
        <ele>59</ele>
        <time>2017-12-11T18:08:25Z</time>
      </trkpt>
      <trkpt lat="62.634582922516" lon="17.964911266399">
        <ele>59.2</ele>
        <time>2017-12-11T18:08:26Z</time>
      </trkpt>
      <trkpt lat="62.634557944454" lon="17.964905901983">
        <ele>59.2</ele>
        <time>2017-12-11T18:08:27Z</time>
      </trkpt>
      <trkpt lat="62.634534726591" lon="17.964903135956">
        <ele>59.4</ele>
        <time>2017-12-11T18:08:28Z</time>
      </trkpt>
      <trkpt lat="62.63450882652" lon="17.964904225603">
        <ele>59.4</ele>
        <time>2017-12-11T18:08:29Z</time>
      </trkpt>
      <trkpt lat="62.634483094087" lon="17.96490028611">
        <ele>59.4</ele>
        <time>2017-12-11T18:08:30Z</time>
      </trkpt>
      <trkpt lat="62.634460546776" lon="17.964899699377">
        <ele>59.6</ele>
        <time>2017-12-11T18:08:31Z</time>
      </trkpt>
      <trkpt lat="62.634436406904" lon="17.964902716861">
        <ele>59.6</ele>
        <time>2017-12-11T18:08:32Z</time>
      </trkpt>
      <trkpt lat="62.634410674471" lon="17.964904979974">
        <ele>59.6</ele>
        <time>2017-12-11T18:08:33Z</time>
      </trkpt>
      <trkpt lat="62.634386618418" lon="17.964910009114">
        <ele>59.6</ele>
        <time>2017-12-11T18:08:34Z</time>
      </trkpt>
      <trkpt lat="62.634362562365" lon="17.96491034439">
        <ele>59.8</ele>
        <time>2017-12-11T18:08:35Z</time>
      </trkpt>
      <trkpt lat="62.634337165208" lon="17.964909590019">
        <ele>59.8</ele>
        <time>2017-12-11T18:08:36Z</time>
      </trkpt>
      <trkpt lat="62.634313863526" lon="17.964908500372">
        <ele>59.8</ele>
        <time>2017-12-11T18:08:37Z</time>
      </trkpt>
      <trkpt lat="62.634290394206" lon="17.964911936951">
        <ele>60</ele>
        <time>2017-12-11T18:08:38Z</time>
      </trkpt>
      <trkpt lat="62.634259213538" lon="17.964922330507">
        <ele>60</ele>
        <time>2017-12-11T18:08:39Z</time>
      </trkpt>
      <trkpt lat="62.634233145829" lon="17.96492375543">
        <ele>60</ele>
        <time>2017-12-11T18:08:40Z</time>
      </trkpt>
      <trkpt lat="62.634210011785" lon="17.964923252516">
        <ele>60.2</ele>
        <time>2017-12-11T18:08:41Z</time>
      </trkpt>
      <trkpt lat="62.634185201361" lon="17.964920905584">
        <ele>60.2</ele>
        <time>2017-12-11T18:08:42Z</time>
      </trkpt>
      <trkpt lat="62.634159468928" lon="17.964923671611">
        <ele>60.2</ele>
        <time>2017-12-11T18:08:43Z</time>
      </trkpt>
      <trkpt lat="62.6341333174" lon="17.964922749602">
        <ele>60.4</ele>
        <time>2017-12-11T18:08:44Z</time>
      </trkpt>
      <trkpt lat="62.634110434813" lon="17.964924090706">
        <ele>60.4</ele>
        <time>2017-12-11T18:08:45Z</time>
      </trkpt>
      <trkpt lat="62.634085289113" lon="17.964919396842">
        <ele>60.2</ele>
        <time>2017-12-11T18:08:46Z</time>
      </trkpt>
      <trkpt lat="62.634071710435" lon="17.964918223376">
        <ele>60.4</ele>
        <time>2017-12-11T18:08:47Z</time>
      </trkpt>
      <trkpt lat="62.634041367957" lon="17.964916966091">
        <ele>60.4</ele>
        <time>2017-12-11T18:08:48Z</time>
      </trkpt>
      <trkpt lat="62.634015551705" lon="17.964916379358">
        <ele>60.4</ele>
        <time>2017-12-11T18:08:49Z</time>
      </trkpt>
      <trkpt lat="62.633994010222" lon="17.964914367702">
        <ele>60.6</ele>
        <time>2017-12-11T18:08:50Z</time>
      </trkpt>
      <trkpt lat="62.633970792359" lon="17.964916295539">
        <ele>60.6</ele>
        <time>2017-12-11T18:08:51Z</time>
      </trkpt>
      <trkpt lat="62.633946987763" lon="17.964910512028">
        <ele>60.6</ele>
        <time>2017-12-11T18:08:52Z</time>
      </trkpt>
      <trkpt lat="62.63393047542" lon="17.964909003286">
        <ele>60.6</ele>
        <time>2017-12-11T18:08:53Z</time>
      </trkpt>
      <trkpt lat="62.633904407711" lon="17.964915960263">
        <ele>60.8</ele>
        <time>2017-12-11T18:08:54Z</time>
      </trkpt>
      <trkpt lat="62.633882447133" lon="17.964926856733">
        <ele>60.6</ele>
        <time>2017-12-11T18:08:55Z</time>
      </trkpt>
      <trkpt lat="62.63386677298" lon="17.964946218922">
        <ele>60.8</ele>
        <time>2017-12-11T18:08:56Z</time>
      </trkpt>
      <trkpt lat="62.633853613397" lon="17.964974801201">
        <ele>60.8</ele>
        <time>2017-12-11T18:08:57Z</time>
      </trkpt>
      <trkpt lat="62.633847578429" lon="17.965003299661">
        <ele>60.8</ele>
        <time>2017-12-11T18:08:58Z</time>
      </trkpt>
      <trkpt lat="62.633843052203" lon="17.965048561921">
        <ele>60.8</ele>
        <time>2017-12-11T18:08:59Z</time>
      </trkpt>
      <trkpt lat="62.633839364167" lon="17.965100278244">
        <ele>61</ele>
        <time>2017-12-11T18:09:00Z</time>
      </trkpt>
      <trkpt lat="62.63384078909" lon="17.965142103925">
        <ele>61</ele>
        <time>2017-12-11T18:09:01Z</time>
      </trkpt>
      <trkpt lat="62.633843974212" lon="17.965191892411">
        <ele>61.2</ele>
        <time>2017-12-11T18:09:02Z</time>
      </trkpt>
      <trkpt lat="62.633847410791" lon="17.965229527142">
        <ele>61.4</ele>
        <time>2017-12-11T18:09:03Z</time>
      </trkpt>
      <trkpt lat="62.633852020836" lon="17.965272945384">
        <ele>61.6</ele>
        <time>2017-12-11T18:09:04Z</time>
      </trkpt>
      <trkpt lat="62.633854954501" lon="17.965312843228">
        <ele>61.6</ele>
        <time>2017-12-11T18:09:05Z</time>
      </trkpt>
      <trkpt lat="62.633857636709" lon="17.965365313922">
        <ele>62</ele>
        <time>2017-12-11T18:09:06Z</time>
      </trkpt>
      <trkpt lat="62.633861827659" lon="17.965414850951">
        <ele>62.2</ele>
        <time>2017-12-11T18:09:07Z</time>
      </trkpt>
      <trkpt lat="62.633864426048" lon="17.965455503166">
        <ele>62.4</ele>
        <time>2017-12-11T18:09:08Z</time>
      </trkpt>
      <trkpt lat="62.633870880111" lon="17.965504788738">
        <ele>62.6</ele>
        <time>2017-12-11T18:09:09Z</time>
      </trkpt>
      <trkpt lat="62.633875657794" lon="17.96555323612">
        <ele>63</ele>
        <time>2017-12-11T18:09:10Z</time>
      </trkpt>
      <trkpt lat="62.633879932563" lon="17.965600258579">
        <ele>63</ele>
        <time>2017-12-11T18:09:11Z</time>
      </trkpt>
      <trkpt lat="62.63388269859" lon="17.965651807264">
        <ele>63.2</ele>
        <time>2017-12-11T18:09:12Z</time>
      </trkpt>
      <trkpt lat="62.633884039694" lon="17.965701344293">
        <ele>63.4</ele>
        <time>2017-12-11T18:09:13Z</time>
      </trkpt>
      <trkpt lat="62.633885883712" lon="17.965750378408">
        <ele>63.6</ele>
        <time>2017-12-11T18:09:14Z</time>
      </trkpt>
      <trkpt lat="62.63388688954" lon="17.965798993428">
        <ele>63.6</ele>
        <time>2017-12-11T18:09:15Z</time>
      </trkpt>
      <trkpt lat="62.633888733558" lon="17.965845848249">
        <ele>63.8</ele>
        <time>2017-12-11T18:09:16Z</time>
      </trkpt>
      <trkpt lat="62.633888901196" lon="17.96588683574">
        <ele>64</ele>
        <time>2017-12-11T18:09:17Z</time>
      </trkpt>
      <trkpt lat="62.633885967531" lon="17.965936624226">
        <ele>64.2</ele>
        <time>2017-12-11T18:09:18Z</time>
      </trkpt>
      <trkpt lat="62.633885464617" lon="17.965985406884">
        <ele>64.4</ele>
        <time>2017-12-11T18:09:19Z</time>
      </trkpt>
      <trkpt lat="62.633882866228" lon="17.966031172058">
        <ele>64.6</ele>
        <time>2017-12-11T18:09:20Z</time>
      </trkpt>
      <trkpt lat="62.633876244527" lon="17.966077775422">
        <ele>64.6</ele>
        <time>2017-12-11T18:09:21Z</time>
      </trkpt>
      <trkpt lat="62.633868784636" lon="17.966118679094">
        <ele>64.8</ele>
        <time>2017-12-11T18:09:22Z</time>
      </trkpt>
      <trkpt lat="62.633861240926" lon="17.966149273029">
        <ele>65</ele>
        <time>2017-12-11T18:09:23Z</time>
      </trkpt>
      <trkpt lat="62.633843638936" lon="17.966192104538">
        <ele>65</ele>
        <time>2017-12-11T18:09:24Z</time>
      </trkpt>
      <trkpt lat="62.633827880964" lon="17.966215825315">
        <ele>65</ele>
        <time>2017-12-11T18:09:25Z</time>
      </trkpt>
      <trkpt lat="62.633811033345" lon="17.96623552278">
        <ele>65.2</ele>
        <time>2017-12-11T18:09:26Z</time>
      </trkpt>
      <trkpt lat="62.63379049769" lon="17.966254968788">
        <ele>65.4</ele>
        <time>2017-12-11T18:09:27Z</time>
      </trkpt>
      <trkpt lat="62.633777338107" lon="17.966266619629">
        <ele>65.6</ele>
        <time>2017-12-11T18:09:28Z</time>
      </trkpt>
      <trkpt lat="62.633754958434" lon="17.966285646542">
        <ele>65.8</ele>
        <time>2017-12-11T18:09:29Z</time>
      </trkpt>
      <trkpt lat="62.6337309862" lon="17.966299895772">
        <ele>65.8</ele>
        <time>2017-12-11T18:09:30Z</time>
      </trkpt>
      <trkpt lat="62.633711121097" lon="17.966305763102">
        <ele>66</ele>
        <time>2017-12-11T18:09:31Z</time>
      </trkpt>
      <trkpt lat="62.633688322329" lon="17.966314899373">
        <ele>66</ele>
        <time>2017-12-11T18:09:32Z</time>
      </trkpt>
      <trkpt lat="62.633670552701" lon="17.966318755047">
        <ele>66</ele>
        <time>2017-12-11T18:09:33Z</time>
      </trkpt>
      <trkpt lat="62.633647334838" lon="17.966322526902">
        <ele>66.2</ele>
        <time>2017-12-11T18:09:34Z</time>
      </trkpt>
      <trkpt lat="62.63362788883" lon="17.966326717852">
        <ele>66.2</ele>
        <time>2017-12-11T18:09:35Z</time>
      </trkpt>
      <trkpt lat="62.633605173881" lon="17.966329483879">
        <ele>66.2</ele>
        <time>2017-12-11T18:09:36Z</time>
      </trkpt>
      <trkpt lat="62.633582710389" lon="17.96632688549">
        <ele>66.2</ele>
        <time>2017-12-11T18:09:37Z</time>
      </trkpt>
      <trkpt lat="62.63356418639" lon="17.966328310413">
        <ele>66.2</ele>
        <time>2017-12-11T18:09:38Z</time>
      </trkpt>
      <trkpt lat="62.633539627423" lon="17.966327975137">
        <ele>66</ele>
        <time>2017-12-11T18:09:39Z</time>
      </trkpt>
      <trkpt lat="62.633516996293" lon="17.966329735336">
        <ele>66.2</ele>
        <time>2017-12-11T18:09:40Z</time>
      </trkpt>
      <trkpt lat="62.63349796938" lon="17.966332166087">
        <ele>66</ele>
        <time>2017-12-11T18:09:41Z</time>
      </trkpt>
      <trkpt lat="62.63347366187" lon="17.96632856187">
        <ele>66</ele>
        <time>2017-12-11T18:09:42Z</time>
      </trkpt>
      <trkpt lat="62.633451533654" lon="17.966324035644">
        <ele>66</ele>
        <time>2017-12-11T18:09:43Z</time>
      </trkpt>
      <trkpt lat="62.633429573076" lon="17.966324035644">
        <ele>66</ele>
        <time>2017-12-11T18:09:44Z</time>
      </trkpt>
      <trkpt lat="62.633407612498" lon="17.966325963481">
        <ele>65.8</ele>
        <time>2017-12-11T18:09:45Z</time>
      </trkpt>
      <trkpt lat="62.633386993024" lon="17.966327891318">
        <ele>65.8</ele>
        <time>2017-12-11T18:09:46Z</time>
      </trkpt>
      <trkpt lat="62.633365702998" lon="17.96632856187">
        <ele>65.8</ele>
        <time>2017-12-11T18:09:47Z</time>
      </trkpt>
      <trkpt lat="62.633343407144" lon="17.966328980965">
        <ele>65.8</ele>
        <time>2017-12-11T18:09:48Z</time>
      </trkpt>
      <trkpt lat="62.633318009987" lon="17.966330657345">
        <ele>65.8</ele>
        <time>2017-12-11T18:09:49Z</time>
      </trkpt>
      <trkpt lat="62.633296468504" lon="17.966332920458">
        <ele>65.8</ele>
        <time>2017-12-11T18:09:50Z</time>
      </trkpt>
      <trkpt lat="62.63327249627" lon="17.966335183571">
        <ele>65.8</ele>
        <time>2017-12-11T18:09:51Z</time>
      </trkpt>
      <trkpt lat="62.63324986514" lon="17.966335183571">
        <ele>65.8</ele>
        <time>2017-12-11T18:09:52Z</time>
      </trkpt>
      <trkpt lat="62.633233436616" lon="17.96633778196">
        <ele>65.6</ele>
        <time>2017-12-11T18:09:53Z</time>
      </trkpt>
      <trkpt lat="62.633207620364" lon="17.96633945834">
        <ele>65.6</ele>
        <time>2017-12-11T18:09:54Z</time>
      </trkpt>
      <trkpt lat="62.633185492148" lon="17.966343146376">
        <ele>65.6</ele>
        <time>2017-12-11T18:09:55Z</time>
      </trkpt>
      <trkpt lat="62.633165459407" lon="17.96634197291">
        <ele>65.6</ele>
        <time>2017-12-11T18:09:56Z</time>
      </trkpt>
      <trkpt lat="62.633146851589" lon="17.966340631806">
        <ele>65.6</ele>
        <time>2017-12-11T18:09:57Z</time>
      </trkpt>
      <trkpt lat="62.633126064477" lon="17.966341050901">
        <ele>65.4</ele>
        <time>2017-12-11T18:09:58Z</time>
      </trkpt>
      <trkpt lat="62.633104774451" lon="17.966342475824">
        <ele>65.4</ele>
        <time>2017-12-11T18:09:59Z</time>
      </trkpt>
      <trkpt lat="62.63308306533" lon="17.96634448748">
        <ele>65.2</ele>
        <time>2017-12-11T18:10:00Z</time>
      </trkpt>
      <trkpt lat="62.633059931286" lon="17.966341302358">
        <ele>65.2</ele>
        <time>2017-12-11T18:10:01Z</time>
      </trkpt>
      <trkpt lat="62.633037216337" lon="17.966336189399">
        <ele>65.2</ele>
        <time>2017-12-11T18:10:02Z</time>
      </trkpt>
      <trkpt lat="62.633016261587" lon="17.96633610558">
        <ele>65.2</ele>
        <time>2017-12-11T18:10:03Z</time>
      </trkpt>
      <trkpt lat="62.632990193878" lon="17.966331495535">
        <ele>65</ele>
        <time>2017-12-11T18:10:04Z</time>
      </trkpt>
      <trkpt lat="62.632970161137" lon="17.966332082268">
        <ele>65</ele>
        <time>2017-12-11T18:10:05Z</time>
      </trkpt>
      <trkpt lat="62.63294727855" lon="17.966335183571">
        <ele>65</ele>
        <time>2017-12-11T18:10:06Z</time>
      </trkpt>
      <trkpt lat="62.632924982696" lon="17.966337195227">
        <ele>65</ele>
        <time>2017-12-11T18:10:07Z</time>
      </trkpt>
      <trkpt lat="62.632905285231" lon="17.966338368693">
        <ele>64.8</ele>
        <time>2017-12-11T18:10:08Z</time>
      </trkpt>
      <trkpt lat="62.632881983549" lon="17.966340464168">
        <ele>64.8</ele>
        <time>2017-12-11T18:10:09Z</time>
      </trkpt>
      <trkpt lat="62.632859687695" lon="17.966339961254">
        <ele>64.8</ele>
        <time>2017-12-11T18:10:10Z</time>
      </trkpt>
      <trkpt lat="62.632837391841" lon="17.966340128892">
        <ele>64.6</ele>
        <time>2017-12-11T18:10:11Z</time>
      </trkpt>
      <trkpt lat="62.632816185634" lon="17.966340212711">
        <ele>64.6</ele>
        <time>2017-12-11T18:10:12Z</time>
      </trkpt>
      <trkpt lat="62.632795817617" lon="17.966338871607">
        <ele>64.6</ele>
        <time>2017-12-11T18:10:13Z</time>
      </trkpt>
      <trkpt lat="62.632770923374" lon="17.966337949598">
        <ele>64.6</ele>
        <time>2017-12-11T18:10:14Z</time>
      </trkpt>
      <trkpt lat="62.632749381891" lon="17.966336859951">
        <ele>64.6</ele>
        <time>2017-12-11T18:10:15Z</time>
      </trkpt>
      <trkpt lat="62.63272599639" lon="17.966335015933">
        <ele>64.4</ele>
        <time>2017-12-11T18:10:16Z</time>
      </trkpt>
      <trkpt lat="62.63270252707" lon="17.966337446684">
        <ele>64.4</ele>
        <time>2017-12-11T18:10:17Z</time>
      </trkpt>
      <trkpt lat="62.632682997243" lon="17.966338871607">
        <ele>64.2</ele>
        <time>2017-12-11T18:10:18Z</time>
      </trkpt>
      <trkpt lat="62.632659025009" lon="17.966335602666">
        <ele>64.2</ele>
        <time>2017-12-11T18:10:19Z</time>
      </trkpt>
      <trkpt lat="62.632637232069" lon="17.966332166087">
        <ele>64.2</ele>
        <time>2017-12-11T18:10:20Z</time>
      </trkpt>
      <trkpt lat="62.632617366966" lon="17.966329819155">
        <ele>64</ele>
        <time>2017-12-11T18:10:21Z</time>
      </trkpt>
      <trkpt lat="62.632598004777" lon="17.966323700368">
        <ele>64</ele>
        <time>2017-12-11T18:10:22Z</time>
      </trkpt>
      <trkpt lat="62.632579648416" lon="17.966320766703">
        <ele>64</ele>
        <time>2017-12-11T18:10:23Z</time>
      </trkpt>
      <trkpt lat="62.632553245431" lon="17.966314145002">
        <ele>64</ele>
        <time>2017-12-11T18:10:24Z</time>
      </trkpt>
      <trkpt lat="62.632530781939" lon="17.966311043699">
        <ele>63.8</ele>
        <time>2017-12-11T18:10:25Z</time>
      </trkpt>
      <trkpt lat="62.632507312619" lon="17.966306182197">
        <ele>63.8</ele>
        <time>2017-12-11T18:10:26Z</time>
      </trkpt>
      <trkpt lat="62.632486441688" lon="17.966302997075">
        <ele>63.8</ele>
        <time>2017-12-11T18:10:27Z</time>
      </trkpt>
      <trkpt lat="62.632465906033" lon="17.966299476677">
        <ele>63.8</ele>
        <time>2017-12-11T18:10:28Z</time>
      </trkpt>
      <trkpt lat="62.632442017618" lon="17.966291094777">
        <ele>63.8</ele>
        <time>2017-12-11T18:10:29Z</time>
      </trkpt>
      <trkpt lat="62.632420476135" lon="17.966280198307">
        <ele>63.8</ele>
        <time>2017-12-11T18:10:30Z</time>
      </trkpt>
      <trkpt lat="62.632397593548" lon="17.966272738416">
        <ele>63.6</ele>
        <time>2017-12-11T18:10:31Z</time>
      </trkpt>
      <trkpt lat="62.632376806436" lon="17.966261422851">
        <ele>63.6</ele>
        <time>2017-12-11T18:10:32Z</time>
      </trkpt>
      <trkpt lat="62.632355013496" lon="17.966260500842">
        <ele>63.4</ele>
        <time>2017-12-11T18:10:33Z</time>
      </trkpt>
      <trkpt lat="62.632332550004" lon="17.966256561349">
        <ele>63.4</ele>
        <time>2017-12-11T18:10:34Z</time>
      </trkpt>
      <trkpt lat="62.632310505607" lon="17.966254382055">
        <ele>63.4</ele>
        <time>2017-12-11T18:10:35Z</time>
      </trkpt>
      <trkpt lat="62.632287706839" lon="17.966252202761">
        <ele>63.2</ele>
        <time>2017-12-11T18:10:36Z</time>
      </trkpt>
      <trkpt lat="62.632267757917" lon="17.966258908281">
        <ele>63</ele>
        <time>2017-12-11T18:10:37Z</time>
      </trkpt>
      <trkpt lat="62.63225074266" lon="17.966272989873">
        <ele>63</ele>
        <time>2017-12-11T18:10:38Z</time>
      </trkpt>
      <trkpt lat="62.632233895041" lon="17.966296543012">
        <ele>63</ele>
        <time>2017-12-11T18:10:39Z</time>
      </trkpt>
      <trkpt lat="62.632220232544" lon="17.966323700368">
        <ele>62.8</ele>
        <time>2017-12-11T18:10:40Z</time>
      </trkpt>
      <trkpt lat="62.632208162608" lon="17.966357227968">
        <ele>62.8</ele>
        <time>2017-12-11T18:10:41Z</time>
      </trkpt>
      <trkpt lat="62.632198607242" lon="17.966399640382">
        <ele>62.6</ele>
        <time>2017-12-11T18:10:42Z</time>
      </trkpt>
      <trkpt lat="62.632194919206" lon="17.966439286769">
        <ele>62.6</ele>
        <time>2017-12-11T18:10:43Z</time>
      </trkpt>
      <trkpt lat="62.632191314989" lon="17.966486728323">
        <ele>62.6</ele>
        <time>2017-12-11T18:10:44Z</time>
      </trkpt>
      <trkpt lat="62.63218955479" lon="17.966527883452">
        <ele>62.6</ele>
        <time>2017-12-11T18:10:45Z</time>
      </trkpt>
      <trkpt lat="62.632186537306" lon="17.966564512355">
        <ele>62.6</ele>
        <time>2017-12-11T18:10:46Z</time>
      </trkpt>
      <trkpt lat="62.632182430175" lon="17.966604074923">
        <ele>62.8</ele>
        <time>2017-12-11T18:10:47Z</time>
      </trkpt>
      <trkpt lat="62.632176395207" lon="17.966647409346">
        <ele>62.8</ele>
        <time>2017-12-11T18:10:48Z</time>
      </trkpt>
      <trkpt lat="62.632173293904" lon="17.966696443461">
        <ele>63</ele>
        <time>2017-12-11T18:10:49Z</time>
      </trkpt>
      <trkpt lat="62.632172204257" lon="17.966746148128">
        <ele>63.2</ele>
        <time>2017-12-11T18:10:50Z</time>
      </trkpt>
      <trkpt lat="62.632171030791" lon="17.96679711008">
        <ele>63.2</ele>
        <time>2017-12-11T18:10:51Z</time>
      </trkpt>
      <trkpt lat="62.632171198429" lon="17.966842456159">
        <ele>63.4</ele>
        <time>2017-12-11T18:10:52Z</time>
      </trkpt>
      <trkpt lat="62.632169773506" lon="17.96688260546">
        <ele>63.6</ele>
        <time>2017-12-11T18:10:53Z</time>
      </trkpt>
      <trkpt lat="62.632164325271" lon="17.966939853837">
        <ele>63.8</ele>
        <time>2017-12-11T18:10:54Z</time>
      </trkpt>
      <trkpt lat="62.63215937995" lon="17.966983104441">
        <ele>64</ele>
        <time>2017-12-11T18:10:55Z</time>
      </trkpt>
      <trkpt lat="62.632153261163" lon="17.967027528511">
        <ele>64.2</ele>
        <time>2017-12-11T18:10:56Z</time>
      </trkpt>
      <trkpt lat="62.632146555643" lon="17.967072958409">
        <ele>64.4</ele>
        <time>2017-12-11T18:10:57Z</time>
      </trkpt>
      <trkpt lat="62.632139933942" lon="17.967108330027">
        <ele>64.6</ele>
        <time>2017-12-11T18:10:58Z</time>
      </trkpt>
      <trkpt lat="62.632130378576" lon="17.967151496812">
        <ele>64.6</ele>
        <time>2017-12-11T18:10:59Z</time>
      </trkpt>
      <trkpt lat="62.63211914683" lon="17.967197429624">
        <ele>64.8</ele>
        <time>2017-12-11T18:11:00Z</time>
      </trkpt>
      <trkpt lat="62.632109842921" lon="17.967232717423">
        <ele>65</ele>
        <time>2017-12-11T18:11:01Z</time>
      </trkpt>
      <trkpt lat="62.632095845148" lon="17.967271693258">
        <ele>65.2</ele>
        <time>2017-12-11T18:11:02Z</time>
      </trkpt>
      <trkpt lat="62.632084194307" lon="17.967309914722">
        <ele>65.4</ele>
        <time>2017-12-11T18:11:03Z</time>
      </trkpt>
      <trkpt lat="62.632071034724" lon="17.967345118702">
        <ele>65.6</ele>
        <time>2017-12-11T18:11:04Z</time>
      </trkpt>
      <trkpt lat="62.632059383883" lon="17.967382082881">
        <ele>65.8</ele>
        <time>2017-12-11T18:11:05Z</time>
      </trkpt>
      <trkpt lat="62.632046308119" lon="17.967423573286">
        <ele>66</ele>
        <time>2017-12-11T18:11:06Z</time>
      </trkpt>
      <trkpt lat="62.632034154364" lon="17.967464979872">
        <ele>66</ele>
        <time>2017-12-11T18:11:07Z</time>
      </trkpt>
      <trkpt lat="62.632022000609" lon="17.967502279327">
        <ele>66.2</ele>
        <time>2017-12-11T18:11:08Z</time>
      </trkpt>
      <trkpt lat="62.632010685044" lon="17.967546200483">
        <ele>66.4</ele>
        <time>2017-12-11T18:11:09Z</time>
      </trkpt>
      <trkpt lat="62.631999704755" lon="17.967588277621">
        <ele>66.6</ele>
        <time>2017-12-11T18:11:10Z</time>
      </trkpt>
      <trkpt lat="62.631991322855" lon="17.967629181293">
        <ele>66.6</ele>
        <time>2017-12-11T18:11:11Z</time>
      </trkpt>
      <trkpt lat="62.631981516032" lon="17.96767301863">
        <ele>67</ele>
        <time>2017-12-11T18:11:12Z</time>
      </trkpt>
      <trkpt lat="62.631969278458" lon="17.967713000293">
        <ele>67.2</ele>
        <time>2017-12-11T18:11:13Z</time>
      </trkpt>
      <trkpt lat="62.631958381988" lon="17.967753568689">
        <ele>67.4</ele>
        <time>2017-12-11T18:11:14Z</time>
      </trkpt>
      <trkpt lat="62.631946395871" lon="17.967795478189">
        <ele>67.6</ele>
        <time>2017-12-11T18:11:15Z</time>
      </trkpt>
      <trkpt lat="62.631934493573" lon="17.967839650802">
        <ele>67.8</ele>
        <time>2017-12-11T18:11:16Z</time>
      </trkpt>
      <trkpt lat="62.631924016198" lon="17.967874435687">
        <ele>68</ele>
        <time>2017-12-11T18:11:17Z</time>
      </trkpt>
      <trkpt lat="62.631910772796" lon="17.967910729314">
        <ele>68.2</ele>
        <time>2017-12-11T18:11:18Z</time>
      </trkpt>
      <trkpt lat="62.631897697032" lon="17.967950124244">
        <ele>68.4</ele>
        <time>2017-12-11T18:11:19Z</time>
      </trkpt>
      <trkpt lat="62.631885710915" lon="17.967985747319">
        <ele>68.6</ele>
        <time>2017-12-11T18:11:20Z</time>
      </trkpt>
      <trkpt lat="62.631872048418" lon="17.968028997923">
        <ele>68.8</ele>
        <time>2017-12-11T18:11:21Z</time>
      </trkpt>
      <trkpt lat="62.631858050645" lon="17.9680694825">
        <ele>69</ele>
        <time>2017-12-11T18:11:22Z</time>
      </trkpt>
      <trkpt lat="62.631851512763" lon="17.968096472218">
        <ele>69</ele>
        <time>2017-12-11T18:11:23Z</time>
      </trkpt>
      <trkpt lat="62.631834078411" lon="17.968146847437">
        <ele>69.2</ele>
        <time>2017-12-11T18:11:24Z</time>
      </trkpt>
      <trkpt lat="62.631819242448" lon="17.96818431453">
        <ele>69.4</ele>
        <time>2017-12-11T18:11:25Z</time>
      </trkpt>
      <trkpt lat="62.631804909399" lon="17.968223206546">
        <ele>69.6</ele>
        <time>2017-12-11T18:11:26Z</time>
      </trkpt>
      <trkpt lat="62.631789319065" lon="17.968262433838">
        <ele>69.8</ele>
        <time>2017-12-11T18:11:27Z</time>
      </trkpt>
      <trkpt lat="62.631779428423" lon="17.968296129076">
        <ele>70</ele>
        <time>2017-12-11T18:11:28Z</time>
      </trkpt>
      <trkpt lat="62.631767023211" lon="17.968339714956">
        <ele>70</ele>
        <time>2017-12-11T18:11:29Z</time>
      </trkpt>
      <trkpt lat="62.63175118142" lon="17.968385061035">
        <ele>70.4</ele>
        <time>2017-12-11T18:11:30Z</time>
      </trkpt>
      <trkpt lat="62.631740117312" lon="17.968421857576">
        <ele>70.6</ele>
        <time>2017-12-11T18:11:31Z</time>
      </trkpt>
      <trkpt lat="62.631730561946" lon="17.968467119836">
        <ele>70.8</ele>
        <time>2017-12-11T18:11:32Z</time>
      </trkpt>
      <trkpt lat="62.631718072915" lon="17.968506598585">
        <ele>71</ele>
        <time>2017-12-11T18:11:33Z</time>
      </trkpt>
      <trkpt lat="62.631708601368" lon="17.96854557442">
        <ele>71.2</ele>
        <time>2017-12-11T18:11:34Z</time>
      </trkpt>
      <trkpt lat="62.631697704898" lon="17.968590752861">
        <ele>71.4</ele>
        <time>2017-12-11T18:11:35Z</time>
      </trkpt>
      <trkpt lat="62.631689658274" lon="17.968633165275">
        <ele>71.6</ele>
        <time>2017-12-11T18:11:36Z</time>
      </trkpt>
      <trkpt lat="62.631679516175" lon="17.968671889653">
        <ele>71.6</ele>
        <time>2017-12-11T18:11:37Z</time>
      </trkpt>
      <trkpt lat="62.631669709352" lon="17.968709943479">
        <ele>71.8</ele>
        <time>2017-12-11T18:11:38Z</time>
      </trkpt>
      <trkpt lat="62.63166484785" lon="17.96875763649">
        <ele>72.2</ele>
        <time>2017-12-11T18:11:39Z</time>
      </trkpt>
      <trkpt lat="62.63166149509" lon="17.968804826587">
        <ele>72.2</ele>
        <time>2017-12-11T18:11:40Z</time>
      </trkpt>
      <trkpt lat="62.631659651072" lon="17.968848496286">
        <ele>72.4</ele>
        <time>2017-12-11T18:11:41Z</time>
      </trkpt>
      <trkpt lat="62.631660824538" lon="17.968893171813">
        <ele>72.6</ele>
        <time>2017-12-11T18:11:42Z</time>
      </trkpt>
      <trkpt lat="62.631664428755" lon="17.968937260607">
        <ele>72.8</ele>
        <time>2017-12-11T18:11:43Z</time>
      </trkpt>
      <trkpt lat="62.631667194782" lon="17.968987887283">
        <ele>72.8</ele>
        <time>2017-12-11T18:11:44Z</time>
      </trkpt>
      <trkpt lat="62.631671888646" lon="17.969031473163">
        <ele>73</ele>
        <time>2017-12-11T18:11:45Z</time>
      </trkpt>
      <trkpt lat="62.631676833967" lon="17.969078327984">
        <ele>73.2</ele>
        <time>2017-12-11T18:11:46Z</time>
      </trkpt>
      <trkpt lat="62.631682366021" lon="17.969120991855">
        <ele>73.4</ele>
        <time>2017-12-11T18:11:47Z</time>
      </trkpt>
      <trkpt lat="62.63169083174" lon="17.969163823364">
        <ele>73.6</ele>
        <time>2017-12-11T18:11:48Z</time>
      </trkpt>
      <trkpt lat="62.631699800373" lon="17.969215623506">
        <ele>73.8</ele>
        <time>2017-12-11T18:11:49Z</time>
      </trkpt>
      <trkpt lat="62.631710193929" lon="17.969256778635">
        <ele>74</ele>
        <time>2017-12-11T18:11:50Z</time>
      </trkpt>
      <trkpt lat="62.631722096227" lon="17.96930078361">
        <ele>74</ele>
        <time>2017-12-11T18:11:51Z</time>
      </trkpt>
      <trkpt lat="62.631734249982" lon="17.969342944567">
        <ele>74.4</ele>
        <time>2017-12-11T18:11:52Z</time>
      </trkpt>
      <trkpt lat="62.631743721529" lon="17.969370018104">
        <ele>74.4</ele>
        <time>2017-12-11T18:11:53Z</time>
      </trkpt>
      <trkpt lat="62.63176207789" lon="17.969422991712">
        <ele>74.6</ele>
        <time>2017-12-11T18:11:54Z</time>
      </trkpt>
      <trkpt lat="62.631776578577" lon="17.969460794081">
        <ele>74.8</ele>
        <time>2017-12-11T18:11:55Z</time>
      </trkpt>
      <trkpt lat="62.631795856947" lon="17.969488705808">
        <ele>75.2</ele>
        <time>2017-12-11T18:11:56Z</time>
      </trkpt>
      <trkpt lat="62.631815805869" lon="17.969515527888">
        <ele>75.4</ele>
        <time>2017-12-11T18:11:57Z</time>
      </trkpt>
      <trkpt lat="62.631829468366" lon="17.969534806258">
        <ele>75.6</ele>
        <time>2017-12-11T18:11:58Z</time>
      </trkpt>
      <trkpt lat="62.631847070356" lon="17.969551653877">
        <ele>75.8</ele>
        <time>2017-12-11T18:11:59Z</time>
      </trkpt>
      <trkpt lat="62.631872132237" lon="17.969564897279">
        <ele>76</ele>
        <time>2017-12-11T18:12:00Z</time>
      </trkpt>
      <trkpt lat="62.631891745883" lon="17.969570848428">
        <ele>76.2</ele>
        <time>2017-12-11T18:12:01Z</time>
      </trkpt>
      <trkpt lat="62.63191295209" lon="17.969573530636">
        <ele>76.2</ele>
        <time>2017-12-11T18:12:02Z</time>
      </trkpt>
      <trkpt lat="62.631934074478" lon="17.969573614455">
        <ele>76.4</ele>
        <time>2017-12-11T18:12:03Z</time>
      </trkpt>
      <trkpt lat="62.631958465807" lon="17.969572440989">
        <ele>76.4</ele>
        <time>2017-12-11T18:12:04Z</time>
      </trkpt>
      <trkpt lat="62.631970703381" lon="17.969568669134">
        <ele>76.6</ele>
        <time>2017-12-11T18:12:05Z</time>
      </trkpt>
      <trkpt lat="62.632002303144" lon="17.969563639994">
        <ele>76.6</ele>
        <time>2017-12-11T18:12:06Z</time>
      </trkpt>
      <trkpt lat="62.632025521007" lon="17.969557521207">
        <ele>76.8</ele>
        <time>2017-12-11T18:12:07Z</time>
      </trkpt>
      <trkpt lat="62.632042787721" lon="17.969552743524">
        <ele>76.8</ele>
        <time>2017-12-11T18:12:08Z</time>
      </trkpt>
      <trkpt lat="62.632070028896" lon="17.969546624737">
        <ele>77</ele>
        <time>2017-12-11T18:12:09Z</time>
      </trkpt>
      <trkpt lat="62.632094168768" lon="17.969543439615">
        <ele>77</ele>
        <time>2017-12-11T18:12:10Z</time>
      </trkpt>
      <trkpt lat="62.632113866233" lon="17.969538410475">
        <ele>77</ele>
        <time>2017-12-11T18:12:11Z</time>
      </trkpt>
      <trkpt lat="62.632139095752" lon="17.969532040231">
        <ele>77.2</ele>
        <time>2017-12-11T18:12:12Z</time>
      </trkpt>
      <trkpt lat="62.632160301959" lon="17.969533884249">
        <ele>77</ele>
        <time>2017-12-11T18:12:13Z</time>
      </trkpt>
      <trkpt lat="62.632184022736" lon="17.969533968068">
        <ele>77</ele>
        <time>2017-12-11T18:12:14Z</time>
      </trkpt>
      <trkpt lat="62.632206067133" lon="17.969526843453">
        <ele>77.2</ele>
        <time>2017-12-11T18:12:15Z</time>
      </trkpt>
      <trkpt lat="62.632229201177" lon="17.969521646675">
        <ele>77</ele>
        <time>2017-12-11T18:12:16Z</time>
      </trkpt>
      <trkpt lat="62.632250407384" lon="17.969512761861">
        <ele>77</ele>
        <time>2017-12-11T18:12:17Z</time>
      </trkpt>
      <trkpt lat="62.63227505017" lon="17.969507481264">
        <ele>77.2</ele>
        <time>2017-12-11T18:12:18Z</time>
      </trkpt>
      <trkpt lat="62.63230354863" lon="17.969505050513">
        <ele>77.2</ele>
        <time>2017-12-11T18:12:19Z</time>
      </trkpt>
      <trkpt lat="62.632325760665" lon="17.96950194921">
        <ele>77</ele>
        <time>2017-12-11T18:12:20Z</time>
      </trkpt>
      <trkpt lat="62.63235048727" lon="17.969498847907">
        <ele>77</ele>
        <time>2017-12-11T18:12:21Z</time>
      </trkpt>
      <trkpt lat="62.632373788952" lon="17.96949524369">
        <ele>77</ele>
        <time>2017-12-11T18:12:22Z</time>
      </trkpt>
      <trkpt lat="62.63239155858" lon="17.96949775826">
        <ele>77</ele>
        <time>2017-12-11T18:12:23Z</time>
      </trkpt>
      <trkpt lat="62.632420811411" lon="17.969499686097">
        <ele>77</ele>
        <time>2017-12-11T18:12:24Z</time>
      </trkpt>
      <trkpt lat="62.632444867464" lon="17.969497506803">
        <ele>77</ele>
        <time>2017-12-11T18:12:25Z</time>
      </trkpt>
      <trkpt lat="62.632467498594" lon="17.969493734948">
        <ele>77</ele>
        <time>2017-12-11T18:12:26Z</time>
      </trkpt>
      <trkpt lat="62.632491554647" lon="17.969491555654">
        <ele>77</ele>
        <time>2017-12-11T18:12:27Z</time>
      </trkpt>
      <trkpt lat="62.632514604872" lon="17.969495998061">
        <ele>77.2</ele>
        <time>2017-12-11T18:12:28Z</time>
      </trkpt>
      <trkpt lat="62.632539415296" lon="17.969496752432">
        <ele>77.2</ele>
        <time>2017-12-11T18:12:29Z</time>
      </trkpt>
      <trkpt lat="62.632566907928" lon="17.969501027201">
        <ele>77.2</ele>
        <time>2017-12-11T18:12:30Z</time>
      </trkpt>
      <trkpt lat="62.632590041972" lon="17.969506559255">
        <ele>77.2</ele>
        <time>2017-12-11T18:12:31Z</time>
      </trkpt>
      <trkpt lat="62.632612924559" lon="17.969508151816">
        <ele>77.2</ele>
        <time>2017-12-11T18:12:32Z</time>
      </trkpt>
      <trkpt lat="62.632636812974" lon="17.969511085481">
        <ele>77.2</ele>
        <time>2017-12-11T18:12:33Z</time>
      </trkpt>
      <trkpt lat="62.632663551235" lon="17.969518461553">
        <ele>77.2</ele>
        <time>2017-12-11T18:12:34Z</time>
      </trkpt>
      <trkpt lat="62.632685092718" lon="17.96952374215">
        <ele>77.2</ele>
        <time>2017-12-11T18:12:35Z</time>
      </trkpt>
      <trkpt lat="62.632713088264" lon="17.969529274204">
        <ele>77.2</ele>
        <time>2017-12-11T18:12:36Z</time>
      </trkpt>
      <trkpt lat="62.632736222308" lon="17.969534806258">
        <ele>77.4</ele>
        <time>2017-12-11T18:12:37Z</time>
      </trkpt>
      <trkpt lat="62.632756003592" lon="17.969537488466">
        <ele>77.4</ele>
        <time>2017-12-11T18:12:38Z</time>
      </trkpt>
      <trkpt lat="62.632783747681" lon="17.969546708556">
        <ele>77.2</ele>
        <time>2017-12-11T18:12:39Z</time>
      </trkpt>
      <trkpt lat="62.63280646263" lon="17.969557521207">
        <ele>77.4</ele>
        <time>2017-12-11T18:12:40Z</time>
      </trkpt>
      <trkpt lat="62.632828171751" lon="17.96956229889">
        <ele>77.4</ele>
        <time>2017-12-11T18:12:41Z</time>
      </trkpt>
      <trkpt lat="62.632852982175" lon="17.969570596971">
        <ele>77.4</ele>
        <time>2017-12-11T18:12:42Z</time>
      </trkpt>
      <trkpt lat="62.632873853106" lon="17.969572524808">
        <ele>77.6</ele>
        <time>2017-12-11T18:12:43Z</time>
      </trkpt>
      <trkpt lat="62.632898244435" lon="17.969575374654">
        <ele>77.6</ele>
        <time>2017-12-11T18:12:44Z</time>
      </trkpt>
      <trkpt lat="62.632921127022" lon="17.969583505097">
        <ele>77.6</ele>
        <time>2017-12-11T18:12:45Z</time>
      </trkpt>
      <trkpt lat="62.632940992125" lon="17.969585013839">
        <ele>77.6</ele>
        <time>2017-12-11T18:12:46Z</time>
      </trkpt>
      <trkpt lat="62.632961276323" lon="17.969589288608">
        <ele>77.8</ele>
        <time>2017-12-11T18:12:47Z</time>
      </trkpt>
      <trkpt lat="62.632984242729" lon="17.969592641368">
        <ele>77.8</ele>
        <time>2017-12-11T18:12:48Z</time>
      </trkpt>
      <trkpt lat="62.633009891343" lon="17.969598005784">
        <ele>77.8</ele>
        <time>2017-12-11T18:12:49Z</time>
      </trkpt>
      <trkpt lat="62.633034198853" lon="17.96960001744">
        <ele>77.8</ele>
        <time>2017-12-11T18:12:50Z</time>
      </trkpt>
      <trkpt lat="62.633059093096" lon="17.969608147883">
        <ele>78</ele>
        <time>2017-12-11T18:12:51Z</time>
      </trkpt>
      <trkpt lat="62.633082478597" lon="17.969612506471">
        <ele>78</ele>
        <time>2017-12-11T18:12:52Z</time>
      </trkpt>
      <trkpt lat="62.633099577673" lon="17.969616948878">
        <ele>78</ele>
        <time>2017-12-11T18:12:53Z</time>
      </trkpt>
      <trkpt lat="62.633132350902" lon="17.969622900027">
        <ele>78</ele>
        <time>2017-12-11T18:12:54Z</time>
      </trkpt>
      <trkpt lat="62.633156658412" lon="17.969631114289">
        <ele>78.2</ele>
        <time>2017-12-11T18:12:55Z</time>
      </trkpt>
      <trkpt lat="62.633180882103" lon="17.969642262216">
        <ele>78.2</ele>
        <time>2017-12-11T18:12:56Z</time>
      </trkpt>
      <trkpt lat="62.633206698355" lon="17.969655170342">
        <ele>78.2</ele>
        <time>2017-12-11T18:12:57Z</time>
      </trkpt>
      <trkpt lat="62.633228742752" lon="17.969663300785">
        <ele>78.4</ele>
        <time>2017-12-11T18:12:58Z</time>
      </trkpt>
      <trkpt lat="62.633252714986" lon="17.969676628006">
        <ele>78.4</ele>
        <time>2017-12-11T18:12:59Z</time>
      </trkpt>
      <trkpt lat="62.633278195962" lon="17.969692972711">
        <ele>78.4</ele>
        <time>2017-12-11T18:13:00Z</time>
      </trkpt>
      <trkpt lat="62.633299569807" lon="17.969710742339">
        <ele>78.4</ele>
        <time>2017-12-11T18:13:01Z</time>
      </trkpt>
      <trkpt lat="62.633321446566" lon="17.969743515568">
        <ele>78.6</ele>
        <time>2017-12-11T18:13:02Z</time>
      </trkpt>
      <trkpt lat="62.633338545642" lon="17.969778887186">
        <ele>78.6</ele>
        <time>2017-12-11T18:13:03Z</time>
      </trkpt>
      <trkpt lat="62.633355225623" lon="17.96982297598">
        <ele>78.6</ele>
        <time>2017-12-11T18:13:04Z</time>
      </trkpt>
      <trkpt lat="62.633362434057" lon="17.969870417534">
        <ele>78.6</ele>
        <time>2017-12-11T18:13:05Z</time>
      </trkpt>
      <trkpt lat="62.633366289731" lon="17.969926743902">
        <ele>78.8</ele>
        <time>2017-12-11T18:13:06Z</time>
      </trkpt>
      <trkpt lat="62.633367379378" lon="17.969976951483">
        <ele>78.8</ele>
        <time>2017-12-11T18:13:07Z</time>
      </trkpt>
      <trkpt lat="62.633368552844" lon="17.970026320874">
        <ele>78.8</ele>
        <time>2017-12-11T18:13:08Z</time>
      </trkpt>
      <trkpt lat="62.633370732138" lon="17.970087173468">
        <ele>79</ele>
        <time>2017-12-11T18:13:09Z</time>
      </trkpt>
      <trkpt lat="62.633372324699" lon="17.970137967782">
        <ele>79</ele>
        <time>2017-12-11T18:13:10Z</time>
      </trkpt>
      <trkpt lat="62.633375426002" lon="17.970190187019">
        <ele>79.2</ele>
        <time>2017-12-11T18:13:11Z</time>
      </trkpt>
      <trkpt lat="62.633378862581" lon="17.970243579722">
        <ele>79.2</ele>
        <time>2017-12-11T18:13:12Z</time>
      </trkpt>
      <trkpt lat="62.633383388807" lon="17.970292530018">
        <ele>79.4</ele>
        <time>2017-12-11T18:13:13Z</time>
      </trkpt>
      <trkpt lat="62.633387831214" lon="17.970352963517">
        <ele>79.6</ele>
        <time>2017-12-11T18:13:14Z</time>
      </trkpt>
      <trkpt lat="62.633392525078" lon="17.970404763659">
        <ele>79.6</ele>
        <time>2017-12-11T18:13:15Z</time>
      </trkpt>
      <trkpt lat="62.633396799847" lon="17.970458910733">
        <ele>79.6</ele>
        <time>2017-12-11T18:13:16Z</time>
      </trkpt>
      <trkpt lat="62.633400068788" lon="17.970509202133">
        <ele>79.8</ele>
        <time>2017-12-11T18:13:17Z</time>
      </trkpt>
      <trkpt lat="62.633403924462" lon="17.970561589008">
        <ele>79.8</ele>
        <time>2017-12-11T18:13:18Z</time>
      </trkpt>
      <trkpt lat="62.633407109584" lon="17.970617915376">
        <ele>80</ele>
        <time>2017-12-11T18:13:19Z</time>
      </trkpt>
      <trkpt lat="62.63340912124" lon="17.970673571192">
        <ele>80.2</ele>
        <time>2017-12-11T18:13:20Z</time>
      </trkpt>
      <trkpt lat="62.633411971086" lon="17.970722856764">
        <ele>80.2</ele>
        <time>2017-12-11T18:13:21Z</time>
      </trkpt>
      <trkpt lat="62.633413228371" lon="17.970776500924">
        <ele>80.4</ele>
        <time>2017-12-11T18:13:22Z</time>
      </trkpt>
      <trkpt lat="62.633415072389" lon="17.970816566406">
        <ele>80.4</ele>
        <time>2017-12-11T18:13:23Z</time>
      </trkpt>
      <trkpt lat="62.633416916407" lon="17.97088412452">
        <ele>80.6</ele>
        <time>2017-12-11T18:13:24Z</time>
      </trkpt>
      <trkpt lat="62.633419514796" lon="17.97094195963">
        <ele>80.8</ele>
        <time>2017-12-11T18:13:25Z</time>
      </trkpt>
      <trkpt lat="62.633420520624" lon="17.970995268514">
        <ele>80.8</ele>
        <time>2017-12-11T18:13:26Z</time>
      </trkpt>
      <trkpt lat="62.633422783737" lon="17.971049583226">
        <ele>80.8</ele>
        <time>2017-12-11T18:13:27Z</time>
      </trkpt>
      <trkpt lat="62.633422364642" lon="17.971102556834">
        <ele>80.8</ele>
        <time>2017-12-11T18:13:28Z</time>
      </trkpt>
      <trkpt lat="62.633425298307" lon="17.971153099691">
        <ele>81</ele>
        <time>2017-12-11T18:13:29Z</time>
      </trkpt>
      <trkpt lat="62.633424879212" lon="17.971211102439">
        <ele>81</ele>
        <time>2017-12-11T18:13:30Z</time>
      </trkpt>
      <trkpt lat="62.633423454289" lon="17.971268183178">
        <ele>81</ele>
        <time>2017-12-11T18:13:31Z</time>
      </trkpt>
      <trkpt lat="62.633423957203" lon="17.971321324424">
        <ele>81.2</ele>
        <time>2017-12-11T18:13:32Z</time>
      </trkpt>
      <trkpt lat="62.633423202832" lon="17.971369855625">
        <ele>81.2</ele>
        <time>2017-12-11T18:13:33Z</time>
      </trkpt>
      <trkpt lat="62.633422113185" lon="17.971429031839">
        <ele>81.4</ele>
        <time>2017-12-11T18:13:34Z</time>
      </trkpt>
      <trkpt lat="62.633421442633" lon="17.971477311583">
        <ele>81.6</ele>
        <time>2017-12-11T18:13:35Z</time>
      </trkpt>
      <trkpt lat="62.63342001771" lon="17.971537242168">
        <ele>81.6</ele>
        <time>2017-12-11T18:13:36Z</time>
      </trkpt>
      <trkpt lat="62.633418006054" lon="17.97159407145">
        <ele>81.8</ele>
        <time>2017-12-11T18:13:37Z</time>
      </trkpt>
      <trkpt lat="62.633415910579" lon="17.971639249891">
        <ele>81.8</ele>
        <time>2017-12-11T18:13:38Z</time>
      </trkpt>
      <trkpt lat="62.633412054905" lon="17.971702784693">
        <ele>81.8</ele>
        <time>2017-12-11T18:13:39Z</time>
      </trkpt>
      <trkpt lat="62.633407947774" lon="17.971756261215">
        <ele>82</ele>
        <time>2017-12-11T18:13:40Z</time>
      </trkpt>
      <trkpt lat="62.633403924462" lon="17.971804038045">
        <ele>82</ele>
        <time>2017-12-11T18:13:41Z</time>
      </trkpt>
      <trkpt lat="62.633399984969" lon="17.971867740485">
        <ele>82.2</ele>
        <time>2017-12-11T18:13:42Z</time>
      </trkpt>
      <trkpt lat="62.633395542562" lon="17.971918534799">
        <ele>82.2</ele>
        <time>2017-12-11T18:13:43Z</time>
      </trkpt>
      <trkpt lat="62.633390764879" lon="17.971976537547">
        <ele>82.2</ele>
        <time>2017-12-11T18:13:44Z</time>
      </trkpt>
      <trkpt lat="62.633383724083" lon="17.972028505327">
        <ele>82.4</ele>
        <time>2017-12-11T18:13:45Z</time>
      </trkpt>
      <trkpt lat="62.63337643183" lon="17.972079132003">
        <ele>82.4</ele>
        <time>2017-12-11T18:13:46Z</time>
      </trkpt>
      <trkpt lat="62.633370648319" lon="17.97213218943">
        <ele>82.6</ele>
        <time>2017-12-11T18:13:47Z</time>
      </trkpt>
      <trkpt lat="62.633360841496" lon="17.972185163038">
        <ele>82.6</ele>
        <time>2017-12-11T18:13:48Z</time>
      </trkpt>
      <trkpt lat="62.633353884519" lon="17.972239393931">
        <ele>82.6</ele>
        <time>2017-12-11T18:13:49Z</time>
      </trkpt>
      <trkpt lat="62.633345502619" lon="17.972292199901">
        <ele>82.8</ele>
        <time>2017-12-11T18:13:50Z</time>
      </trkpt>
      <trkpt lat="62.633337958909" lon="17.972346682251">
        <ele>82.8</ele>
        <time>2017-12-11T18:13:51Z</time>
      </trkpt>
      <trkpt lat="62.633329325552" lon="17.972398147117">
        <ele>82.8</ele>
        <time>2017-12-11T18:13:52Z</time>
      </trkpt>
      <trkpt lat="62.633322452394" lon="17.972437039133">
        <ele>83</ele>
        <time>2017-12-11T18:13:53Z</time>
      </trkpt>
      <trkpt lat="62.633310801553" lon="17.972506608903">
        <ele>83</ele>
        <time>2017-12-11T18:13:54Z</time>
      </trkpt>
      <trkpt lat="62.633301916739" lon="17.972556145932">
        <ele>83.2</ele>
        <time>2017-12-11T18:13:55Z</time>
      </trkpt>
      <trkpt lat="62.633289930622" lon="17.972609706273">
        <ele>83.2</ele>
        <time>2017-12-11T18:13:56Z</time>
      </trkpt>
      <trkpt lat="62.633280542894" lon="17.972661841691">
        <ele>83.4</ele>
        <time>2017-12-11T18:13:57Z</time>
      </trkpt>
      <trkpt lat="62.633272244813" lon="17.972710959625">
        <ele>83.4</ele>
        <time>2017-12-11T18:13:58Z</time>
      </trkpt>
      <trkpt lat="62.633261013067" lon="17.972763681776">
        <ele>83.6</ele>
        <time>2017-12-11T18:13:59Z</time>
      </trkpt>
      <trkpt lat="62.633247937303" lon="17.972820427239">
        <ele>83.6</ele>
        <time>2017-12-11T18:14:00Z</time>
      </trkpt>
      <trkpt lat="62.633237962842" lon="17.972871053915">
        <ele>83.8</ele>
        <time>2017-12-11T18:14:01Z</time>
      </trkpt>
      <trkpt lat="62.633226312001" lon="17.972925536265">
        <ele>83.8</ele>
        <time>2017-12-11T18:14:02Z</time>
      </trkpt>
      <trkpt lat="62.633216588997" lon="17.97297373219">
        <ele>84</ele>
        <time>2017-12-11T18:14:03Z</time>
      </trkpt>
      <trkpt lat="62.633206782174" lon="17.973032740766">
        <ele>84</ele>
        <time>2017-12-11T18:14:04Z</time>
      </trkpt>
      <trkpt lat="62.633195466609" lon="17.973080098501">
        <ele>84</ele>
        <time>2017-12-11T18:14:05Z</time>
      </trkpt>
      <trkpt lat="62.633183396673" lon="17.97313550286">
        <ele>84.2</ele>
        <time>2017-12-11T18:14:06Z</time>
      </trkpt>
      <trkpt lat="62.633172500203" lon="17.973189901391">
        <ele>84.4</ele>
        <time>2017-12-11T18:14:07Z</time>
      </trkpt>
      <trkpt lat="62.633163196294" lon="17.973238013497">
        <ele>84.4</ele>
        <time>2017-12-11T18:14:08Z</time>
      </trkpt>
      <trkpt lat="62.633152048367" lon="17.973297944082">
        <ele>84.4</ele>
        <time>2017-12-11T18:14:09Z</time>
      </trkpt>
      <trkpt lat="62.633140648983" lon="17.973352761708">
        <ele>84.6</ele>
        <time>2017-12-11T18:14:10Z</time>
      </trkpt>
      <trkpt lat="62.633129752513" lon="17.973401292909">
        <ele>84.6</ele>
        <time>2017-12-11T18:14:11Z</time>
      </trkpt>
      <trkpt lat="62.633119275138" lon="17.973457619277">
        <ele>84.6</ele>
        <time>2017-12-11T18:14:12Z</time>
      </trkpt>
      <trkpt lat="62.633108378668" lon="17.973508413591">
        <ele>84.8</ele>
        <time>2017-12-11T18:14:13Z</time>
      </trkpt>
      <trkpt lat="62.633096224913" lon="17.973561471018">
        <ele>84.8</ele>
        <time>2017-12-11T18:14:14Z</time>
      </trkpt>
      <trkpt lat="62.633085076986" lon="17.973612013875">
        <ele>84.8</ele>
        <time>2017-12-11T18:14:15Z</time>
      </trkpt>
      <trkpt lat="62.633072085041" lon="17.973660964171">
        <ele>85</ele>
        <time>2017-12-11T18:14:16Z</time>
      </trkpt>
      <trkpt lat="62.633063367865" lon="17.973706142612">
        <ele>85</ele>
        <time>2017-12-11T18:14:17Z</time>
      </trkpt>
      <trkpt lat="62.633052806671" lon="17.973759367677">
        <ele>85</ele>
        <time>2017-12-11T18:14:18Z</time>
      </trkpt>
      <trkpt lat="62.633039144174" lon="17.973812173647">
        <ele>85.2</ele>
        <time>2017-12-11T18:14:19Z</time>
      </trkpt>
      <trkpt lat="62.633029253532" lon="17.973859112287">
        <ele>85.4</ele>
        <time>2017-12-11T18:14:20Z</time>
      </trkpt>
      <trkpt lat="62.633017937967" lon="17.973910493334">
        <ele>85.4</ele>
        <time>2017-12-11T18:14:21Z</time>
      </trkpt>
      <trkpt lat="62.633007712049" lon="17.973961874381">
        <ele>85.6</ele>
        <time>2017-12-11T18:14:22Z</time>
      </trkpt>
      <trkpt lat="62.633000671253" lon="17.97400051494">
        <ele>85.6</ele>
        <time>2017-12-11T18:14:23Z</time>
      </trkpt>
      <trkpt lat="62.632986505842" lon="17.974066312855">
        <ele>85.6</ele>
        <time>2017-12-11T18:14:24Z</time>
      </trkpt>
      <trkpt lat="62.632975693191" lon="17.97411618516">
        <ele>85.8</ele>
        <time>2017-12-11T18:14:25Z</time>
      </trkpt>
      <trkpt lat="62.632965048178" lon="17.974167063293">
        <ele>85.8</ele>
        <time>2017-12-11T18:14:26Z</time>
      </trkpt>
      <trkpt lat="62.632953397337" lon="17.97422012072">
        <ele>85.8</ele>
        <time>2017-12-11T18:14:27Z</time>
      </trkpt>
      <trkpt lat="62.632942752324" lon="17.974266137351">
        <ele>86</ele>
        <time>2017-12-11T18:14:28Z</time>
      </trkpt>
      <trkpt lat="62.632931436759" lon="17.974319613873">
        <ele>86</ele>
        <time>2017-12-11T18:14:29Z</time>
      </trkpt>
      <trkpt lat="62.63291710371" lon="17.974376526974">
        <ele>86</ele>
        <time>2017-12-11T18:14:30Z</time>
      </trkpt>
      <trkpt lat="62.63290369267" lon="17.974422627424">
        <ele>86</ele>
        <time>2017-12-11T18:14:31Z</time>
      </trkpt>
      <trkpt lat="62.632886258318" lon="17.974468141141">
        <ele>86</ele>
        <time>2017-12-11T18:14:32Z</time>
      </trkpt>
      <trkpt lat="62.632866560853" lon="17.974504183311">
        <ele>86.2</ele>
        <time>2017-12-11T18:14:33Z</time>
      </trkpt>
      <trkpt lat="62.632843175352" lon="17.974537710911">
        <ele>86.2</ele>
        <time>2017-12-11T18:14:34Z</time>
      </trkpt>
      <trkpt lat="62.632822639697" lon="17.974567634294">
        <ele>86.2</ele>
        <time>2017-12-11T18:14:35Z</time>
      </trkpt>
      <trkpt lat="62.63279388978" lon="17.974558665661">
        <ele>86.2</ele>
        <time>2017-12-11T18:14:36Z</time>
      </trkpt>
      <trkpt lat="62.632764217854" lon="17.974556151091">
        <ele>86.2</ele>
        <time>2017-12-11T18:14:37Z</time>
      </trkpt>
      <trkpt lat="62.632741838181" lon="17.974548272105">
        <ele>86.2</ele>
        <time>2017-12-11T18:14:38Z</time>
      </trkpt>
      <trkpt lat="62.632713926454" lon="17.97452606007">
        <ele>86.2</ele>
        <time>2017-12-11T18:14:39Z</time>
      </trkpt>
      <trkpt lat="62.632691043867" lon="17.974505608234">
        <ele>86.2</ele>
        <time>2017-12-11T18:14:40Z</time>
      </trkpt>
      <trkpt lat="62.632669753841" lon="17.97448582695">
        <ele>86.2</ele>
        <time>2017-12-11T18:14:41Z</time>
      </trkpt>
      <trkpt lat="62.632640836286" lon="17.974467638227">
        <ele>86.2</ele>
        <time>2017-12-11T18:14:42Z</time>
      </trkpt>
      <trkpt lat="62.632614014206" lon="17.974455568291">
        <ele>86.2</ele>
        <time>2017-12-11T18:14:43Z</time>
      </trkpt>
      <trkpt lat="62.632593227094" lon="17.974428578573">
        <ele>86.4</ele>
        <time>2017-12-11T18:14:44Z</time>
      </trkpt>
      <trkpt lat="62.632572104706" lon="17.974396727353">
        <ele>86.4</ele>
        <time>2017-12-11T18:14:45Z</time>
      </trkpt>
      <trkpt lat="62.632551149956" lon="17.974376946069">
        <ele>86.4</ele>
        <time>2017-12-11T18:14:46Z</time>
      </trkpt>
      <trkpt lat="62.632527512998" lon="17.974371078739">
        <ele>86.4</ele>
        <time>2017-12-11T18:14:47Z</time>
      </trkpt>
      <trkpt lat="62.632499852728" lon="17.974347357962">
        <ele>86.4</ele>
        <time>2017-12-11T18:14:48Z</time>
      </trkpt>
      <trkpt lat="62.632474287933" lon="17.974321290253">
        <ele>86.4</ele>
        <time>2017-12-11T18:14:49Z</time>
      </trkpt>
      <trkpt lat="62.6324485555" lon="17.974302011883">
        <ele>86.2</ele>
        <time>2017-12-11T18:14:50Z</time>
      </trkpt>
      <trkpt lat="62.632427516931" lon="17.974275692717">
        <ele>86.2</ele>
        <time>2017-12-11T18:14:51Z</time>
      </trkpt>
      <trkpt lat="62.632406143086" lon="17.974252893949">
        <ele>86.4</ele>
        <time>2017-12-11T18:14:52Z</time>
      </trkpt>
      <trkpt lat="62.6323898822" lon="17.974238979995">
        <ele>86.4</ele>
        <time>2017-12-11T18:14:53Z</time>
      </trkpt>
      <trkpt lat="62.632360042636" lon="17.974212241734">
        <ele>86.4</ele>
        <time>2017-12-11T18:14:54Z</time>
      </trkpt>
      <trkpt lat="62.632333807289" lon="17.974191957536">
        <ele>86.4</ele>
        <time>2017-12-11T18:14:55Z</time>
      </trkpt>
      <trkpt lat="62.632311008521" lon="17.974173433537">
        <ele>86.6</ele>
        <time>2017-12-11T18:14:56Z</time>
      </trkpt>
      <trkpt lat="62.632289047943" lon="17.974153316977">
        <ele>86.4</ele>
        <time>2017-12-11T18:14:57Z</time>
      </trkpt>
      <trkpt lat="62.632267003546" lon="17.974127752182">
        <ele>86.4</ele>
        <time>2017-12-11T18:14:58Z</time>
      </trkpt>
      <trkpt lat="62.632245126787" lon="17.97410109774">
        <ele>86.4</ele>
        <time>2017-12-11T18:14:59Z</time>
      </trkpt>
      <trkpt lat="62.632219561992" lon="17.974073186013">
        <ele>86.4</ele>
        <time>2017-12-11T18:15:00Z</time>
      </trkpt>
      <trkpt lat="62.63219626031" lon="17.974047621218">
        <ele>86.4</ele>
        <time>2017-12-11T18:15:01Z</time>
      </trkpt>
      <trkpt lat="62.632171785162" lon="17.974022475518">
        <ele>86.4</ele>
        <time>2017-12-11T18:15:02Z</time>
      </trkpt>
      <trkpt lat="62.632150578955" lon="17.973996994542">
        <ele>86.4</ele>
        <time>2017-12-11T18:15:03Z</time>
      </trkpt>
      <trkpt lat="62.632126858178" lon="17.973965059503">
        <ele>86.4</ele>
        <time>2017-12-11T18:15:04Z</time>
      </trkpt>
      <trkpt lat="62.632107160713" lon="17.973935052301">
        <ele>86.2</ele>
        <time>2017-12-11T18:15:05Z</time>
      </trkpt>
      <trkpt lat="62.632083439936" lon="17.973899596864">
        <ele>86.2</ele>
        <time>2017-12-11T18:15:06Z</time>
      </trkpt>
      <trkpt lat="62.63205795896" lon="17.973865314893">
        <ele>86.2</ele>
        <time>2017-12-11T18:15:07Z</time>
      </trkpt>
      <trkpt lat="62.632037674762" lon="17.973843857229">
        <ele>86.2</ele>
        <time>2017-12-11T18:15:08Z</time>
      </trkpt>
      <trkpt lat="62.632008170474" lon="17.973816532235">
        <ele>86.2</ele>
        <time>2017-12-11T18:15:09Z</time>
      </trkpt>
      <trkpt lat="62.63198503643" lon="17.973787195585">
        <ele>86.2</ele>
        <time>2017-12-11T18:15:10Z</time>
      </trkpt>
      <trkpt lat="62.631962572938" lon="17.973766240835">
        <ele>86.2</ele>
        <time>2017-12-11T18:15:11Z</time>
      </trkpt>
      <trkpt lat="62.631936086134" lon="17.973739921669">
        <ele>86.2</ele>
        <time>2017-12-11T18:15:12Z</time>
      </trkpt>
      <trkpt lat="62.631915215203" lon="17.973710920295">
        <ele>86.2</ele>
        <time>2017-12-11T18:15:13Z</time>
      </trkpt>
      <trkpt lat="62.631893003168" lon="17.973680158722">
        <ele>86.2</ele>
        <time>2017-12-11T18:15:14Z</time>
      </trkpt>
      <trkpt lat="62.631871294047" lon="17.973649229511">
        <ele>86.2</ele>
        <time>2017-12-11T18:15:15Z</time>
      </trkpt>
      <trkpt lat="62.631847908546" lon="17.973621401603">
        <ele>86.2</ele>
        <time>2017-12-11T18:15:16Z</time>
      </trkpt>
      <trkpt lat="62.631826450882" lon="17.973599357206">
        <ele>86</ele>
        <time>2017-12-11T18:15:17Z</time>
      </trkpt>
      <trkpt lat="62.631803819752" lon="17.973575720248">
        <ele>86</ele>
        <time>2017-12-11T18:15:18Z</time>
      </trkpt>
      <trkpt lat="62.631779176966" lon="17.973544623399">
        <ele>86</ele>
        <time>2017-12-11T18:15:19Z</time>
      </trkpt>
      <trkpt lat="62.631757384026" lon="17.973515622025">
        <ele>86</ele>
        <time>2017-12-11T18:15:20Z</time>
      </trkpt>
      <trkpt lat="62.631735507267" lon="17.973491146877">
        <ele>86</ele>
        <time>2017-12-11T18:15:21Z</time>
      </trkpt>
      <trkpt lat="62.631714468698" lon="17.973464157159">
        <ele>86</ele>
        <time>2017-12-11T18:15:22Z</time>
      </trkpt>
      <trkpt lat="62.631698962183" lon="17.973439598192">
        <ele>86</ele>
        <time>2017-12-11T18:15:23Z</time>
      </trkpt>
      <trkpt lat="62.631675828139" lon="17.9734003709">
        <ele>85.8</ele>
        <time>2017-12-11T18:15:24Z</time>
      </trkpt>
      <trkpt lat="62.631655041027" lon="17.973364412549">
        <ele>85.8</ele>
        <time>2017-12-11T18:15:25Z</time>
      </trkpt>
      <trkpt lat="62.631634756829" lon="17.973330884949">
        <ele>85.8</ele>
        <time>2017-12-11T18:15:26Z</time>
      </trkpt>
      <trkpt lat="62.631615813735" lon="17.973301129204">
        <ele>85.8</ele>
        <time>2017-12-11T18:15:27Z</time>
      </trkpt>
      <trkpt lat="62.63159695446" lon="17.973269948536">
        <ele>85.8</ele>
        <time>2017-12-11T18:15:28Z</time>
      </trkpt>
      <trkpt lat="62.631577005538" lon="17.973234241642">
        <ele>85.8</ele>
        <time>2017-12-11T18:15:29Z</time>
      </trkpt>
      <trkpt lat="62.631561331385" lon="17.973197109825">
        <ele>85.8</ele>
        <time>2017-12-11T18:15:30Z</time>
      </trkpt>
      <trkpt lat="62.631544483766" lon="17.973163330768">
        <ele>85.6</ele>
        <time>2017-12-11T18:15:31Z</time>
      </trkpt>
      <trkpt lat="62.631527217052" lon="17.97312460639">
        <ele>85.6</ele>
        <time>2017-12-11T18:15:32Z</time>
      </trkpt>
      <trkpt lat="62.63151229727" lon="17.973089150953">
        <ele>85.6</ele>
        <time>2017-12-11T18:15:33Z</time>
      </trkpt>
      <trkpt lat="62.631497126031" lon="17.973046487082">
        <ele>85.6</ele>
        <time>2017-12-11T18:15:34Z</time>
      </trkpt>
      <trkpt lat="62.631482373887" lon="17.973006840695">
        <ele>85.4</ele>
        <time>2017-12-11T18:15:35Z</time>
      </trkpt>
      <trkpt lat="62.631464185164" lon="17.972966691394">
        <ele>85.4</ele>
        <time>2017-12-11T18:15:36Z</time>
      </trkpt>
      <trkpt lat="62.631449852115" lon="17.972927883197">
        <ele>85</ele>
        <time>2017-12-11T18:15:37Z</time>
      </trkpt>
      <trkpt lat="62.631437865998" lon="17.97289242776">
        <ele>84.8</ele>
        <time>2017-12-11T18:15:38Z</time>
      </trkpt>
      <trkpt lat="62.631419593456" lon="17.972841214351">
        <ele>84.6</ele>
        <time>2017-12-11T18:15:39Z</time>
      </trkpt>
      <trkpt lat="62.631405092769" lon="17.972800645955">
        <ele>84.6</ele>
        <time>2017-12-11T18:15:40Z</time>
      </trkpt>
      <trkpt lat="62.631390005349" lon="17.972761753939">
        <ele>84.4</ele>
        <time>2017-12-11T18:15:41Z</time>
      </trkpt>
      <trkpt lat="62.631372990092" lon="17.9727130551">
        <ele>84.2</ele>
        <time>2017-12-11T18:15:42Z</time>
      </trkpt>
      <trkpt lat="62.6313589085" lon="17.972673492532">
        <ele>84</ele>
        <time>2017-12-11T18:15:43Z</time>
      </trkpt>
      <trkpt lat="62.631341557967" lon="17.972627811177">
        <ele>83.8</ele>
        <time>2017-12-11T18:15:44Z</time>
      </trkpt>
      <trkpt lat="62.631322363416" lon="17.972580201985">
        <ele>83.8</ele>
        <time>2017-12-11T18:15:45Z</time>
      </trkpt>
      <trkpt lat="62.631306353987" lon="17.972537370476">
        <ele>83.6</ele>
        <time>2017-12-11T18:15:46Z</time>
      </trkpt>
      <trkpt lat="62.631294116413" lon="17.972500071021">
        <ele>83.4</ele>
        <time>2017-12-11T18:15:47Z</time>
      </trkpt>
      <trkpt lat="62.631277855527" lon="17.972449360526">
        <ele>83.4</ele>
        <time>2017-12-11T18:15:48Z</time>
      </trkpt>
      <trkpt lat="62.631259750623" lon="17.972408959768">
        <ele>83.2</ele>
        <time>2017-12-11T18:15:49Z</time>
      </trkpt>
      <trkpt lat="62.631242819185" lon="17.972374510159">
        <ele>83</ele>
        <time>2017-12-11T18:15:50Z</time>
      </trkpt>
      <trkpt lat="62.631230581611" lon="17.972328074433">
        <ele>83</ele>
        <time>2017-12-11T18:15:51Z</time>
      </trkpt>
      <trkpt lat="62.631215410372" lon="17.972283566544">
        <ele>82.8</ele>
        <time>2017-12-11T18:15:52Z</time>
      </trkpt>
      <trkpt lat="62.631208453395" lon="17.972248781659">
        <ele>82.6</ele>
        <time>2017-12-11T18:15:53Z</time>
      </trkpt>
      <trkpt lat="62.63119462326" lon="17.972184492486">
        <ele>82.6</ele>
        <time>2017-12-11T18:15:54Z</time>
      </trkpt>
      <trkpt lat="62.63118205041" lon="17.972133949629">
        <ele>82.6</ele>
        <time>2017-12-11T18:15:55Z</time>
      </trkpt>
      <trkpt lat="62.631165621886" lon="17.97209111812">
        <ele>82.4</ele>
        <time>2017-12-11T18:15:56Z</time>
      </trkpt>
      <trkpt lat="62.631152629941" lon="17.972041832548">
        <ele>82.2</ele>
        <time>2017-12-11T18:15:57Z</time>
      </trkpt>
      <trkpt lat="62.631144918593" lon="17.971996905564">
        <ele>82.2</ele>
        <time>2017-12-11T18:15:58Z</time>
      </trkpt>
      <trkpt lat="62.631134105942" lon="17.971950972752">
        <ele>82</ele>
        <time>2017-12-11T18:15:59Z</time>
      </trkpt>
      <trkpt lat="62.631123544748" lon="17.971892802366">
        <ele>81.8</ele>
        <time>2017-12-11T18:16:00Z</time>
      </trkpt>
      <trkpt lat="62.631113402649" lon="17.971842427147">
        <ele>81.8</ele>
        <time>2017-12-11T18:16:01Z</time>
      </trkpt>
      <trkpt lat="62.631105188387" lon="17.971793141575">
        <ele>81.6</ele>
        <time>2017-12-11T18:16:02Z</time>
      </trkpt>
      <trkpt lat="62.631095213926" lon="17.971743604546">
        <ele>81.6</ele>
        <time>2017-12-11T18:16:03Z</time>
      </trkpt>
      <trkpt lat="62.631080294144" lon="17.97168627235">
        <ele>81.4</ele>
        <time>2017-12-11T18:16:04Z</time>
      </trkpt>
      <trkpt lat="62.63106889476" lon="17.971641261547">
        <ele>81.4</ele>
        <time>2017-12-11T18:16:05Z</time>
      </trkpt>
      <trkpt lat="62.63105464553" lon="17.971579906039">
        <ele>81.2</ele>
        <time>2017-12-11T18:16:06Z</time>
      </trkpt>
      <trkpt lat="62.631041150671" lon="17.971524669318">
        <ele>81.2</ele>
        <time>2017-12-11T18:16:07Z</time>
      </trkpt>
      <trkpt lat="62.631032684952" lon="17.971481502533">
        <ele>81</ele>
        <time>2017-12-11T18:16:08Z</time>
      </trkpt>
      <trkpt lat="62.631020531197" lon="17.971423415966">
        <ele>80.8</ele>
        <time>2017-12-11T18:16:09Z</time>
      </trkpt>
      <trkpt lat="62.631008964175" lon="17.971369687987">
        <ele>80.8</ele>
        <time>2017-12-11T18:16:10Z</time>
      </trkpt>
      <trkpt lat="62.630999827904" lon="17.971322330252">
        <ele>80.8</ele>
        <time>2017-12-11T18:16:11Z</time>
      </trkpt>
      <trkpt lat="62.630991948918" lon="17.971264411323">
        <ele>80.6</ele>
        <time>2017-12-11T18:16:12Z</time>
      </trkpt>
      <trkpt lat="62.630986081588" lon="17.971210096611">
        <ele>80.6</ele>
        <time>2017-12-11T18:16:13Z</time>
      </trkpt>
      <trkpt lat="62.630981387724" lon="17.971156871546">
        <ele>80.4</ele>
        <time>2017-12-11T18:16:14Z</time>
      </trkpt>
      <trkpt lat="62.630974263109" lon="17.971101131911">
        <ele>80.4</ele>
        <time>2017-12-11T18:16:15Z</time>
      </trkpt>
      <trkpt lat="62.630966719399" lon="17.971040530774">
        <ele>80.4</ele>
        <time>2017-12-11T18:16:16Z</time>
      </trkpt>
      <trkpt lat="62.630960349155" lon="17.970990993745">
        <ele>80.2</ele>
        <time>2017-12-11T18:16:17Z</time>
      </trkpt>
      <trkpt lat="62.630955571472" lon="17.970934583558">
        <ele>80.2</ele>
        <time>2017-12-11T18:16:18Z</time>
      </trkpt>
      <trkpt lat="62.630949368866" lon="17.970872808955">
        <ele>80</ele>
        <time>2017-12-11T18:16:19Z</time>
      </trkpt>
      <trkpt lat="62.630941238423" lon="17.970816314949">
        <ele>80</ele>
        <time>2017-12-11T18:16:20Z</time>
      </trkpt>
      <trkpt lat="62.630930258134" lon="17.970766107368">
        <ele>79.8</ele>
        <time>2017-12-11T18:16:21Z</time>
      </trkpt>
      <trkpt lat="62.630923636433" lon="17.97070726643">
        <ele>79.8</ele>
        <time>2017-12-11T18:16:22Z</time>
      </trkpt>
      <trkpt lat="62.630918272017" lon="17.97066535693">
        <ele>79.6</ele>
        <time>2017-12-11T18:16:23Z</time>
      </trkpt>
      <trkpt lat="62.63090796228" lon="17.970601822128">
        <ele>79.6</ele>
        <time>2017-12-11T18:16:24Z</time>
      </trkpt>
      <trkpt lat="62.63089874219" lon="17.970544573751">
        <ele>79.4</ele>
        <time>2017-12-11T18:16:25Z</time>
      </trkpt>
      <trkpt lat="62.630890695566" lon="17.970489504668">
        <ele>79.4</ele>
        <time>2017-12-11T18:16:26Z</time>
      </trkpt>
      <trkpt lat="62.630883403313" lon="17.970435273775">
        <ele>79.2</ele>
        <time>2017-12-11T18:16:27Z</time>
      </trkpt>
      <trkpt lat="62.630880134372" lon="17.970374505">
        <ele>79.2</ele>
        <time>2017-12-11T18:16:28Z</time>
      </trkpt>
      <trkpt lat="62.630872423024" lon="17.970321363754">
        <ele>79</ele>
        <time>2017-12-11T18:16:29Z</time>
      </trkpt>
      <trkpt lat="62.630857587061" lon="17.970277526417">
        <ele>79</ele>
        <time>2017-12-11T18:16:30Z</time>
      </trkpt>
      <trkpt lat="62.630842248184" lon="17.970247686853">
        <ele>78.8</ele>
        <time>2017-12-11T18:16:31Z</time>
      </trkpt>
      <trkpt lat="62.630822383081" lon="17.970225558637">
        <ele>78.8</ele>
        <time>2017-12-11T18:16:32Z</time>
      </trkpt>
      <trkpt lat="62.630801679788" lon="17.970220110402">
        <ele>78.6</ele>
        <time>2017-12-11T18:16:33Z</time>
      </trkpt>
      <trkpt lat="62.630780641219" lon="17.970223379343">
        <ele>78.6</ele>
        <time>2017-12-11T18:16:34Z</time>
      </trkpt>
      <trkpt lat="62.630762284858" lon="17.970228492302">
        <ele>78.6</ele>
        <time>2017-12-11T18:16:35Z</time>
      </trkpt>
      <trkpt lat="62.630739150814" lon="17.970239975505">
        <ele>78.4</ele>
        <time>2017-12-11T18:16:36Z</time>
      </trkpt>
      <trkpt lat="62.630719620987" lon="17.970250955794">
        <ele>78.4</ele>
        <time>2017-12-11T18:16:37Z</time>
      </trkpt>
      <trkpt lat="62.630702354273" lon="17.970254979106">
        <ele>78.4</ele>
        <time>2017-12-11T18:16:38Z</time>
      </trkpt>
      <trkpt lat="62.630680142238" lon="17.970257745133">
        <ele>78.4</ele>
        <time>2017-12-11T18:16:39Z</time>
      </trkpt>
      <trkpt lat="62.630666815017" lon="17.970259924427">
        <ele>78.4</ele>
        <time>2017-12-11T18:16:40Z</time>
      </trkpt>
      <trkpt lat="62.630653068701" lon="17.970265624119">
        <ele>78.4</ele>
        <time>2017-12-11T18:16:41Z</time>
      </trkpt>
      <trkpt lat="62.630631946313" lon="17.970269228336">
        <ele>78.6</ele>
        <time>2017-12-11T18:16:42Z</time>
      </trkpt>
      <trkpt lat="62.630614847237" lon="17.970272162001">
        <ele>78.8</ele>
        <time>2017-12-11T18:16:43Z</time>
      </trkpt>
      <trkpt lat="62.630597664342" lon="17.970284399575">
        <ele>78.8</ele>
        <time>2017-12-11T18:16:44Z</time>
      </trkpt>
      <trkpt lat="62.630575871402" lon="17.970289344896">
        <ele>79</ele>
        <time>2017-12-11T18:16:45Z</time>
      </trkpt>
      <trkpt lat="62.630554497557" lon="17.970277526417">
        <ele>79</ele>
        <time>2017-12-11T18:16:46Z</time>
      </trkpt>
      <trkpt lat="62.630537398481" lon="17.970251458708">
        <ele>79</ele>
        <time>2017-12-11T18:16:47Z</time>
      </trkpt>
      <trkpt lat="62.630522813975" lon="17.970210722674">
        <ele>79</ele>
        <time>2017-12-11T18:16:48Z</time>
      </trkpt>
      <trkpt lat="62.630512839514" lon="17.970155402134">
        <ele>79.2</ele>
        <time>2017-12-11T18:16:49Z</time>
      </trkpt>
      <trkpt lat="62.630503703243" lon="17.970107373847">
        <ele>79.2</ele>
        <time>2017-12-11T18:16:50Z</time>
      </trkpt>
      <trkpt lat="62.630500099026" lon="17.970062363044">
        <ele>79.2</ele>
        <time>2017-12-11T18:16:51Z</time>
      </trkpt>
      <trkpt lat="62.630492471497" lon="17.970027242883">
        <ele>79.4</ele>
        <time>2017-12-11T18:16:52Z</time>
      </trkpt>
      <trkpt lat="62.630490040746" lon="17.970002935373">
        <ele>79.4</ele>
        <time>2017-12-11T18:16:53Z</time>
      </trkpt>
      <trkpt lat="62.630484843968" lon="17.969970581239">
        <ele>79.2</ele>
        <time>2017-12-11T18:16:54Z</time>
      </trkpt>
      <trkpt lat="62.630481575027" lon="17.969960103864">
        <ele>79.2</ele>
        <time>2017-12-11T18:16:55Z</time>
      </trkpt>
      <trkpt lat="62.630479479552" lon="17.969963037529">
        <ele>79.2</ele>
        <time>2017-12-11T18:16:56Z</time>
      </trkpt>
      <trkpt lat="62.630479814828" lon="17.969970916515">
        <ele>79</ele>
        <time>2017-12-11T18:16:57Z</time>
      </trkpt>
      <trkpt lat="62.630478473724" lon="17.969958930398">
        <ele>78.8</ele>
        <time>2017-12-11T18:16:58Z</time>
      </trkpt>
      <trkpt lat="62.630590372089" lon="17.970282471738">
        <ele>79</ele>
        <time>2017-12-11T18:17:37Z</time>
      </trkpt>
      <trkpt lat="62.63060956664" lon="17.970285908317">
        <ele>79.2</ele>
        <time>2017-12-11T18:17:38Z</time>
      </trkpt>
      <trkpt lat="62.630631946313" lon="17.970281130634">
        <ele>79.2</ele>
        <time>2017-12-11T18:17:39Z</time>
      </trkpt>
      <trkpt lat="62.630656253823" lon="17.970268473965">
        <ele>79.4</ele>
        <time>2017-12-11T18:17:40Z</time>
      </trkpt>
      <trkpt lat="62.630676035107" lon="17.97026302573">
        <ele>79.4</ele>
        <time>2017-12-11T18:17:41Z</time>
      </trkpt>
      <trkpt lat="62.630696989857" lon="17.970256068753">
        <ele>79.2</ele>
        <time>2017-12-11T18:17:42Z</time>
      </trkpt>
      <trkpt lat="62.630714927123" lon="17.970247770672">
        <ele>79</ele>
        <time>2017-12-11T18:17:43Z</time>
      </trkpt>
      <trkpt lat="62.630737558253" lon="17.970236371288">
        <ele>79</ele>
        <time>2017-12-11T18:17:44Z</time>
      </trkpt>
      <trkpt lat="62.630755914614" lon="17.970222205877">
        <ele>79</ele>
        <time>2017-12-11T18:17:45Z</time>
      </trkpt>
      <trkpt lat="62.630775947355" lon="17.970210135941">
        <ele>79</ele>
        <time>2017-12-11T18:17:46Z</time>
      </trkpt>
      <trkpt lat="62.630793800802" lon="17.970200832032">
        <ele>79</ele>
        <time>2017-12-11T18:17:47Z</time>
      </trkpt>
      <trkpt lat="62.630810480783" lon="17.970196221987">
        <ele>78.8</ele>
        <time>2017-12-11T18:17:48Z</time>
      </trkpt>
      <trkpt lat="62.630824478556" lon="17.970190019381">
        <ele>78.6</ele>
        <time>2017-12-11T18:17:49Z</time>
      </trkpt>
      <trkpt lat="62.630837721958" lon="17.970184571146">
        <ele>78.6</ele>
        <time>2017-12-11T18:17:50Z</time>
      </trkpt>
      <trkpt lat="62.630850210989" lon="17.970178703816">
        <ele>78.4</ele>
        <time>2017-12-11T18:17:51Z</time>
      </trkpt>
      <trkpt lat="62.630861442735" lon="17.970170321916">
        <ele>78.2</ele>
        <time>2017-12-11T18:17:52Z</time>
      </trkpt>
      <trkpt lat="62.630872003929" lon="17.970161688559">
        <ele>78.4</ele>
        <time>2017-12-11T18:17:53Z</time>
      </trkpt>
      <trkpt lat="62.630883738589" lon="17.970154312487">
        <ele>78.4</ele>
        <time>2017-12-11T18:17:54Z</time>
      </trkpt>
      <trkpt lat="62.630891533756" lon="17.97015489922">
        <ele>78.4</ele>
        <time>2017-12-11T18:17:55Z</time>
      </trkpt>
      <trkpt lat="62.630897820181" lon="17.970154731582">
        <ele>78.4</ele>
        <time>2017-12-11T18:17:56Z</time>
      </trkpt>
      <trkpt lat="62.630898239276" lon="17.970146684958">
        <ele>78.4</ele>
        <time>2017-12-11T18:17:57Z</time>
      </trkpt>
      <trkpt lat="62.630896311439" lon="17.970164370767">
        <ele>78.4</ele>
        <time>2017-12-11T18:17:58Z</time>
      </trkpt>
      <trkpt lat="62.631174841976" lon="17.969982315899">
        <ele>77.8</ele>
        <time>2017-12-11T18:18:52Z</time>
      </trkpt>
      <trkpt lat="62.631201831694" lon="17.969961444968">
        <ele>77.8</ele>
        <time>2017-12-11T18:18:53Z</time>
      </trkpt>
      <trkpt lat="62.631238292959" lon="17.969939232933">
        <ele>77.8</ele>
        <time>2017-12-11T18:18:54Z</time>
      </trkpt>
      <trkpt lat="62.631268048704" lon="17.969924564608">
        <ele>77.8</ele>
        <time>2017-12-11T18:18:55Z</time>
      </trkpt>
      <trkpt lat="62.631296379526" lon="17.969907130256">
        <ele>77.8</ele>
        <time>2017-12-11T18:18:56Z</time>
      </trkpt>
      <trkpt lat="62.631330326221" lon="17.969890198818">
        <ele>77.8</ele>
        <time>2017-12-11T18:18:57Z</time>
      </trkpt>
      <trkpt lat="62.631357651215" lon="17.969869746982">
        <ele>77.8</ele>
        <time>2017-12-11T18:18:58Z</time>
      </trkpt>
      <trkpt lat="62.631390340625" lon="17.969853318458">
        <ele>77.8</ele>
        <time>2017-12-11T18:18:59Z</time>
      </trkpt>
      <trkpt lat="62.631421353655" lon="17.969842170531">
        <ele>77.6</ele>
        <time>2017-12-11T18:19:00Z</time>
      </trkpt>
      <trkpt lat="62.63145446216" lon="17.969830268233">
        <ele>77.4</ele>
        <time>2017-12-11T18:19:01Z</time>
      </trkpt>
      <trkpt lat="62.631483631172" lon="17.969816019003">
        <ele>77.4</ele>
        <time>2017-12-11T18:19:02Z</time>
      </trkpt>
      <trkpt lat="62.631511375261" lon="17.969799171384">
        <ele>77.4</ele>
        <time>2017-12-11T18:19:03Z</time>
      </trkpt>
      <trkpt lat="62.631545321956" lon="17.969779054824">
        <ele>77.4</ele>
        <time>2017-12-11T18:19:04Z</time>
      </trkpt>
      <trkpt lat="62.631573736597" lon="17.969761201377">
        <ele>77.4</ele>
        <time>2017-12-11T18:19:05Z</time>
      </trkpt>
      <trkpt lat="62.631605420179" lon="17.969738989342">
        <ele>77.4</ele>
        <time>2017-12-11T18:19:06Z</time>
      </trkpt>
      <trkpt lat="62.631632409897" lon="17.969718034592">
        <ele>77.2</ele>
        <time>2017-12-11T18:19:07Z</time>
      </trkpt>
      <trkpt lat="62.631659734891" lon="17.969690793417">
        <ele>77.2</ele>
        <time>2017-12-11T18:19:08Z</time>
      </trkpt>
      <trkpt lat="62.631686473152" lon="17.969656762903">
        <ele>77.2</ele>
        <time>2017-12-11T18:19:09Z</time>
      </trkpt>
      <trkpt lat="62.631713630508" lon="17.969621056009">
        <ele>77.2</ele>
        <time>2017-12-11T18:19:10Z</time>
      </trkpt>
      <trkpt lat="62.631738692389" lon="17.969587109314">
        <ele>77</ele>
        <time>2017-12-11T18:19:11Z</time>
      </trkpt>
      <trkpt lat="62.631767442306" lon="17.969559365225">
        <ele>76.8</ele>
        <time>2017-12-11T18:19:12Z</time>
      </trkpt>
      <trkpt lat="62.631794012929" lon="17.969544110167">
        <ele>76.6</ele>
        <time>2017-12-11T18:19:13Z</time>
      </trkpt>
      <trkpt lat="62.631824355407" lon="17.969536482638">
        <ele>76.6</ele>
        <time>2017-12-11T18:19:14Z</time>
      </trkpt>
      <trkpt lat="62.631854027333" lon="17.969535141534">
        <ele>76.4</ele>
        <time>2017-12-11T18:19:15Z</time>
      </trkpt>
      <trkpt lat="62.631881352327" lon="17.969528184557">
        <ele>76.2</ele>
        <time>2017-12-11T18:19:16Z</time>
      </trkpt>
      <trkpt lat="62.631911778624" lon="17.969523574512">
        <ele>76.2</ele>
        <time>2017-12-11T18:19:17Z</time>
      </trkpt>
      <trkpt lat="62.631937846333" lon="17.969522820141">
        <ele>76.4</ele>
        <time>2017-12-11T18:19:18Z</time>
      </trkpt>
      <trkpt lat="62.631969781372" lon="17.969520473209">
        <ele>76.6</ele>
        <time>2017-12-11T18:19:19Z</time>
      </trkpt>
      <trkpt lat="62.631996603452" lon="17.96951787482">
        <ele>76.6</ele>
        <time>2017-12-11T18:19:20Z</time>
      </trkpt>
      <trkpt lat="62.632021665333" lon="17.969513851508">
        <ele>76.8</ele>
        <time>2017-12-11T18:19:21Z</time>
      </trkpt>
      <trkpt lat="62.632050247612" lon="17.969503877047">
        <ele>76.8</ele>
        <time>2017-12-11T18:19:22Z</time>
      </trkpt>
      <trkpt lat="62.63207472276" lon="17.969502200667">
        <ele>77</ele>
        <time>2017-12-11T18:19:23Z</time>
      </trkpt>
      <trkpt lat="62.632106490161" lon="17.969499686097">
        <ele>77</ele>
        <time>2017-12-11T18:19:24Z</time>
      </trkpt>
      <trkpt lat="62.632134150431" lon="17.969497674441">
        <ele>77</ele>
        <time>2017-12-11T18:19:25Z</time>
      </trkpt>
      <trkpt lat="62.632160553416" lon="17.969491471835">
        <ele>77</ele>
        <time>2017-12-11T18:19:26Z</time>
      </trkpt>
      <trkpt lat="62.632190979713" lon="17.969485772143">
        <ele>77</ele>
        <time>2017-12-11T18:19:27Z</time>
      </trkpt>
      <trkpt lat="62.632218388526" lon="17.96948015627">
        <ele>77</ele>
        <time>2017-12-11T18:19:28Z</time>
      </trkpt>
      <trkpt lat="62.632247473719" lon="17.96947093618">
        <ele>77</ele>
        <time>2017-12-11T18:19:29Z</time>
      </trkpt>
      <trkpt lat="62.632278570568" lon="17.969464817393">
        <ele>77</ele>
        <time>2017-12-11T18:19:30Z</time>
      </trkpt>
      <trkpt lat="62.63230773958" lon="17.969460374986">
        <ele>77</ele>
        <time>2017-12-11T18:19:31Z</time>
      </trkpt>
      <trkpt lat="62.632335567488" lon="17.969452915095">
        <ele>77</ele>
        <time>2017-12-11T18:19:32Z</time>
      </trkpt>
      <trkpt lat="62.632361635197" lon="17.969449227059">
        <ele>77</ele>
        <time>2017-12-11T18:19:33Z</time>
      </trkpt>
      <trkpt lat="62.63239239677" lon="17.969441850987">
        <ele>77</ele>
        <time>2017-12-11T18:19:34Z</time>
      </trkpt>
      <trkpt lat="62.632421314325" lon="17.969440509883">
        <ele>77</ele>
        <time>2017-12-11T18:19:35Z</time>
      </trkpt>
      <trkpt lat="62.632452243536" lon="17.969445119928">
        <ele>77</ele>
        <time>2017-12-11T18:19:36Z</time>
      </trkpt>
      <trkpt lat="62.632479484711" lon="17.969451741629">
        <ele>77.2</ele>
        <time>2017-12-11T18:19:37Z</time>
      </trkpt>
      <trkpt lat="62.632506306791" lon="17.969458028054">
        <ele>77.2</ele>
        <time>2017-12-11T18:19:38Z</time>
      </trkpt>
      <trkpt lat="62.632535811079" lon="17.969462135185">
        <ele>77.2</ele>
        <time>2017-12-11T18:19:39Z</time>
      </trkpt>
      <trkpt lat="62.632562465521" lon="17.969467331963">
        <ele>77.2</ele>
        <time>2017-12-11T18:19:40Z</time>
      </trkpt>
      <trkpt lat="62.632588784687" lon="17.96947680351">
        <ele>77.2</ele>
        <time>2017-12-11T18:19:41Z</time>
      </trkpt>
      <trkpt lat="62.632616696414" lon="17.969484179582">
        <ele>77.2</ele>
        <time>2017-12-11T18:19:42Z</time>
      </trkpt>
      <trkpt lat="62.632642512666" lon="17.969486191238">
        <ele>77.2</ele>
        <time>2017-12-11T18:19:43Z</time>
      </trkpt>
      <trkpt lat="62.632673022782" lon="17.969492561482">
        <ele>77.4</ele>
        <time>2017-12-11T18:19:44Z</time>
      </trkpt>
      <trkpt lat="62.632699341948" lon="17.969498009717">
        <ele>77.2</ele>
        <time>2017-12-11T18:19:45Z</time>
      </trkpt>
      <trkpt lat="62.632727588951" lon="17.969501613934">
        <ele>77.4</ele>
        <time>2017-12-11T18:19:46Z</time>
      </trkpt>
      <trkpt lat="62.632754578669" lon="17.969505553427">
        <ele>77.4</ele>
        <time>2017-12-11T18:19:47Z</time>
      </trkpt>
      <trkpt lat="62.632779975826" lon="17.969506726893">
        <ele>77.4</ele>
        <time>2017-12-11T18:19:48Z</time>
      </trkpt>
      <trkpt lat="62.632811910865" lon="17.969516952811">
        <ele>77.4</ele>
        <time>2017-12-11T18:19:49Z</time>
      </trkpt>
      <trkpt lat="62.632839487316" lon="17.969519802657">
        <ele>77.6</ele>
        <time>2017-12-11T18:19:50Z</time>
      </trkpt>
      <trkpt lat="62.632869745975" lon="17.969527011091">
        <ele>77.6</ele>
        <time>2017-12-11T18:19:51Z</time>
      </trkpt>
      <trkpt lat="62.632893802028" lon="17.96953547681">
        <ele>77.4</ele>
        <time>2017-12-11T18:19:52Z</time>
      </trkpt>
      <trkpt lat="62.632921378479" lon="17.96954218233">
        <ele>77.6</ele>
        <time>2017-12-11T18:19:53Z</time>
      </trkpt>
      <trkpt lat="62.632950966586" lon="17.969548804031">
        <ele>77.8</ele>
        <time>2017-12-11T18:19:54Z</time>
      </trkpt>
      <trkpt lat="62.632977704847" lon="17.969556515379">
        <ele>77.8</ele>
        <time>2017-12-11T18:19:55Z</time>
      </trkpt>
      <trkpt lat="62.633002682909" lon="17.969566825116">
        <ele>77.6</ele>
        <time>2017-12-11T18:19:56Z</time>
      </trkpt>
      <trkpt lat="62.633029504989" lon="17.969578643595">
        <ele>77.8</ele>
        <time>2017-12-11T18:19:57Z</time>
      </trkpt>
      <trkpt lat="62.633052555214" lon="17.969589037151">
        <ele>78</ele>
        <time>2017-12-11T18:19:58Z</time>
      </trkpt>
      <trkpt lat="62.633079209656" lon="17.969599430707">
        <ele>78</ele>
        <time>2017-12-11T18:19:59Z</time>
      </trkpt>
      <trkpt lat="62.633108713944" lon="17.969607644969">
        <ele>78.2</ele>
        <time>2017-12-11T18:20:00Z</time>
      </trkpt>
      <trkpt lat="62.633134865472" lon="17.969610578634">
        <ele>78.2</ele>
        <time>2017-12-11T18:20:01Z</time>
      </trkpt>
      <trkpt lat="62.633163699208" lon="17.969613093204">
        <ele>78.2</ele>
        <time>2017-12-11T18:20:02Z</time>
      </trkpt>
      <trkpt lat="62.633188509632" lon="17.969618206163">
        <ele>78.2</ele>
        <time>2017-12-11T18:20:03Z</time>
      </trkpt>
      <trkpt lat="62.633218768291" lon="17.969629521728">
        <ele>78.4</ele>
        <time>2017-12-11T18:20:04Z</time>
      </trkpt>
      <trkpt lat="62.633247099113" lon="17.969642597492">
        <ele>78.2</ele>
        <time>2017-12-11T18:20:05Z</time>
      </trkpt>
      <trkpt lat="62.633275513754" lon="17.969657433455">
        <ele>78.4</ele>
        <time>2017-12-11T18:20:06Z</time>
      </trkpt>
      <trkpt lat="62.633303760757" lon="17.969674867807">
        <ele>78.4</ele>
        <time>2017-12-11T18:20:07Z</time>
      </trkpt>
      <trkpt lat="62.633327062439" lon="17.969698504765">
        <ele>78.4</ele>
        <time>2017-12-11T18:20:08Z</time>
      </trkpt>
      <trkpt lat="62.633347346637" lon="17.969733373469">
        <ele>78.4</ele>
        <time>2017-12-11T18:20:09Z</time>
      </trkpt>
      <trkpt lat="62.633363188428" lon="17.969775115331">
        <ele>78.6</ele>
        <time>2017-12-11T18:20:10Z</time>
      </trkpt>
      <trkpt lat="62.633370815957" lon="17.969824149446">
        <ele>78.6</ele>
        <time>2017-12-11T18:20:11Z</time>
      </trkpt>
      <trkpt lat="62.633375342183" lon="17.969877877425">
        <ele>78.6</ele>
        <time>2017-12-11T18:20:12Z</time>
      </trkpt>
      <trkpt lat="62.633377353839" lon="17.969932946508">
        <ele>78.6</ele>
        <time>2017-12-11T18:20:13Z</time>
      </trkpt>
      <trkpt lat="62.633378359667" lon="17.96999061398">
        <ele>78.6</ele>
        <time>2017-12-11T18:20:14Z</time>
      </trkpt>
      <trkpt lat="62.633380036047" lon="17.970048365271">
        <ele>78.8</ele>
        <time>2017-12-11T18:20:15Z</time>
      </trkpt>
      <trkpt lat="62.633380538961" lon="17.97010544601">
        <ele>79</ele>
        <time>2017-12-11T18:20:16Z</time>
      </trkpt>
      <trkpt lat="62.633381712427" lon="17.970143918931">
        <ele>79</ele>
        <time>2017-12-11T18:20:17Z</time>
      </trkpt>
      <trkpt lat="62.633383221169" lon="17.970212399054">
        <ele>79.2</ele>
        <time>2017-12-11T18:20:18Z</time>
      </trkpt>
      <trkpt lat="62.633384646092" lon="17.970277861693">
        <ele>79.4</ele>
        <time>2017-12-11T18:20:19Z</time>
      </trkpt>
      <trkpt lat="62.633387915033" lon="17.970337540821">
        <ele>79.4</ele>
        <time>2017-12-11T18:20:20Z</time>
      </trkpt>
      <trkpt lat="62.633390848698" lon="17.970400740347">
        <ele>79.6</ele>
        <time>2017-12-11T18:20:21Z</time>
      </trkpt>
      <trkpt lat="62.633394117639" lon="17.970460335656">
        <ele>79.8</ele>
        <time>2017-12-11T18:20:22Z</time>
      </trkpt>
      <trkpt lat="62.633397638037" lon="17.970516913481">
        <ele>80</ele>
        <time>2017-12-11T18:20:23Z</time>
      </trkpt>
      <trkpt lat="62.633400906978" lon="17.970587656717">
        <ele>80.2</ele>
        <time>2017-12-11T18:20:24Z</time>
      </trkpt>
      <trkpt lat="62.633404846471" lon="17.970647922578">
        <ele>80.2</ele>
        <time>2017-12-11T18:20:25Z</time>
      </trkpt>
      <trkpt lat="62.63340744486" lon="17.970711960294">
        <ele>80.2</ele>
        <time>2017-12-11T18:20:26Z</time>
      </trkpt>
      <trkpt lat="62.63340912124" lon="17.970773231983">
        <ele>80.4</ele>
        <time>2017-12-11T18:20:27Z</time>
      </trkpt>
      <trkpt lat="62.633409540335" lon="17.970833330206">
        <ele>80.4</ele>
        <time>2017-12-11T18:20:28Z</time>
      </trkpt>
      <trkpt lat="62.633410546163" lon="17.970900217768">
        <ele>80.4</ele>
        <time>2017-12-11T18:20:29Z</time>
      </trkpt>
      <trkpt lat="62.633411971086" lon="17.970968111158">
        <ele>80.6</ele>
        <time>2017-12-11T18:20:30Z</time>
      </trkpt>
      <trkpt lat="62.633414066561" lon="17.971035250177">
        <ele>80.8</ele>
        <time>2017-12-11T18:20:31Z</time>
      </trkpt>
      <trkpt lat="62.633415323846" lon="17.971098114427">
        <ele>80.8</ele>
        <time>2017-12-11T18:20:32Z</time>
      </trkpt>
      <trkpt lat="62.63341666495" lon="17.971154273157">
        <ele>80.8</ele>
        <time>2017-12-11T18:20:33Z</time>
      </trkpt>
      <trkpt lat="62.633416832588" lon="17.971228117696">
        <ele>80.8</ele>
        <time>2017-12-11T18:20:34Z</time>
      </trkpt>
      <trkpt lat="62.633417419321" lon="17.971286874815">
        <ele>81</ele>
        <time>2017-12-11T18:20:35Z</time>
      </trkpt>
      <trkpt lat="62.633417000226" lon="17.9713551873">
        <ele>81.2</ele>
        <time>2017-12-11T18:20:36Z</time>
      </trkpt>
      <trkpt lat="62.633414820932" lon="17.971414363514">
        <ele>81.2</ele>
        <time>2017-12-11T18:20:37Z</time>
      </trkpt>
      <trkpt lat="62.633412557819" lon="17.971471360434">
        <ele>81.2</ele>
        <time>2017-12-11T18:20:38Z</time>
      </trkpt>
      <trkpt lat="62.63340828305" lon="17.971537242168">
        <ele>81.4</ele>
        <time>2017-12-11T18:20:39Z</time>
      </trkpt>
      <trkpt lat="62.633406355213" lon="17.971595496373">
        <ele>81.6</ele>
        <time>2017-12-11T18:20:40Z</time>
      </trkpt>
      <trkpt lat="62.633404846471" lon="17.971657941528">
        <ele>81.8</ele>
        <time>2017-12-11T18:20:41Z</time>
      </trkpt>
      <trkpt lat="62.633403589186" lon="17.971720973416">
        <ele>81.8</ele>
        <time>2017-12-11T18:20:42Z</time>
      </trkpt>
      <trkpt lat="62.633402750996" lon="17.971781071639">
        <ele>81.8</ele>
        <time>2017-12-11T18:20:43Z</time>
      </trkpt>
      <trkpt lat="62.633398308589" lon="17.971849970857">
        <ele>82</ele>
        <time>2017-12-11T18:20:44Z</time>
      </trkpt>
      <trkpt lat="62.633394704372" lon="17.971909649985">
        <ele>82</ele>
        <time>2017-12-11T18:20:45Z</time>
      </trkpt>
      <trkpt lat="62.633390513422" lon="17.971971340769">
        <ele>82.2</ele>
        <time>2017-12-11T18:20:46Z</time>
      </trkpt>
      <trkpt lat="62.633386154834" lon="17.972026242214">
        <ele>82.4</ele>
        <time>2017-12-11T18:20:47Z</time>
      </trkpt>
      <trkpt lat="62.633381209513" lon="17.972084664057">
        <ele>82.4</ele>
        <time>2017-12-11T18:20:48Z</time>
      </trkpt>
      <trkpt lat="62.633371737966" lon="17.972154150008">
        <ele>82.4</ele>
        <time>2017-12-11T18:20:49Z</time>
      </trkpt>
      <trkpt lat="62.633365032446" lon="17.972215505516">
        <ele>82.6</ele>
        <time>2017-12-11T18:20:50Z</time>
      </trkpt>
      <trkpt lat="62.633357237279" lon="17.9722771963">
        <ele>82.8</ele>
        <time>2017-12-11T18:20:51Z</time>
      </trkpt>
      <trkpt lat="62.63335212432" lon="17.972336372514">
        <ele>82.8</ele>
        <time>2017-12-11T18:20:52Z</time>
      </trkpt>
      <trkpt lat="62.633346424628" lon="17.972387585923">
        <ele>82.8</ele>
        <time>2017-12-11T18:20:53Z</time>
      </trkpt>
      <trkpt lat="62.633334270873" lon="17.972456149865">
        <ele>83</ele>
        <time>2017-12-11T18:20:54Z</time>
      </trkpt>
      <trkpt lat="62.633327649172" lon="17.972511805681">
        <ele>83</ele>
        <time>2017-12-11T18:20:55Z</time>
      </trkpt>
      <trkpt lat="62.633319686367" lon="17.972570395162">
        <ele>83.2</ele>
        <time>2017-12-11T18:20:56Z</time>
      </trkpt>
      <trkpt lat="62.633311723562" lon="17.97262839791">
        <ele>83</ele>
        <time>2017-12-11T18:20:57Z</time>
      </trkpt>
      <trkpt lat="62.633303676938" lon="17.972681371518">
        <ele>83</ele>
        <time>2017-12-11T18:20:58Z</time>
      </trkpt>
      <trkpt lat="62.633293283382" lon="17.972742140293">
        <ele>83.2</ele>
        <time>2017-12-11T18:20:59Z</time>
      </trkpt>
      <trkpt lat="62.633283644197" lon="17.972800981231">
        <ele>83.4</ele>
        <time>2017-12-11T18:21:00Z</time>
      </trkpt>
      <trkpt lat="62.633272831546" lon="17.972855966495">
        <ele>83.6</ele>
        <time>2017-12-11T18:21:01Z</time>
      </trkpt>
      <trkpt lat="62.633260510153" lon="17.972913801605">
        <ele>83.8</ele>
        <time>2017-12-11T18:21:02Z</time>
      </trkpt>
      <trkpt lat="62.633253553176" lon="17.972963506272">
        <ele>83.8</ele>
        <time>2017-12-11T18:21:03Z</time>
      </trkpt>
      <trkpt lat="62.633243494896" lon="17.973029639463">
        <ele>83.8</ele>
        <time>2017-12-11T18:21:04Z</time>
      </trkpt>
      <trkpt lat="62.633232682245" lon="17.973082948347">
        <ele>84</ele>
        <time>2017-12-11T18:21:05Z</time>
      </trkpt>
      <trkpt lat="62.633219941757" lon="17.97314220838">
        <ele>84.2</ele>
        <time>2017-12-11T18:21:06Z</time>
      </trkpt>
      <trkpt lat="62.633208626192" lon="17.973201049318">
        <ele>84.2</ele>
        <time>2017-12-11T18:21:07Z</time>
      </trkpt>
      <trkpt lat="62.633196891532" lon="17.973255866944">
        <ele>84.4</ele>
        <time>2017-12-11T18:21:08Z</time>
      </trkpt>
      <trkpt lat="62.633183899587" lon="17.973322503049">
        <ele>84.4</ele>
        <time>2017-12-11T18:21:09Z</time>
      </trkpt>
      <trkpt lat="62.633173170755" lon="17.973379751426">
        <ele>84.6</ele>
        <time>2017-12-11T18:21:10Z</time>
      </trkpt>
      <trkpt lat="62.633161939009" lon="17.973435826337">
        <ele>84.6</ele>
        <time>2017-12-11T18:21:11Z</time>
      </trkpt>
      <trkpt lat="62.633146013399" lon="17.973499528777">
        <ele>84.6</ele>
        <time>2017-12-11T18:21:12Z</time>
      </trkpt>
      <trkpt lat="62.63313503311" lon="17.973551999471">
        <ele>84.8</ele>
        <time>2017-12-11T18:21:13Z</time>
      </trkpt>
      <trkpt lat="62.633123214631" lon="17.973616121006">
        <ele>84.8</ele>
        <time>2017-12-11T18:21:14Z</time>
      </trkpt>
      <trkpt lat="62.633111982885" lon="17.973672279736">
        <ele>84.8</ele>
        <time>2017-12-11T18:21:15Z</time>
      </trkpt>
      <trkpt lat="62.633100248225" lon="17.973727348819">
        <ele>84.8</ele>
        <time>2017-12-11T18:21:16Z</time>
      </trkpt>
      <trkpt lat="62.633087675375" lon="17.973785519205">
        <ele>85</ele>
        <time>2017-12-11T18:21:17Z</time>
      </trkpt>
      <trkpt lat="62.63307468343" lon="17.973836732614">
        <ele>85.2</ele>
        <time>2017-12-11T18:21:18Z</time>
      </trkpt>
      <trkpt lat="62.633057249078" lon="17.973900267416">
        <ele>85.2</ele>
        <time>2017-12-11T18:21:19Z</time>
      </trkpt>
      <trkpt lat="62.633042161658" lon="17.973957934888">
        <ele>85.2</ele>
        <time>2017-12-11T18:21:20Z</time>
      </trkpt>
      <trkpt lat="62.633027660971" lon="17.974016189093">
        <ele>85.4</ele>
        <time>2017-12-11T18:21:21Z</time>
      </trkpt>
      <trkpt lat="62.633013160284" lon="17.974079137162">
        <ele>85.6</ele>
        <time>2017-12-11T18:21:22Z</time>
      </trkpt>
      <trkpt lat="62.633001593262" lon="17.974130769666">
        <ele>85.6</ele>
        <time>2017-12-11T18:21:23Z</time>
      </trkpt>
      <trkpt lat="62.632985500014" lon="17.974198663056">
        <ele>85.6</ele>
        <time>2017-12-11T18:21:24Z</time>
      </trkpt>
      <trkpt lat="62.632968484757" lon="17.974257755451">
        <ele>86</ele>
        <time>2017-12-11T18:21:25Z</time>
      </trkpt>
      <trkpt lat="62.632954403165" lon="17.974316177294">
        <ele>86</ele>
        <time>2017-12-11T18:21:26Z</time>
      </trkpt>
      <trkpt lat="62.632940824487" lon="17.974377784259">
        <ele>86</ele>
        <time>2017-12-11T18:21:27Z</time>
      </trkpt>
      <trkpt lat="62.632928167818" lon="17.974432937161">
        <ele>86</ele>
        <time>2017-12-11T18:21:28Z</time>
      </trkpt>
      <trkpt lat="62.632909057086" lon="17.974488509158">
        <ele>86.2</ele>
        <time>2017-12-11T18:21:29Z</time>
      </trkpt>
      <trkpt lat="62.632883827567" lon="17.974533771418">
        <ele>86.2</ele>
        <time>2017-12-11T18:21:30Z</time>
      </trkpt>
      <trkpt lat="62.63285423946" lon="17.974554642349">
        <ele>86.2</ele>
        <time>2017-12-11T18:21:31Z</time>
      </trkpt>
      <trkpt lat="62.632819622213" lon="17.974558833299">
        <ele>86.4</ele>
        <time>2017-12-11T18:21:32Z</time>
      </trkpt>
      <trkpt lat="62.632786429889" lon="17.974550786675">
        <ele>86.4</ele>
        <time>2017-12-11T18:21:33Z</time>
      </trkpt>
      <trkpt lat="62.632746280588" lon="17.974537710911">
        <ele>86.4</ele>
        <time>2017-12-11T18:21:34Z</time>
      </trkpt>
      <trkpt lat="62.632713674997" lon="17.974515582695">
        <ele>86.2</ele>
        <time>2017-12-11T18:21:35Z</time>
      </trkpt>
      <trkpt lat="62.632680231216" lon="17.974488006244">
        <ele>86.4</ele>
        <time>2017-12-11T18:21:36Z</time>
      </trkpt>
      <trkpt lat="62.632648966729" lon="17.974463447277">
        <ele>86.4</ele>
        <time>2017-12-11T18:21:37Z</time>
      </trkpt>
      <trkpt lat="62.632619127165" lon="17.974440816147">
        <ele>86.2</ele>
        <time>2017-12-11T18:21:38Z</time>
      </trkpt>
      <trkpt lat="62.632588197954" lon="17.974412820601">
        <ele>86.2</ele>
        <time>2017-12-11T18:21:39Z</time>
      </trkpt>
      <trkpt lat="62.632556933467" lon="17.974386669073">
        <ele>86.4</ele>
        <time>2017-12-11T18:21:40Z</time>
      </trkpt>
      <trkpt lat="62.632527010084" lon="17.974362948296">
        <ele>86.4</ele>
        <time>2017-12-11T18:21:41Z</time>
      </trkpt>
      <trkpt lat="62.632496667606" lon="17.97433662913">
        <ele>86.4</ele>
        <time>2017-12-11T18:21:42Z</time>
      </trkpt>
      <trkpt lat="62.632466744223" lon="17.974308298308">
        <ele>86.4</ele>
        <time>2017-12-11T18:21:43Z</time>
      </trkpt>
      <trkpt lat="62.632433635718" lon="17.974267310817">
        <ele>86.4</ele>
        <time>2017-12-11T18:21:44Z</time>
      </trkpt>
      <trkpt lat="62.632404885801" lon="17.974231268647">
        <ele>86.4</ele>
        <time>2017-12-11T18:21:45Z</time>
      </trkpt>
      <trkpt lat="62.632373537495" lon="17.974202602549">
        <ele>86.4</ele>
        <time>2017-12-11T18:21:46Z</time>
      </trkpt>
      <trkpt lat="62.632340680447" lon="17.974180893428">
        <ele>86.4</ele>
        <time>2017-12-11T18:21:47Z</time>
      </trkpt>
      <trkpt lat="62.632310673245" lon="17.974161195963">
        <ele>86.4</ele>
        <time>2017-12-11T18:21:48Z</time>
      </trkpt>
      <trkpt lat="62.632273960523" lon="17.974140408851">
        <ele>86.4</ele>
        <time>2017-12-11T18:21:49Z</time>
      </trkpt>
      <trkpt lat="62.632243785683" lon="17.97411199421">
        <ele>86.4</ele>
        <time>2017-12-11T18:21:50Z</time>
      </trkpt>
      <trkpt lat="62.632211934463" lon="17.974084585397">
        <ele>86.6</ele>
        <time>2017-12-11T18:21:51Z</time>
      </trkpt>
      <trkpt lat="62.6321803347" lon="17.974053656186">
        <ele>86.4</ele>
        <time>2017-12-11T18:21:52Z</time>
      </trkpt>
      <trkpt lat="62.632152842068" lon="17.974028761943">
        <ele>86.4</ele>
        <time>2017-12-11T18:21:53Z</time>
      </trkpt>
      <trkpt lat="62.632119230649" lon="17.973997832732">
        <ele>86.4</ele>
        <time>2017-12-11T18:21:54Z</time>
      </trkpt>
      <trkpt lat="62.632086960334" lon="17.973965813874">
        <ele>86.4</ele>
        <time>2017-12-11T18:21:55Z</time>
      </trkpt>
      <trkpt lat="62.632057288408" lon="17.973937315414">
        <ele>86.4</ele>
        <time>2017-12-11T18:21:56Z</time>
      </trkpt>
      <trkpt lat="62.632027700301" lon="17.973907978764">
        <ele>86.4</ele>
        <time>2017-12-11T18:21:57Z</time>
      </trkpt>
      <trkpt lat="62.632001884049" lon="17.973875792268">
        <ele>86.4</ele>
        <time>2017-12-11T18:21:58Z</time>
      </trkpt>
      <trkpt lat="62.631974642874" lon="17.97384209703">
        <ele>86.2</ele>
        <time>2017-12-11T18:21:59Z</time>
      </trkpt>
      <trkpt lat="62.631945138586" lon="17.973808653249">
        <ele>86.2</ele>
        <time>2017-12-11T18:22:00Z</time>
      </trkpt>
      <trkpt lat="62.631914963746" lon="17.973778981323">
        <ele>86.2</ele>
        <time>2017-12-11T18:22:01Z</time>
      </trkpt>
      <trkpt lat="62.631893422263" lon="17.973743022972">
        <ele>86.2</ele>
        <time>2017-12-11T18:22:02Z</time>
      </trkpt>
      <trkpt lat="62.63187523354" lon="17.973704801508">
        <ele>86.2</ele>
        <time>2017-12-11T18:22:03Z</time>
      </trkpt>
      <trkpt lat="62.631846567442" lon="17.973663143465">
        <ele>86.2</ele>
        <time>2017-12-11T18:22:04Z</time>
      </trkpt>
      <trkpt lat="62.631821673199" lon="17.973633890634">
        <ele>86.2</ele>
        <time>2017-12-11T18:22:05Z</time>
      </trkpt>
      <trkpt lat="62.631801975734" lon="17.973596926455">
        <ele>86.2</ele>
        <time>2017-12-11T18:22:06Z</time>
      </trkpt>
      <trkpt lat="62.631780098975" lon="17.973557782982">
        <ele>86</ele>
        <time>2017-12-11T18:22:07Z</time>
      </trkpt>
      <trkpt lat="62.631758808949" lon="17.973526350857">
        <ele>86.2</ele>
        <time>2017-12-11T18:22:08Z</time>
      </trkpt>
      <trkpt lat="62.631735591086" lon="17.973488297031">
        <ele>86.2</ele>
        <time>2017-12-11T18:22:09Z</time>
      </trkpt>
      <trkpt lat="62.631713714327" lon="17.973451416671">
        <ele>86.2</ele>
        <time>2017-12-11T18:22:10Z</time>
      </trkpt>
      <trkpt lat="62.631689490636" lon="17.973414452492">
        <ele>86.2</ele>
        <time>2017-12-11T18:22:11Z</time>
      </trkpt>
      <trkpt lat="62.631665518402" lon="17.973369190232">
        <ele>86.2</ele>
        <time>2017-12-11T18:22:12Z</time>
      </trkpt>
      <trkpt lat="62.63164473129" lon="17.973329208569">
        <ele>86.2</ele>
        <time>2017-12-11T18:22:13Z</time>
      </trkpt>
      <trkpt lat="62.631622016341" lon="17.973285287413">
        <ele>86.2</ele>
        <time>2017-12-11T18:22:14Z</time>
      </trkpt>
      <trkpt lat="62.631596870641" lon="17.973240863343">
        <ele>86</ele>
        <time>2017-12-11T18:22:15Z</time>
      </trkpt>
      <trkpt lat="62.631572311674" lon="17.973194427617">
        <ele>86</ele>
        <time>2017-12-11T18:22:16Z</time>
      </trkpt>
      <trkpt lat="62.63155085401" lon="17.973151847565">
        <ele>86</ele>
        <time>2017-12-11T18:22:17Z</time>
      </trkpt>
      <trkpt lat="62.631530485993" lon="17.973103400183">
        <ele>85.8</ele>
        <time>2017-12-11T18:22:18Z</time>
      </trkpt>
      <trkpt lat="62.631507854863" lon="17.973046319444">
        <ele>85.8</ele>
        <time>2017-12-11T18:22:19Z</time>
      </trkpt>
      <trkpt lat="62.631489749959" lon="17.972996447139">
        <ele>85.6</ele>
        <time>2017-12-11T18:22:20Z</time>
      </trkpt>
      <trkpt lat="62.631468627571" lon="17.972936181278">
        <ele>85.6</ele>
        <time>2017-12-11T18:22:21Z</time>
      </trkpt>
      <trkpt lat="62.631445577346" lon="17.972878262349">
        <ele>85.6</ele>
        <time>2017-12-11T18:22:22Z</time>
      </trkpt>
      <trkpt lat="62.631427472442" lon="17.972827551854">
        <ele>85.2</ele>
        <time>2017-12-11T18:22:23Z</time>
      </trkpt>
      <trkpt lat="62.631401823828" lon="17.972758484998">
        <ele>85.2</ele>
        <time>2017-12-11T18:22:24Z</time>
      </trkpt>
      <trkpt lat="62.631374079739" lon="17.972704421743">
        <ele>84.8</ele>
        <time>2017-12-11T18:22:25Z</time>
      </trkpt>
      <trkpt lat="62.631353376446" lon="17.972646921909">
        <ele>84.6</ele>
        <time>2017-12-11T18:22:26Z</time>
      </trkpt>
      <trkpt lat="62.631324794167" lon="17.972590595541">
        <ele>84.2</ele>
        <time>2017-12-11T18:22:27Z</time>
      </trkpt>
      <trkpt lat="62.631300319019" lon="17.972541477607">
        <ele>84.2</ele>
        <time>2017-12-11T18:22:28Z</time>
      </trkpt>
      <trkpt lat="62.631274083672" lon="17.972476266425">
        <ele>84</ele>
        <time>2017-12-11T18:22:29Z</time>
      </trkpt>
      <trkpt lat="62.631250111438" lon="17.972413402175">
        <ele>83.8</ele>
        <time>2017-12-11T18:22:30Z</time>
      </trkpt>
      <trkpt lat="62.631229575783" lon="17.972356237617">
        <ele>83.6</ele>
        <time>2017-12-11T18:22:31Z</time>
      </trkpt>
      <trkpt lat="62.631208201938" lon="17.972291529349">
        <ele>83.4</ele>
        <time>2017-12-11T18:22:32Z</time>
      </trkpt>
      <trkpt lat="62.631192611604" lon="17.972241657044">
        <ele>83.2</ele>
        <time>2017-12-11T18:22:33Z</time>
      </trkpt>
      <trkpt lat="62.631168136456" lon="17.972178373699">
        <ele>83</ele>
        <time>2017-12-11T18:22:34Z</time>
      </trkpt>
      <trkpt lat="62.631146259697" lon="17.97211458744">
        <ele>82.8</ele>
        <time>2017-12-11T18:22:35Z</time>
      </trkpt>
      <trkpt lat="62.631119940531" lon="17.972054992131">
        <ele>82.6</ele>
        <time>2017-12-11T18:22:36Z</time>
      </trkpt>
      <trkpt lat="62.63109739322" lon="17.971994642451">
        <ele>82.4</ele>
        <time>2017-12-11T18:22:37Z</time>
      </trkpt>
      <trkpt lat="62.631082892533" lon="17.97193102383">
        <ele>82.4</ele>
        <time>2017-12-11T18:22:38Z</time>
      </trkpt>
      <trkpt lat="62.631067302199" lon="17.971858520395">
        <ele>82.2</ele>
        <time>2017-12-11T18:22:39Z</time>
      </trkpt>
      <trkpt lat="62.631054813168" lon="17.971790040272">
        <ele>82</ele>
        <time>2017-12-11T18:22:40Z</time>
      </trkpt>
      <trkpt lat="62.631039641929" lon="17.971724242357">
        <ele>82</ele>
        <time>2017-12-11T18:22:41Z</time>
      </trkpt>
      <trkpt lat="62.631024386871" lon="17.971652409474">
        <ele>81.8</ele>
        <time>2017-12-11T18:22:42Z</time>
      </trkpt>
      <trkpt lat="62.631012149297" lon="17.971577559107">
        <ele>81.8</ele>
        <time>2017-12-11T18:22:43Z</time>
      </trkpt>
      <trkpt lat="62.631002091017" lon="17.971493656288">
        <ele>81.6</ele>
        <time>2017-12-11T18:22:44Z</time>
      </trkpt>
      <trkpt lat="62.630994044393" lon="17.971418470645">
        <ele>81.6</ele>
        <time>2017-12-11T18:22:45Z</time>
      </trkpt>
      <trkpt lat="62.630985327217" lon="17.971340351337">
        <ele>81.6</ele>
        <time>2017-12-11T18:22:46Z</time>
      </trkpt>
      <trkpt lat="62.63097501748" lon="17.971273296137">
        <ele>81.4</ele>
        <time>2017-12-11T18:22:47Z</time>
      </trkpt>
      <trkpt lat="62.630965210657" lon="17.971201463254">
        <ele>81.2</ele>
        <time>2017-12-11T18:22:48Z</time>
      </trkpt>
      <trkpt lat="62.630955403834" lon="17.97111127401">
        <ele>81</ele>
        <time>2017-12-11T18:22:49Z</time>
      </trkpt>
      <trkpt lat="62.63094651902" lon="17.971034747263">
        <ele>80.8</ele>
        <time>2017-12-11T18:22:50Z</time>
      </trkpt>
      <trkpt lat="62.630936628378" lon="17.970958388154">
        <ele>80.8</ele>
        <time>2017-12-11T18:22:51Z</time>
      </trkpt>
      <trkpt lat="62.630931515419" lon="17.970881190855">
        <ele>80.6</ele>
        <time>2017-12-11T18:22:52Z</time>
      </trkpt>
      <trkpt lat="62.630923971709" lon="17.970812375456">
        <ele>80.4</ele>
        <time>2017-12-11T18:22:53Z</time>
      </trkpt>
      <trkpt lat="62.630915673628" lon="17.970725371334">
        <ele>80.4</ele>
        <time>2017-12-11T18:22:54Z</time>
      </trkpt>
      <trkpt lat="62.630907040271" lon="17.970658316134">
        <ele>80.2</ele>
        <time>2017-12-11T18:22:55Z</time>
      </trkpt>
      <trkpt lat="62.630895976163" lon="17.970587237622">
        <ele>80</ele>
        <time>2017-12-11T18:22:56Z</time>
      </trkpt>
      <trkpt lat="62.630889019186" lon="17.970516745843">
        <ele>79.8</ele>
        <time>2017-12-11T18:22:57Z</time>
      </trkpt>
      <trkpt lat="62.630882062209" lon="17.970456144706">
        <ele>79.8</ele>
        <time>2017-12-11T18:22:58Z</time>
      </trkpt>
      <trkpt lat="62.630877619802" lon="17.970384144185">
        <ele>79.6</ele>
        <time>2017-12-11T18:22:59Z</time>
      </trkpt>
      <trkpt lat="62.630875105232" lon="17.970326644351">
        <ele>79.6</ele>
        <time>2017-12-11T18:23:00Z</time>
      </trkpt>
      <trkpt lat="62.630870662825" lon="17.970272832553">
        <ele>79.4</ele>
        <time>2017-12-11T18:23:02Z</time>
      </trkpt>
      <trkpt lat="62.630867896798" lon="17.970254895287">
        <ele>79.4</ele>
        <time>2017-12-11T18:23:03Z</time>
      </trkpt>
      <trkpt lat="62.630866639513" lon="17.970229749587">
        <ele>79.4</ele>
        <time>2017-12-11T18:23:04Z</time>
      </trkpt>
      <trkpt lat="62.630868818807" lon="17.970208040466">
        <ele>79.4</ele>
        <time>2017-12-11T18:23:05Z</time>
      </trkpt>
      <trkpt lat="62.630871501015" lon="17.970184906422">
        <ele>79.4</ele>
        <time>2017-12-11T18:23:06Z</time>
      </trkpt>
      <trkpt lat="62.630872674481" lon="17.970163867853">
        <ele>79.4</ele>
        <time>2017-12-11T18:23:07Z</time>
      </trkpt>
      <trkpt lat="62.630873680309" lon="17.970138470696">
        <ele>79.4</ele>
        <time>2017-12-11T18:23:08Z</time>
      </trkpt>
      <trkpt lat="62.630881391657" lon="17.970119527602">
        <ele>79.2</ele>
        <time>2017-12-11T18:23:09Z</time>
      </trkpt>
      <trkpt lat="62.630890863204" lon="17.970115671928">
        <ele>79</ele>
        <time>2017-12-11T18:23:10Z</time>
      </trkpt>
      <trkpt lat="62.630900083294" lon="17.970111732435">
        <ele>79</ele>
        <time>2017-12-11T18:23:11Z</time>
      </trkpt>
      <trkpt lat="62.630907375547" lon="17.970113995548">
        <ele>79</ele>
        <time>2017-12-11T18:23:12Z</time>
      </trkpt>
      <trkpt lat="62.630914919257" lon="17.970109888417">
        <ele>78.8</ele>
        <time>2017-12-11T18:23:13Z</time>
      </trkpt>
      <trkpt lat="62.630916679456" lon="17.970106368019">
        <ele>78.8</ele>
        <time>2017-12-11T18:23:14Z</time>
      </trkpt>
      <trkpt lat="62.630925312813" lon="17.970093543712">
        <ele>78.8</ele>
        <time>2017-12-11T18:23:15Z</time>
      </trkpt>
      <trkpt lat="62.630927911202" lon="17.970091867332">
        <ele>78.8</ele>
        <time>2017-12-11T18:23:16Z</time>
      </trkpt>
      <trkpt lat="62.630930258134" lon="17.970110894245">
        <ele>78.8</ele>
        <time>2017-12-11T18:23:17Z</time>
      </trkpt>
      <trkpt lat="62.631174674338" lon="17.969982651175">
        <ele>78.8</ele>
        <time>2017-12-11T18:24:19Z</time>
      </trkpt>
      <trkpt lat="62.631208956309" lon="17.969962283158">
        <ele>78.8</ele>
        <time>2017-12-11T18:24:20Z</time>
      </trkpt>
      <trkpt lat="62.63124323828" lon="17.969938562381">
        <ele>78.6</ele>
        <time>2017-12-11T18:24:21Z</time>
      </trkpt>
      <trkpt lat="62.63127844226" lon="17.969920289839">
        <ele>78.4</ele>
        <time>2017-12-11T18:24:22Z</time>
      </trkpt>
      <trkpt lat="62.631303168865" lon="17.969904448048">
        <ele>78.2</ele>
        <time>2017-12-11T18:24:23Z</time>
      </trkpt>
      <trkpt lat="62.631342731433" lon="17.969880894909">
        <ele>78.2</ele>
        <time>2017-12-11T18:24:24Z</time>
      </trkpt>
      <trkpt lat="62.631376091395" lon="17.969860023978">
        <ele>78.2</ele>
        <time>2017-12-11T18:24:25Z</time>
      </trkpt>
      <trkpt lat="62.63141003809" lon="17.969836973753">
        <ele>78.4</ele>
        <time>2017-12-11T18:24:26Z</time>
      </trkpt>
      <trkpt lat="62.631444739156" lon="17.969819790858">
        <ele>78.2</ele>
        <time>2017-12-11T18:24:27Z</time>
      </trkpt>
      <trkpt lat="62.631474327263" lon="17.969803613791">
        <ele>78.2</ele>
        <time>2017-12-11T18:24:28Z</time>
      </trkpt>
      <trkpt lat="62.631507184311" lon="17.969789113104">
        <ele>78.2</ele>
        <time>2017-12-11T18:24:29Z</time>
      </trkpt>
      <trkpt lat="62.631538113522" lon="17.969771175838">
        <ele>78.2</ele>
        <time>2017-12-11T18:24:30Z</time>
      </trkpt>
      <trkpt lat="62.631572395493" lon="17.969752819477">
        <ele>78</ele>
        <time>2017-12-11T18:24:31Z</time>
      </trkpt>
      <trkpt lat="62.631600642496" lon="17.969734798392">
        <ele>78</ele>
        <time>2017-12-11T18:24:32Z</time>
      </trkpt>
      <trkpt lat="62.631629560051" lon="17.96971484947">
        <ele>78</ele>
        <time>2017-12-11T18:24:33Z</time>
      </trkpt>
      <trkpt lat="62.631664177298" lon="17.969692134521">
        <ele>78</ele>
        <time>2017-12-11T18:24:34Z</time>
      </trkpt>
      <trkpt lat="62.631691418473" lon="17.969661624405">
        <ele>77.8</ele>
        <time>2017-12-11T18:24:35Z</time>
      </trkpt>
      <trkpt lat="62.63172352115" lon="17.969620888371">
        <ele>78</ele>
        <time>2017-12-11T18:24:36Z</time>
      </trkpt>
      <trkpt lat="62.631751516696" lon="17.969576715758">
        <ele>77.8</ele>
        <time>2017-12-11T18:24:37Z</time>
      </trkpt>
      <trkpt lat="62.631779931337" lon="17.969545451271">
        <ele>77.6</ele>
        <time>2017-12-11T18:24:38Z</time>
      </trkpt>
      <trkpt lat="62.631810273815" lon="17.969516114621">
        <ele>77.6</ele>
        <time>2017-12-11T18:24:39Z</time>
      </trkpt>
      <trkpt lat="62.631839945741" lon="17.969494992233">
        <ele>77.4</ele>
        <time>2017-12-11T18:24:40Z</time>
      </trkpt>
      <trkpt lat="62.63186768983" lon="17.96948518541">
        <ele>77.2</ele>
        <time>2017-12-11T18:24:41Z</time>
      </trkpt>
      <trkpt lat="62.631896942661" lon="17.969484766315">
        <ele>77</ele>
        <time>2017-12-11T18:24:42Z</time>
      </trkpt>
      <trkpt lat="62.631924938207" lon="17.969489208722">
        <ele>77</ele>
        <time>2017-12-11T18:24:43Z</time>
      </trkpt>
      <trkpt lat="62.63195486159" lon="17.969488286713">
        <ele>77</ele>
        <time>2017-12-11T18:24:44Z</time>
      </trkpt>
      <trkpt lat="62.631980761661" lon="17.969490382188">
        <ele>77</ele>
        <time>2017-12-11T18:24:45Z</time>
      </trkpt>
      <trkpt lat="62.63200934394" lon="17.969495914242">
        <ele>77</ele>
        <time>2017-12-11T18:24:46Z</time>
      </trkpt>
      <trkpt lat="62.632034741097" lon="17.9694944055">
        <ele>77</ele>
        <time>2017-12-11T18:24:47Z</time>
      </trkpt>
      <trkpt lat="62.63206214991" lon="17.969492226206">
        <ele>77.2</ele>
        <time>2017-12-11T18:24:48Z</time>
      </trkpt>
      <trkpt lat="62.632092073293" lon="17.969485353048">
        <ele>77.2</ele>
        <time>2017-12-11T18:24:49Z</time>
      </trkpt>
      <trkpt lat="62.632121242305" lon="17.969477054967">
        <ele>77.4</ele>
        <time>2017-12-11T18:24:50Z</time>
      </trkpt>
      <trkpt lat="62.632149824584" lon="17.969473702207">
        <ele>77.4</ele>
        <time>2017-12-11T18:24:51Z</time>
      </trkpt>
      <trkpt lat="62.632178490682" lon="17.969468756886">
        <ele>77.4</ele>
        <time>2017-12-11T18:24:52Z</time>
      </trkpt>
      <trkpt lat="62.632203971658" lon="17.969463895384">
        <ele>77.4</ele>
        <time>2017-12-11T18:24:53Z</time>
      </trkpt>
      <trkpt lat="62.632237415439" lon="17.969453166552">
        <ele>77.6</ele>
        <time>2017-12-11T18:24:54Z</time>
      </trkpt>
      <trkpt lat="62.632265746261" lon="17.969444197919">
        <ele>77.6</ele>
        <time>2017-12-11T18:24:55Z</time>
      </trkpt>
      <trkpt lat="62.632294999092" lon="17.969443192091">
        <ele>77.6</ele>
        <time>2017-12-11T18:24:56Z</time>
      </trkpt>
      <trkpt lat="62.632322240267" lon="17.969442689177">
        <ele>77.6</ele>
        <time>2017-12-11T18:24:57Z</time>
      </trkpt>
      <trkpt lat="62.632348894709" lon="17.969443443548">
        <ele>77.6</ele>
        <time>2017-12-11T18:24:58Z</time>
      </trkpt>
      <trkpt lat="62.632377476988" lon="17.969442270082">
        <ele>77.6</ele>
        <time>2017-12-11T18:24:59Z</time>
      </trkpt>
      <trkpt lat="62.632403879973" lon="17.969445622842">
        <ele>77.8</ele>
        <time>2017-12-11T18:25:00Z</time>
      </trkpt>
      <trkpt lat="62.632433132804" lon="17.96945165781">
        <ele>77.8</ele>
        <time>2017-12-11T18:25:01Z</time>
      </trkpt>
      <trkpt lat="62.632462553273" lon="17.96944998143">
        <ele>77.8</ele>
        <time>2017-12-11T18:25:02Z</time>
      </trkpt>
      <trkpt lat="62.632488704801" lon="17.969449729973">
        <ele>77.8</ele>
        <time>2017-12-11T18:25:03Z</time>
      </trkpt>
      <trkpt lat="62.632518628184" lon="17.969454675294">
        <ele>77.8</ele>
        <time>2017-12-11T18:25:04Z</time>
      </trkpt>
      <trkpt lat="62.632541929866" lon="17.969456267855">
        <ele>77.6</ele>
        <time>2017-12-11T18:25:05Z</time>
      </trkpt>
      <trkpt lat="62.632570763602" lon="17.969467331963">
        <ele>77.6</ele>
        <time>2017-12-11T18:25:06Z</time>
      </trkpt>
      <trkpt lat="62.632597250406" lon="17.96947261256">
        <ele>77.6</ele>
        <time>2017-12-11T18:25:07Z</time>
      </trkpt>
      <trkpt lat="62.632620887364" lon="17.969473786026">
        <ele>77.6</ele>
        <time>2017-12-11T18:25:08Z</time>
      </trkpt>
      <trkpt lat="62.632650391652" lon="17.969479988632">
        <ele>77.6</ele>
        <time>2017-12-11T18:25:09Z</time>
      </trkpt>
      <trkpt lat="62.632678303379" lon="17.969482419383">
        <ele>77.6</ele>
        <time>2017-12-11T18:25:10Z</time>
      </trkpt>
      <trkpt lat="62.632704790183" lon="17.969482419383">
        <ele>77.8</ele>
        <time>2017-12-11T18:25:11Z</time>
      </trkpt>
      <trkpt lat="62.632733959195" lon="17.96948937636">
        <ele>77.8</ele>
        <time>2017-12-11T18:25:12Z</time>
      </trkpt>
      <trkpt lat="62.632758937257" lon="17.969488957265">
        <ele>77.8</ele>
        <time>2017-12-11T18:25:13Z</time>
      </trkpt>
      <trkpt lat="62.632787687174" lon="17.969497003889">
        <ele>77.8</ele>
        <time>2017-12-11T18:25:14Z</time>
      </trkpt>
      <trkpt lat="62.632812916693" lon="17.969504631418">
        <ele>77.8</ele>
        <time>2017-12-11T18:25:15Z</time>
      </trkpt>
      <trkpt lat="62.632841163696" lon="17.969510498748">
        <ele>77.8</ele>
        <time>2017-12-11T18:25:16Z</time>
      </trkpt>
      <trkpt lat="62.632864213921" lon="17.969514857336">
        <ele>77.8</ele>
        <time>2017-12-11T18:25:17Z</time>
      </trkpt>
      <trkpt lat="62.632890113992" lon="17.969521059942">
        <ele>77.8</ele>
        <time>2017-12-11T18:25:18Z</time>
      </trkpt>
      <trkpt lat="62.632918193357" lon="17.969530196213">
        <ele>78</ele>
        <time>2017-12-11T18:25:19Z</time>
      </trkpt>
      <trkpt lat="62.632944680161" lon="17.969543774891">
        <ele>78</ele>
        <time>2017-12-11T18:25:20Z</time>
      </trkpt>
      <trkpt lat="62.632970999327" lon="17.969550983325">
        <ele>78</ele>
        <time>2017-12-11T18:25:21Z</time>
      </trkpt>
      <trkpt lat="62.632999916882" lon="17.969555928646">
        <ele>78.2</ele>
        <time>2017-12-11T18:25:22Z</time>
      </trkpt>
      <trkpt lat="62.633021626003" lon="17.969563556175">
        <ele>78.4</ele>
        <time>2017-12-11T18:25:23Z</time>
      </trkpt>
      <trkpt lat="62.633051800843" lon="17.969571770437">
        <ele>78.6</ele>
        <time>2017-12-11T18:25:24Z</time>
      </trkpt>
      <trkpt lat="62.633079880208" lon="17.969582499269">
        <ele>78.6</ele>
        <time>2017-12-11T18:25:25Z</time>
      </trkpt>
      <trkpt lat="62.633104522994" lon="17.969590294436">
        <ele>78.6</ele>
        <time>2017-12-11T18:25:26Z</time>
      </trkpt>
      <trkpt lat="62.633131261255" lon="17.969596161766">
        <ele>78.6</ele>
        <time>2017-12-11T18:25:27Z</time>
      </trkpt>
      <trkpt lat="62.633157077507" lon="17.969604711304">
        <ele>78.6</ele>
        <time>2017-12-11T18:25:28Z</time>
      </trkpt>
      <trkpt lat="62.63318280994" lon="17.969611249186">
        <ele>78.6</ele>
        <time>2017-12-11T18:25:29Z</time>
      </trkpt>
      <trkpt lat="62.633210051115" lon="17.969622732389">
        <ele>78.6</ele>
        <time>2017-12-11T18:25:30Z</time>
      </trkpt>
      <trkpt lat="62.633239052489" lon="17.969633042126">
        <ele>78.6</ele>
        <time>2017-12-11T18:25:31Z</time>
      </trkpt>
      <trkpt lat="62.633266545121" lon="17.96964276513">
        <ele>78.8</ele>
        <time>2017-12-11T18:25:32Z</time>
      </trkpt>
      <trkpt lat="62.633292277554" lon="17.969656511446">
        <ele>78.8</ele>
        <time>2017-12-11T18:25:33Z</time>
      </trkpt>
      <trkpt lat="62.63331692034" lon="17.969675873635">
        <ele>78.8</ele>
        <time>2017-12-11T18:25:34Z</time>
      </trkpt>
      <trkpt lat="62.633338797099" lon="17.96970814395">
        <ele>78.8</ele>
        <time>2017-12-11T18:25:35Z</time>
      </trkpt>
      <trkpt lat="62.633358913659" lon="17.969754747314">
        <ele>79</ele>
        <time>2017-12-11T18:25:36Z</time>
      </trkpt>
      <trkpt lat="62.633369893948" lon="17.969811325139">
        <ele>79</ele>
        <time>2017-12-11T18:25:37Z</time>
      </trkpt>
      <trkpt lat="62.63337391726" lon="17.969865891308">
        <ele>79</ele>
        <time>2017-12-11T18:25:38Z</time>
      </trkpt>
      <trkpt lat="62.633375509821" lon="17.969924648427">
        <ele>79</ele>
        <time>2017-12-11T18:25:39Z</time>
      </trkpt>
      <trkpt lat="62.633377856753" lon="17.969984411374">
        <ele>79.2</ele>
        <time>2017-12-11T18:25:40Z</time>
      </trkpt>
      <trkpt lat="62.633379281676" lon="17.970041240656">
        <ele>79.2</ele>
        <time>2017-12-11T18:25:41Z</time>
      </trkpt>
      <trkpt lat="62.633381209513" lon="17.970101003603">
        <ele>79.4</ele>
        <time>2017-12-11T18:25:42Z</time>
      </trkpt>
      <trkpt lat="62.633383556445" lon="17.970155402134">
        <ele>79.6</ele>
        <time>2017-12-11T18:25:43Z</time>
      </trkpt>
      <trkpt lat="62.633386322472" lon="17.970215919452">
        <ele>79.6</ele>
        <time>2017-12-11T18:25:44Z</time>
      </trkpt>
      <trkpt lat="62.633386825386" lon="17.970266462309">
        <ele>79.8</ele>
        <time>2017-12-11T18:25:45Z</time>
      </trkpt>
      <trkpt lat="62.633388082671" lon="17.970330332387">
        <ele>80</ele>
        <time>2017-12-11T18:25:46Z</time>
      </trkpt>
      <trkpt lat="62.633391267793" lon="17.970383222176">
        <ele>80</ele>
        <time>2017-12-11T18:25:47Z</time>
      </trkpt>
      <trkpt lat="62.633393782363" lon="17.9704415602">
        <ele>80.2</ele>
        <time>2017-12-11T18:25:48Z</time>
      </trkpt>
      <trkpt lat="62.633396045476" lon="17.970504089174">
        <ele>80.4</ele>
        <time>2017-12-11T18:25:49Z</time>
      </trkpt>
      <trkpt lat="62.633400487883" lon="17.970562008103">
        <ele>80.4</ele>
        <time>2017-12-11T18:25:50Z</time>
      </trkpt>
      <trkpt lat="62.633405014109" lon="17.970620765222">
        <ele>80.6</ele>
        <time>2017-12-11T18:25:51Z</time>
      </trkpt>
      <trkpt lat="62.633408366869" lon="17.970681198721">
        <ele>80.6</ele>
        <time>2017-12-11T18:25:52Z</time>
      </trkpt>
      <trkpt lat="62.633409456516" lon="17.970727718266">
        <ele>80.6</ele>
        <time>2017-12-11T18:25:53Z</time>
      </trkpt>
      <trkpt lat="62.633409875611" lon="17.97079611457">
        <ele>80.8</ele>
        <time>2017-12-11T18:25:54Z</time>
      </trkpt>
      <trkpt lat="62.633412557819" lon="17.97085562606">
        <ele>80.8</ele>
        <time>2017-12-11T18:25:55Z</time>
      </trkpt>
      <trkpt lat="62.633413982742" lon="17.970912706799">
        <ele>81</ele>
        <time>2017-12-11T18:25:56Z</time>
      </trkpt>
      <trkpt lat="62.633413563647" lon="17.970972385927">
        <ele>81</ele>
        <time>2017-12-11T18:25:57Z</time>
      </trkpt>
      <trkpt lat="62.633415156208" lon="17.971026533001">
        <ele>81</ele>
        <time>2017-12-11T18:25:58Z</time>
      </trkpt>
      <trkpt lat="62.633416832588" lon="17.971086715043">
        <ele>81.2</ele>
        <time>2017-12-11T18:25:59Z</time>
      </trkpt>
      <trkpt lat="62.633417586959" lon="17.971146058895">
        <ele>81.2</ele>
        <time>2017-12-11T18:26:00Z</time>
      </trkpt>
      <trkpt lat="62.633417586959" lon="17.971208252593">
        <ele>81.4</ele>
        <time>2017-12-11T18:26:01Z</time>
      </trkpt>
      <trkpt lat="62.633415575303" lon="17.971269189006">
        <ele>81.4</ele>
        <time>2017-12-11T18:26:02Z</time>
      </trkpt>
      <trkpt lat="62.633413898923" lon="17.971322581709">
        <ele>81.6</ele>
        <time>2017-12-11T18:26:03Z</time>
      </trkpt>
      <trkpt lat="62.633412138724" lon="17.971383182846">
        <ele>81.6</ele>
        <time>2017-12-11T18:26:04Z</time>
      </trkpt>
      <trkpt lat="62.633407193403" lon="17.971437832834">
        <ele>81.8</ele>
        <time>2017-12-11T18:26:05Z</time>
      </trkpt>
      <trkpt lat="62.633403756824" lon="17.971498266333">
        <ele>82</ele>
        <time>2017-12-11T18:26:06Z</time>
      </trkpt>
      <trkpt lat="62.633399817331" lon="17.971560962945">
        <ele>82.2</ele>
        <time>2017-12-11T18:26:07Z</time>
      </trkpt>
      <trkpt lat="62.633397721856" lon="17.971615948209">
        <ele>82.2</ele>
        <time>2017-12-11T18:26:08Z</time>
      </trkpt>
      <trkpt lat="62.633394955829" lon="17.971679315373">
        <ele>82.4</ele>
        <time>2017-12-11T18:26:09Z</time>
      </trkpt>
      <trkpt lat="62.633390261965" lon="17.971740167967">
        <ele>82.6</ele>
        <time>2017-12-11T18:26:10Z</time>
      </trkpt>
      <trkpt lat="62.633386154834" lon="17.971792471023">
        <ele>82.6</ele>
        <time>2017-12-11T18:26:11Z</time>
      </trkpt>
      <trkpt lat="62.633377437658" lon="17.971856844015">
        <ele>82.6</ele>
        <time>2017-12-11T18:26:12Z</time>
      </trkpt>
      <trkpt lat="62.633371654147" lon="17.971912332193">
        <ele>82.8</ele>
        <time>2017-12-11T18:26:13Z</time>
      </trkpt>
      <trkpt lat="62.633367044102" lon="17.971976453728">
        <ele>82.8</ele>
        <time>2017-12-11T18:26:14Z</time>
      </trkpt>
      <trkpt lat="62.633360170944" lon="17.972035378485">
        <ele>82.8</ele>
        <time>2017-12-11T18:26:15Z</time>
      </trkpt>
      <trkpt lat="62.633354890347" lon="17.97209614726">
        <ele>82.8</ele>
        <time>2017-12-11T18:26:16Z</time>
      </trkpt>
      <trkpt lat="62.63334960975" lon="17.972152138352">
        <ele>83</ele>
        <time>2017-12-11T18:26:17Z</time>
      </trkpt>
      <trkpt lat="62.63334206604" lon="17.972207291254">
        <ele>83</ele>
        <time>2017-12-11T18:26:18Z</time>
      </trkpt>
      <trkpt lat="62.633334354692" lon="17.972268562943">
        <ele>83</ele>
        <time>2017-12-11T18:26:19Z</time>
      </trkpt>
      <trkpt lat="62.633325553697" lon="17.97232497313">
        <ele>83</ele>
        <time>2017-12-11T18:26:20Z</time>
      </trkpt>
      <trkpt lat="62.633315663055" lon="17.972380796584">
        <ele>83.2</ele>
        <time>2017-12-11T18:26:21Z</time>
      </trkpt>
      <trkpt lat="62.633307281155" lon="17.972439469884">
        <ele>83.4</ele>
        <time>2017-12-11T18:26:22Z</time>
      </trkpt>
      <trkpt lat="62.633299150712" lon="17.972485989429">
        <ele>83.4</ele>
        <time>2017-12-11T18:26:23Z</time>
      </trkpt>
      <trkpt lat="62.633290684993" lon="17.972550530059">
        <ele>83.6</ele>
        <time>2017-12-11T18:26:24Z</time>
      </trkpt>
      <trkpt lat="62.633279285609" lon="17.972605934418">
        <ele>83.6</ele>
        <time>2017-12-11T18:26:25Z</time>
      </trkpt>
      <trkpt lat="62.633270149338" lon="17.972664691537">
        <ele>83.8</ele>
        <time>2017-12-11T18:26:26Z</time>
      </trkpt>
      <trkpt lat="62.633263192361" lon="17.972722610466">
        <ele>84</ele>
        <time>2017-12-11T18:26:27Z</time>
      </trkpt>
      <trkpt lat="62.633255229556" lon="17.972778517739">
        <ele>84.2</ele>
        <time>2017-12-11T18:26:28Z</time>
      </trkpt>
      <trkpt lat="62.633246177104" lon="17.972833419184">
        <ele>84.2</ele>
        <time>2017-12-11T18:26:29Z</time>
      </trkpt>
      <trkpt lat="62.633236286462" lon="17.97288823681">
        <ele>84.2</ele>
        <time>2017-12-11T18:26:30Z</time>
      </trkpt>
      <trkpt lat="62.633225389992" lon="17.972950011413">
        <ele>84.4</ele>
        <time>2017-12-11T18:26:31Z</time>
      </trkpt>
      <trkpt lat="62.633214577341" lon="17.9730064216">
        <ele>84.4</ele>
        <time>2017-12-11T18:26:32Z</time>
      </trkpt>
      <trkpt lat="62.633205524889" lon="17.973061323045">
        <ele>84.4</ele>
        <time>2017-12-11T18:26:33Z</time>
      </trkpt>
      <trkpt lat="62.633195885704" lon="17.97312125363">
        <ele>84.6</ele>
        <time>2017-12-11T18:26:34Z</time>
      </trkpt>
      <trkpt lat="62.633190437469" lon="17.973175652161">
        <ele>84.8</ele>
        <time>2017-12-11T18:26:35Z</time>
      </trkpt>
      <trkpt lat="62.633179624818" lon="17.973240863343">
        <ele>84.8</ele>
        <time>2017-12-11T18:26:36Z</time>
      </trkpt>
      <trkpt lat="62.633169315081" lon="17.973299369005">
        <ele>84.8</ele>
        <time>2017-12-11T18:26:37Z</time>
      </trkpt>
      <trkpt lat="62.633157748059" lon="17.973353599898">
        <ele>85</ele>
        <time>2017-12-11T18:26:38Z</time>
      </trkpt>
      <trkpt lat="62.633146097218" lon="17.973416967062">
        <ele>85</ele>
        <time>2017-12-11T18:26:39Z</time>
      </trkpt>
      <trkpt lat="62.633135200748" lon="17.973475891819">
        <ele>85.2</ele>
        <time>2017-12-11T18:26:40Z</time>
      </trkpt>
      <trkpt lat="62.633124807192" lon="17.973534732757">
        <ele>85.2</ele>
        <time>2017-12-11T18:26:41Z</time>
      </trkpt>
      <trkpt lat="62.633112737256" lon="17.97359818374">
        <ele>85.2</ele>
        <time>2017-12-11T18:26:42Z</time>
      </trkpt>
      <trkpt lat="62.633100332044" lon="17.973650319158">
        <ele>85.2</ele>
        <time>2017-12-11T18:26:43Z</time>
      </trkpt>
      <trkpt lat="62.633087004823" lon="17.973710836476">
        <ele>85.4</ele>
        <time>2017-12-11T18:26:44Z</time>
      </trkpt>
      <trkpt lat="62.633076108353" lon="17.973763810084">
        <ele>85.4</ele>
        <time>2017-12-11T18:26:45Z</time>
      </trkpt>
      <trkpt lat="62.633063367865" lon="17.973826925791">
        <ele>85.6</ele>
        <time>2017-12-11T18:26:46Z</time>
      </trkpt>
      <trkpt lat="62.633052303757" lon="17.973882833064">
        <ele>85.8</ele>
        <time>2017-12-11T18:26:47Z</time>
      </trkpt>
      <trkpt lat="62.633039144174" lon="17.973946703142">
        <ele>86</ele>
        <time>2017-12-11T18:26:48Z</time>
      </trkpt>
      <trkpt lat="62.633021458365" lon="17.974010489401">
        <ele>86.2</ele>
        <time>2017-12-11T18:26:49Z</time>
      </trkpt>
      <trkpt lat="62.633007963506" lon="17.97406337919">
        <ele>86.4</ele>
        <time>2017-12-11T18:26:50Z</time>
      </trkpt>
      <trkpt lat="62.632994636285" lon="17.974118615911">
        <ele>86.4</ele>
        <time>2017-12-11T18:26:51Z</time>
      </trkpt>
      <trkpt lat="62.632982398711" lon="17.974179552324">
        <ele>86.4</ele>
        <time>2017-12-11T18:26:52Z</time>
      </trkpt>
      <trkpt lat="62.632972088974" lon="17.97422766443">
        <ele>86.6</ele>
        <time>2017-12-11T18:26:53Z</time>
      </trkpt>
      <trkpt lat="62.632955408993" lon="17.974294049078">
        <ele>86.6</ele>
        <time>2017-12-11T18:26:54Z</time>
      </trkpt>
      <trkpt lat="62.632943841971" lon="17.974350962179">
        <ele>86.6</ele>
        <time>2017-12-11T18:26:55Z</time>
      </trkpt>
      <trkpt lat="62.632926575257" lon="17.974407372366">
        <ele>86.6</ele>
        <time>2017-12-11T18:26:56Z</time>
      </trkpt>
      <trkpt lat="62.632907464525" lon="17.974458585775">
        <ele>86.6</ele>
        <time>2017-12-11T18:26:57Z</time>
      </trkpt>
      <trkpt lat="62.632885084852" lon="17.974495549954">
        <ele>86.6</ele>
        <time>2017-12-11T18:26:58Z</time>
      </trkpt>
      <trkpt lat="62.63285591584" lon="17.974522874948">
        <ele>86.6</ele>
        <time>2017-12-11T18:26:59Z</time>
      </trkpt>
      <trkpt lat="62.632835296366" lon="17.974534693427">
        <ele>86.8</ele>
        <time>2017-12-11T18:27:00Z</time>
      </trkpt>
      <trkpt lat="62.632797996911" lon="17.974538046187">
        <ele>86.8</ele>
        <time>2017-12-11T18:27:01Z</time>
      </trkpt>
      <trkpt lat="62.632770336641" lon="17.974528071726">
        <ele>86.8</ele>
        <time>2017-12-11T18:27:02Z</time>
      </trkpt>
      <trkpt lat="62.63274443657" lon="17.974510721193">
        <ele>86.8</ele>
        <time>2017-12-11T18:27:03Z</time>
      </trkpt>
      <trkpt lat="62.632718033585" lon="17.974485491674">
        <ele>87</ele>
        <time>2017-12-11T18:27:04Z</time>
      </trkpt>
      <trkpt lat="62.632694480446" lon="17.974467302951">
        <ele>87</ele>
        <time>2017-12-11T18:27:05Z</time>
      </trkpt>
      <trkpt lat="62.632665981986" lon="17.974442576346">
        <ele>87.2</ele>
        <time>2017-12-11T18:27:06Z</time>
      </trkpt>
      <trkpt lat="62.632640668648" lon="17.974413155877">
        <ele>87.2</ele>
        <time>2017-12-11T18:27:07Z</time>
      </trkpt>
      <trkpt lat="62.632618875708" lon="17.974396056801">
        <ele>87.2</ele>
        <time>2017-12-11T18:27:08Z</time>
      </trkpt>
      <trkpt lat="62.632595741664" lon="17.97436680397">
        <ele>87.2</ele>
        <time>2017-12-11T18:27:09Z</time>
      </trkpt>
      <trkpt lat="62.632573613448" lon="17.974341909727">
        <ele>87.2</ele>
        <time>2017-12-11T18:27:10Z</time>
      </trkpt>
      <trkpt lat="62.632548803024" lon="17.974320368244">
        <ele>87.2</ele>
        <time>2017-12-11T18:27:11Z</time>
      </trkpt>
      <trkpt lat="62.632517622356" lon="17.974296815105">
        <ele>87.2</ele>
        <time>2017-12-11T18:27:12Z</time>
      </trkpt>
      <trkpt lat="62.632492225199" lon="17.974271417948">
        <ele>87.2</ele>
        <time>2017-12-11T18:27:13Z</time>
      </trkpt>
      <trkpt lat="62.632466828042" lon="17.974240488737">
        <ele>87.2</ele>
        <time>2017-12-11T18:27:14Z</time>
      </trkpt>
      <trkpt lat="62.632453668459" lon="17.974212409372">
        <ele>87.2</ele>
        <time>2017-12-11T18:27:15Z</time>
      </trkpt>
      <trkpt lat="62.63243095351" lon="17.974186760758">
        <ele>87.2</ele>
        <time>2017-12-11T18:27:16Z</time>
      </trkpt>
      <trkpt lat="62.632407819466" lon="17.974162537067">
        <ele>87.2</ele>
        <time>2017-12-11T18:27:17Z</time>
      </trkpt>
      <trkpt lat="62.632384685422" lon="17.974134960616">
        <ele>87.2</ele>
        <time>2017-12-11T18:27:18Z</time>
      </trkpt>
      <trkpt lat="62.63235886917" lon="17.974105875423">
        <ele>87.2</ele>
        <time>2017-12-11T18:27:19Z</time>
      </trkpt>
      <trkpt lat="62.632328107597" lon="17.974075365307">
        <ele>87.2</ele>
        <time>2017-12-11T18:27:20Z</time>
      </trkpt>
      <trkpt lat="62.632301620793" lon="17.974050219607">
        <ele>87.2</ele>
        <time>2017-12-11T18:27:21Z</time>
      </trkpt>
      <trkpt lat="62.632277397102" lon="17.974030773599">
        <ele>87.2</ele>
        <time>2017-12-11T18:27:22Z</time>
      </trkpt>
      <trkpt lat="62.632251748488" lon="17.974011914324">
        <ele>87.2</ele>
        <time>2017-12-11T18:27:23Z</time>
      </trkpt>
      <trkpt lat="62.632220400182" lon="17.973982577674">
        <ele>87.2</ele>
        <time>2017-12-11T18:27:24Z</time>
      </trkpt>
      <trkpt lat="62.632195925034" lon="17.973953073386">
        <ele>87.2</ele>
        <time>2017-12-11T18:27:25Z</time>
      </trkpt>
      <trkpt lat="62.632169605868" lon="17.973923317641">
        <ele>87.2</ele>
        <time>2017-12-11T18:27:26Z</time>
      </trkpt>
      <trkpt lat="62.63214429253" lon="17.973895573552">
        <ele>87.2</ele>
        <time>2017-12-11T18:27:27Z</time>
      </trkpt>
      <trkpt lat="62.632119817382" lon="17.973870092576">
        <ele>87</ele>
        <time>2017-12-11T18:27:28Z</time>
      </trkpt>
      <trkpt lat="62.632093665854" lon="17.973838325175">
        <ele>87</ele>
        <time>2017-12-11T18:27:29Z</time>
      </trkpt>
      <trkpt lat="62.632070867086" lon="17.973808317973">
        <ele>87</ele>
        <time>2017-12-11T18:27:30Z</time>
      </trkpt>
      <trkpt lat="62.632048655051" lon="17.973777891676">
        <ele>87</ele>
        <time>2017-12-11T18:27:31Z</time>
      </trkpt>
      <trkpt lat="62.632027113568" lon="17.973744699352">
        <ele>87</ele>
        <time>2017-12-11T18:27:32Z</time>
      </trkpt>
      <trkpt lat="62.632011271777" lon="17.97371217758">
        <ele>87</ele>
        <time>2017-12-11T18:27:33Z</time>
      </trkpt>
      <trkpt lat="62.631998196013" lon="17.973673788478">
        <ele>87</ele>
        <time>2017-12-11T18:27:34Z</time>
      </trkpt>
      <trkpt lat="62.631975145788" lon="17.973644870923">
        <ele>87</ele>
        <time>2017-12-11T18:27:35Z</time>
      </trkpt>
      <trkpt lat="62.631949078079" lon="17.973616037187">
        <ele>87</ele>
        <time>2017-12-11T18:27:36Z</time>
      </trkpt>
      <trkpt lat="62.631923094189" lon="17.973590137116">
        <ele>86.8</ele>
        <time>2017-12-11T18:27:37Z</time>
      </trkpt>
      <trkpt lat="62.631899457231" lon="17.973563650312">
        <ele>86.8</ele>
        <time>2017-12-11T18:27:38Z</time>
      </trkpt>
      <trkpt lat="62.63187439535" lon="17.973533307834">
        <ele>86.8</ele>
        <time>2017-12-11T18:27:39Z</time>
      </trkpt>
      <trkpt lat="62.631849584926" lon="17.973503887365">
        <ele>86.8</ele>
        <time>2017-12-11T18:27:40Z</time>
      </trkpt>
      <trkpt lat="62.631823684855" lon="17.973471365593">
        <ele>86.8</ele>
        <time>2017-12-11T18:27:41Z</time>
      </trkpt>
      <trkpt lat="62.631798287698" lon="17.973437921812">
        <ele>86.8</ele>
        <time>2017-12-11T18:27:42Z</time>
      </trkpt>
      <trkpt lat="62.631774231645" lon="17.973412440836">
        <ele>86.8</ele>
        <time>2017-12-11T18:27:43Z</time>
      </trkpt>
      <trkpt lat="62.631748080117" lon="17.973376566304">
        <ele>86.8</ele>
        <time>2017-12-11T18:27:44Z</time>
      </trkpt>
      <trkpt lat="62.631727963557" lon="17.973343457799">
        <ele>86.8</ele>
        <time>2017-12-11T18:27:45Z</time>
      </trkpt>
      <trkpt lat="62.631707427902" lon="17.973307750905">
        <ele>86.8</ele>
        <time>2017-12-11T18:27:46Z</time>
      </trkpt>
      <trkpt lat="62.6316858026" lon="17.973272630744">
        <ele>86.8</ele>
        <time>2017-12-11T18:27:47Z</time>
      </trkpt>
      <trkpt lat="62.631663925841" lon="17.973233738728">
        <ele>86.8</ele>
        <time>2017-12-11T18:27:48Z</time>
      </trkpt>
      <trkpt lat="62.631640037426" lon="17.973182860595">
        <ele>86.8</ele>
        <time>2017-12-11T18:27:49Z</time>
      </trkpt>
      <trkpt lat="62.631615813735" lon="17.973127037141">
        <ele>86.6</ele>
        <time>2017-12-11T18:27:50Z</time>
      </trkpt>
      <trkpt lat="62.631588488741" lon="17.973078254483">
        <ele>86.6</ele>
        <time>2017-12-11T18:27:51Z</time>
      </trkpt>
      <trkpt lat="62.631565857611" lon="17.973028717454">
        <ele>86.4</ele>
        <time>2017-12-11T18:27:52Z</time>
      </trkpt>
      <trkpt lat="62.631545657232" lon="17.972987394687">
        <ele>86.2</ele>
        <time>2017-12-11T18:27:53Z</time>
      </trkpt>
      <trkpt lat="62.631521768817" lon="17.972935343088">
        <ele>86</ele>
        <time>2017-12-11T18:27:54Z</time>
      </trkpt>
      <trkpt lat="62.631496958393" lon="17.972887733896">
        <ele>86</ele>
        <time>2017-12-11T18:27:55Z</time>
      </trkpt>
      <trkpt lat="62.631473908168" lon="17.97283291627">
        <ele>85.8</ele>
        <time>2017-12-11T18:27:56Z</time>
      </trkpt>
      <trkpt lat="62.631451277038" lon="17.972780529395">
        <ele>85.6</ele>
        <time>2017-12-11T18:27:57Z</time>
      </trkpt>
      <trkpt lat="62.631430657564" lon="17.972728226339">
        <ele>85.4</ele>
        <time>2017-12-11T18:27:58Z</time>
      </trkpt>
      <trkpt lat="62.631407188244" lon="17.972675839464">
        <ele>85.4</ele>
        <time>2017-12-11T18:27:59Z</time>
      </trkpt>
      <trkpt lat="62.631384221838" lon="17.97263258886">
        <ele>85.4</ele>
        <time>2017-12-11T18:28:00Z</time>
      </trkpt>
      <trkpt lat="62.631361590708" lon="17.972585314944">
        <ele>85</ele>
        <time>2017-12-11T18:28:01Z</time>
      </trkpt>
      <trkpt lat="62.631339211035" lon="17.97253871158">
        <ele>85</ele>
        <time>2017-12-11T18:28:02Z</time>
      </trkpt>
      <trkpt lat="62.631318088647" lon="17.972494371329">
        <ele>84.8</ele>
        <time>2017-12-11T18:28:03Z</time>
      </trkpt>
      <trkpt lat="62.63129520606" lon="17.972437625866">
        <ele>84.6</ele>
        <time>2017-12-11T18:28:04Z</time>
      </trkpt>
      <trkpt lat="62.631276262966" lon="17.972384065525">
        <ele>84.6</ele>
        <time>2017-12-11T18:28:05Z</time>
      </trkpt>
      <trkpt lat="62.631256984596" lon="17.97233167865">
        <ele>84.4</ele>
        <time>2017-12-11T18:28:06Z</time>
      </trkpt>
      <trkpt lat="62.631239131149" lon="17.972275939015">
        <ele>84.2</ele>
        <time>2017-12-11T18:28:07Z</time>
      </trkpt>
      <trkpt lat="62.631223456996" lon="17.97222019938">
        <ele>84.2</ele>
        <time>2017-12-11T18:28:08Z</time>
      </trkpt>
      <trkpt lat="62.631209207766" lon="17.972165130297">
        <ele>84</ele>
        <time>2017-12-11T18:28:09Z</time>
      </trkpt>
      <trkpt lat="62.631191354319" lon="17.97210704373">
        <ele>83.8</ele>
        <time>2017-12-11T18:28:10Z</time>
      </trkpt>
      <trkpt lat="62.631172243587" lon="17.972050382086">
        <ele>83.6</ele>
        <time>2017-12-11T18:28:11Z</time>
      </trkpt>
      <trkpt lat="62.631155563606" lon="17.971989445673">
        <ele>83.4</ele>
        <time>2017-12-11T18:28:12Z</time>
      </trkpt>
      <trkpt lat="62.631137961616" lon="17.971935717694">
        <ele>83.2</ele>
        <time>2017-12-11T18:28:13Z</time>
      </trkpt>
      <trkpt lat="62.631120108169" lon="17.971869416865">
        <ele>83</ele>
        <time>2017-12-11T18:28:14Z</time>
      </trkpt>
      <trkpt lat="62.631109630794" lon="17.971814431601">
        <ele>82.8</ele>
        <time>2017-12-11T18:28:15Z</time>
      </trkpt>
      <trkpt lat="62.631092531718" lon="17.971747711677">
        <ele>82.8</ele>
        <time>2017-12-11T18:28:16Z</time>
      </trkpt>
      <trkpt lat="62.631080294144" lon="17.971683673961">
        <ele>82.6</ele>
        <time>2017-12-11T18:28:17Z</time>
      </trkpt>
      <trkpt lat="62.631065206724" lon="17.971619133331">
        <ele>82.6</ele>
        <time>2017-12-11T18:28:18Z</time>
      </trkpt>
      <trkpt lat="62.631049029657" lon="17.971545288792">
        <ele>82.4</ele>
        <time>2017-12-11T18:28:19Z</time>
      </trkpt>
      <trkpt lat="62.631034445151" lon="17.971480245248">
        <ele>82.2</ele>
        <time>2017-12-11T18:28:20Z</time>
      </trkpt>
      <trkpt lat="62.631023716319" lon="17.971416626627">
        <ele>82.2</ele>
        <time>2017-12-11T18:28:21Z</time>
      </trkpt>
      <trkpt lat="62.63101105965" lon="17.971345631934">
        <ele>82</ele>
        <time>2017-12-11T18:28:22Z</time>
      </trkpt>
      <trkpt lat="62.631000498456" lon="17.971291065765">
        <ele>82</ele>
        <time>2017-12-11T18:28:23Z</time>
      </trkpt>
      <trkpt lat="62.630987757968" lon="17.971216969769">
        <ele>81.8</ele>
        <time>2017-12-11T18:28:24Z</time>
      </trkpt>
      <trkpt lat="62.630975352756" lon="17.971147232361">
        <ele>81.8</ele>
        <time>2017-12-11T18:28:25Z</time>
      </trkpt>
      <trkpt lat="62.630962025535" lon="17.971083278464">
        <ele>81.6</ele>
        <time>2017-12-11T18:28:26Z</time>
      </trkpt>
      <trkpt lat="62.630952051074" lon="17.971011026486">
        <ele>81.6</ele>
        <time>2017-12-11T18:28:27Z</time>
      </trkpt>
      <trkpt lat="62.630940903147" lon="17.970944641838">
        <ele>81.6</ele>
        <time>2017-12-11T18:28:28Z</time>
      </trkpt>
      <trkpt lat="62.630932018333" lon="17.970879346837">
        <ele>81.4</ele>
        <time>2017-12-11T18:28:29Z</time>
      </trkpt>
      <trkpt lat="62.630922295329" lon="17.970808352144">
        <ele>81.4</ele>
        <time>2017-12-11T18:28:30Z</time>
      </trkpt>
      <trkpt lat="62.630912572325" lon="17.970733920872">
        <ele>81.4</ele>
        <time>2017-12-11T18:28:31Z</time>
      </trkpt>
      <trkpt lat="62.63090293314" lon="17.970666949491">
        <ele>81.2</ele>
        <time>2017-12-11T18:28:32Z</time>
      </trkpt>
      <trkpt lat="62.63089119848" lon="17.970602576499">
        <ele>81</ele>
        <time>2017-12-11T18:28:33Z</time>
      </trkpt>
      <trkpt lat="62.630880469648" lon="17.970533928738">
        <ele>80.8</ele>
        <time>2017-12-11T18:28:34Z</time>
      </trkpt>
      <trkpt lat="62.630870579006" lon="17.970476428904">
        <ele>80.6</ele>
        <time>2017-12-11T18:28:35Z</time>
      </trkpt>
      <trkpt lat="62.630862197106" lon="17.970410714808">
        <ele>80.4</ele>
        <time>2017-12-11T18:28:36Z</time>
      </trkpt>
      <trkpt lat="62.630854485758" lon="17.970354136983">
        <ele>80.4</ele>
        <time>2017-12-11T18:28:37Z</time>
      </trkpt>
      <trkpt lat="62.630842751098" lon="17.970280543901">
        <ele>80.2</ele>
        <time>2017-12-11T18:28:39Z</time>
      </trkpt>
      <trkpt lat="62.63084090708" lon="17.970250117604">
        <ele>80.2</ele>
        <time>2017-12-11T18:28:40Z</time>
      </trkpt>
      <trkpt lat="62.630839733614" lon="17.970231342148">
        <ele>80.2</ele>
        <time>2017-12-11T18:28:41Z</time>
      </trkpt>
      <trkpt lat="62.630843086374" lon="17.970198820376">
        <ele>80.2</ele>
        <time>2017-12-11T18:28:42Z</time>
      </trkpt>
      <trkpt lat="62.630849205161" lon="17.970176775979">
        <ele>80.2</ele>
        <time>2017-12-11T18:28:43Z</time>
      </trkpt>
      <trkpt lat="62.630854653396" lon="17.970161437102">
        <ele>80.2</ele>
        <time>2017-12-11T18:28:44Z</time>
      </trkpt>
      <trkpt lat="62.630861610373" lon="17.970157078514">
        <ele>80.2</ele>
        <time>2017-12-11T18:28:45Z</time>
      </trkpt>
      <trkpt lat="62.630867812979" lon="17.970162945844">
        <ele>80</ele>
        <time>2017-12-11T18:28:46Z</time>
      </trkpt>
      <trkpt lat="62.630874769956" lon="17.970165460414">
        <ele>80</ele>
        <time>2017-12-11T18:28:47Z</time>
      </trkpt>
      <trkpt lat="62.630877452164" lon="17.970168729355">
        <ele>80</ele>
        <time>2017-12-11T18:28:48Z</time>
      </trkpt>
      <trkpt lat="62.630878122716" lon="17.970172165934">
        <ele>80</ele>
        <time>2017-12-11T18:28:49Z</time>
      </trkpt>
      <trkpt lat="62.630875440508" lon="17.970187756268">
        <ele>80</ele>
        <time>2017-12-11T18:28:50Z</time>
      </trkpt>
      <trkpt lat="62.631209962137" lon="17.96998139389">
        <ele>79.2</ele>
        <time>2017-12-11T18:30:58Z</time>
      </trkpt>
      <trkpt lat="62.631242148633" lon="17.969967396117">
        <ele>79.2</ele>
        <time>2017-12-11T18:30:59Z</time>
      </trkpt>
      <trkpt lat="62.631273245482" lon="17.969950632317">
        <ele>79.2</ele>
        <time>2017-12-11T18:31:00Z</time>
      </trkpt>
      <trkpt lat="62.631303252684" lon="17.969935712535">
        <ele>79.2</ele>
        <time>2017-12-11T18:31:01Z</time>
      </trkpt>
      <trkpt lat="62.631330326221" lon="17.969920122201">
        <ele>79.2</ele>
        <time>2017-12-11T18:31:02Z</time>
      </trkpt>
      <trkpt lat="62.631361255432" lon="17.969903526039">
        <ele>79</ele>
        <time>2017-12-11T18:31:03Z</time>
      </trkpt>
      <trkpt lat="62.631394699213" lon="17.969886929877">
        <ele>79</ele>
        <time>2017-12-11T18:31:04Z</time>
      </trkpt>
      <trkpt lat="62.631423532949" lon="17.969875111398">
        <ele>78.8</ele>
        <time>2017-12-11T18:31:05Z</time>
      </trkpt>
      <trkpt lat="62.631448511011" lon="17.969864466385">
        <ele>78.8</ele>
        <time>2017-12-11T18:31:06Z</time>
      </trkpt>
      <trkpt lat="62.631488911769" lon="17.969842841083">
        <ele>78.8</ele>
        <time>2017-12-11T18:31:07Z</time>
      </trkpt>
      <trkpt lat="62.631518583695" lon="17.969826412559">
        <ele>78.6</ele>
        <time>2017-12-11T18:31:08Z</time>
      </trkpt>
      <trkpt lat="62.631550602553" lon="17.969806798913">
        <ele>78.6</ele>
        <time>2017-12-11T18:31:09Z</time>
      </trkpt>
      <trkpt lat="62.631578849556" lon="17.969787436724">
        <ele>78.6</ele>
        <time>2017-12-11T18:31:10Z</time>
      </trkpt>
      <trkpt lat="62.631610784595" lon="17.969767403983">
        <ele>78.6</ele>
        <time>2017-12-11T18:31:11Z</time>
      </trkpt>
      <trkpt lat="62.631642635815" lon="17.969741587731">
        <ele>78.6</ele>
        <time>2017-12-11T18:31:12Z</time>
      </trkpt>
      <trkpt lat="62.63167071518" lon="17.96971484947">
        <ele>78.4</ele>
        <time>2017-12-11T18:31:13Z</time>
      </trkpt>
      <trkpt lat="62.631699968011" lon="17.969677717653">
        <ele>78.4</ele>
        <time>2017-12-11T18:31:14Z</time>
      </trkpt>
      <trkpt lat="62.631730645765" lon="17.969639496189">
        <ele>78.2</ele>
        <time>2017-12-11T18:31:15Z</time>
      </trkpt>
      <trkpt lat="62.631758389854" lon="17.96960253201">
        <ele>78.2</ele>
        <time>2017-12-11T18:31:16Z</time>
      </trkpt>
      <trkpt lat="62.631785044296" lon="17.969574285007">
        <ele>78</ele>
        <time>2017-12-11T18:31:17Z</time>
      </trkpt>
      <trkpt lat="62.631811614919" lon="17.969551150963">
        <ele>77.8</ele>
        <time>2017-12-11T18:31:18Z</time>
      </trkpt>
      <trkpt lat="62.631839610465" lon="17.969532794602">
        <ele>77.8</ele>
        <time>2017-12-11T18:31:19Z</time>
      </trkpt>
      <trkpt lat="62.631866935459" lon="17.969530699127">
        <ele>77.6</ele>
        <time>2017-12-11T18:31:20Z</time>
      </trkpt>
      <trkpt lat="62.63189283553" lon="17.969534303344">
        <ele>77.6</ele>
        <time>2017-12-11T18:31:21Z</time>
      </trkpt>
      <trkpt lat="62.631919909067" lon="17.969536566457">
        <ele>77.6</ele>
        <time>2017-12-11T18:31:22Z</time>
      </trkpt>
      <trkpt lat="62.631942875473" lon="17.969537404647">
        <ele>77.6</ele>
        <time>2017-12-11T18:31:23Z</time>
      </trkpt>
      <trkpt lat="62.631971038657" lon="17.96953966776">
        <ele>77.6</ele>
        <time>2017-12-11T18:31:24Z</time>
      </trkpt>
      <trkpt lat="62.631995849081" lon="17.969541176502">
        <ele>77.8</ele>
        <time>2017-12-11T18:31:25Z</time>
      </trkpt>
      <trkpt lat="62.632022419704" lon="17.969540422131">
        <ele>77.8</ele>
        <time>2017-12-11T18:31:26Z</time>
      </trkpt>
      <trkpt lat="62.63204873887" lon="17.969539751579">
        <ele>77.8</ele>
        <time>2017-12-11T18:31:27Z</time>
      </trkpt>
      <trkpt lat="62.632073381656" lon="17.969536650276">
        <ele>77.8</ele>
        <time>2017-12-11T18:31:28Z</time>
      </trkpt>
      <trkpt lat="62.632099533184" lon="17.96952960948">
        <ele>78</ele>
        <time>2017-12-11T18:31:29Z</time>
      </trkpt>
      <trkpt lat="62.632129875662" lon="17.96952541853">
        <ele>78.2</ele>
        <time>2017-12-11T18:31:30Z</time>
      </trkpt>
      <trkpt lat="62.632157200656" lon="17.969522736322">
        <ele>78</ele>
        <time>2017-12-11T18:31:31Z</time>
      </trkpt>
      <trkpt lat="62.632183268365" lon="17.969511839852">
        <ele>78.2</ele>
        <time>2017-12-11T18:31:32Z</time>
      </trkpt>
      <trkpt lat="62.632210593359" lon="17.969504631418">
        <ele>78.2</ele>
        <time>2017-12-11T18:31:33Z</time>
      </trkpt>
      <trkpt lat="62.632240516742" lon="17.969495830423">
        <ele>78.2</ele>
        <time>2017-12-11T18:31:34Z</time>
      </trkpt>
      <trkpt lat="62.632268260831" lon="17.969490549826">
        <ele>78.2</ele>
        <time>2017-12-11T18:31:35Z</time>
      </trkpt>
      <trkpt lat="62.632298435671" lon="17.969489711636">
        <ele>78.2</ele>
        <time>2017-12-11T18:31:36Z</time>
      </trkpt>
      <trkpt lat="62.632325257751" lon="17.969485939781">
        <ele>78.2</ele>
        <time>2017-12-11T18:31:37Z</time>
      </trkpt>
      <trkpt lat="62.63235216365" lon="17.969484011944">
        <ele>78.2</ele>
        <time>2017-12-11T18:31:38Z</time>
      </trkpt>
      <trkpt lat="62.632381835576" lon="17.969484682496">
        <ele>78.2</ele>
        <time>2017-12-11T18:31:39Z</time>
      </trkpt>
      <trkpt lat="62.632405137258" lon="17.969490717464">
        <ele>78.2</ele>
        <time>2017-12-11T18:31:40Z</time>
      </trkpt>
      <trkpt lat="62.632433887175" lon="17.9694944055">
        <ele>78.2</ele>
        <time>2017-12-11T18:31:41Z</time>
      </trkpt>
      <trkpt lat="62.632460709255" lon="17.969497255346">
        <ele>78.2</ele>
        <time>2017-12-11T18:31:42Z</time>
      </trkpt>
      <trkpt lat="62.632486944602" lon="17.969497003889">
        <ele>78.2</ele>
        <time>2017-12-11T18:31:43Z</time>
      </trkpt>
      <trkpt lat="62.632515945976" lon="17.969500691925">
        <ele>78.2</ele>
        <time>2017-12-11T18:31:44Z</time>
      </trkpt>
      <trkpt lat="62.632542097504" lon="17.969503122676">
        <ele>78.2</ele>
        <time>2017-12-11T18:31:45Z</time>
      </trkpt>
      <trkpt lat="62.632567662299" lon="17.969509912015">
        <ele>78.2</ele>
        <time>2017-12-11T18:31:46Z</time>
      </trkpt>
      <trkpt lat="62.632592472723" lon="17.969514354422">
        <ele>78.2</ele>
        <time>2017-12-11T18:31:47Z</time>
      </trkpt>
      <trkpt lat="62.632615942043" lon="17.969518210096">
        <ele>78.2</ele>
        <time>2017-12-11T18:31:48Z</time>
      </trkpt>
      <trkpt lat="62.632643518494" lon="17.969523239236">
        <ele>78.2</ele>
        <time>2017-12-11T18:31:49Z</time>
      </trkpt>
      <trkpt lat="62.632668915651" lon="17.969526089082">
        <ele>78.2</ele>
        <time>2017-12-11T18:31:50Z</time>
      </trkpt>
      <trkpt lat="62.632693474618" lon="17.969534303344">
        <ele>78.2</ele>
        <time>2017-12-11T18:31:51Z</time>
      </trkpt>
      <trkpt lat="62.632717865947" lon="17.96954302052">
        <ele>78.4</ele>
        <time>2017-12-11T18:31:52Z</time>
      </trkpt>
      <trkpt lat="62.632739155973" lon="17.969546205642">
        <ele>78.4</ele>
        <time>2017-12-11T18:31:53Z</time>
      </trkpt>
      <trkpt lat="62.632766145691" lon="17.969553330257">
        <ele>78.4</ele>
        <time>2017-12-11T18:31:54Z</time>
      </trkpt>
      <trkpt lat="62.632789112097" lon="17.969557605026">
        <ele>78.4</ele>
        <time>2017-12-11T18:31:55Z</time>
      </trkpt>
      <trkpt lat="62.632814257797" lon="17.969563807632">
        <ele>78.4</ele>
        <time>2017-12-11T18:31:56Z</time>
      </trkpt>
      <trkpt lat="62.632841918067" lon="17.969568585315">
        <ele>78.4</ele>
        <time>2017-12-11T18:31:57Z</time>
      </trkpt>
      <trkpt lat="62.632869494518" lon="17.969574536464">
        <ele>78.6</ele>
        <time>2017-12-11T18:31:58Z</time>
      </trkpt>
      <trkpt lat="62.632895981322" lon="17.969575039378">
        <ele>78.6</ele>
        <time>2017-12-11T18:31:59Z</time>
      </trkpt>
      <trkpt lat="62.632925737067" lon="17.969576045206">
        <ele>78.8</ele>
        <time>2017-12-11T18:32:00Z</time>
      </trkpt>
      <trkpt lat="62.63295398407" lon="17.969582499269">
        <ele>78.8</ele>
        <time>2017-12-11T18:32:01Z</time>
      </trkpt>
      <trkpt lat="62.632980722331" lon="17.969588366599">
        <ele>78.8</ele>
        <time>2017-12-11T18:32:02Z</time>
      </trkpt>
      <trkpt lat="62.633008717877" lon="17.969598927793">
        <ele>78.8</ele>
        <time>2017-12-11T18:32:03Z</time>
      </trkpt>
      <trkpt lat="62.633038138346" lon="17.969612338833">
        <ele>79</ele>
        <time>2017-12-11T18:32:04Z</time>
      </trkpt>
      <trkpt lat="62.633062194399" lon="17.969621056009">
        <ele>79</ele>
        <time>2017-12-11T18:32:05Z</time>
      </trkpt>
      <trkpt lat="62.633090357583" lon="17.969629689366">
        <ele>79</ele>
        <time>2017-12-11T18:32:06Z</time>
      </trkpt>
      <trkpt lat="62.633117598758" lon="17.969635640515">
        <ele>79</ele>
        <time>2017-12-11T18:32:07Z</time>
      </trkpt>
      <trkpt lat="62.633144337019" lon="17.969639244732">
        <ele>79</ele>
        <time>2017-12-11T18:32:08Z</time>
      </trkpt>
      <trkpt lat="62.633175098592" lon="17.969648716279">
        <ele>79.2</ele>
        <time>2017-12-11T18:32:09Z</time>
      </trkpt>
      <trkpt lat="62.633201417758" lon="17.969655589437">
        <ele>79</ele>
        <time>2017-12-11T18:32:10Z</time>
      </trkpt>
      <trkpt lat="62.633229580942" lon="17.969663468423">
        <ele>79</ele>
        <time>2017-12-11T18:32:11Z</time>
      </trkpt>
      <trkpt lat="62.63325992342" lon="17.969674029617">
        <ele>79.2</ele>
        <time>2017-12-11T18:32:12Z</time>
      </trkpt>
      <trkpt lat="62.633284901482" lon="17.969684590811">
        <ele>79.2</ele>
        <time>2017-12-11T18:32:13Z</time>
      </trkpt>
      <trkpt lat="62.633313986675" lon="17.969708646864">
        <ele>79.2</ele>
        <time>2017-12-11T18:32:14Z</time>
      </trkpt>
      <trkpt lat="62.63333452233" lon="17.969746868328">
        <ele>79.2</ele>
        <time>2017-12-11T18:32:15Z</time>
      </trkpt>
      <trkpt lat="62.633349358293" lon="17.96979699209">
        <ele>79.4</ele>
        <time>2017-12-11T18:32:16Z</time>
      </trkpt>
      <trkpt lat="62.633359919487" lon="17.969845774748">
        <ele>79.4</ele>
        <time>2017-12-11T18:32:17Z</time>
      </trkpt>
      <trkpt lat="62.633366457369" lon="17.969899502727">
        <ele>79.4</ele>
        <time>2017-12-11T18:32:18Z</time>
      </trkpt>
      <trkpt lat="62.633371570328" lon="17.969963624262">
        <ele>79.6</ele>
        <time>2017-12-11T18:32:19Z</time>
      </trkpt>
      <trkpt lat="62.633374923088" lon="17.970022716657">
        <ele>79.6</ele>
        <time>2017-12-11T18:32:20Z</time>
      </trkpt>
      <trkpt lat="62.633378275848" lon="17.970076276998">
        <ele>79.8</ele>
        <time>2017-12-11T18:32:21Z</time>
      </trkpt>
      <trkpt lat="62.633380790418" lon="17.970134615022">
        <ele>80</ele>
        <time>2017-12-11T18:32:22Z</time>
      </trkpt>
      <trkpt lat="62.63338146097" lon="17.97018507406">
        <ele>80.2</ele>
        <time>2017-12-11T18:32:23Z</time>
      </trkpt>
      <trkpt lat="62.633383640264" lon="17.970248860319">
        <ele>80.2</ele>
        <time>2017-12-11T18:32:24Z</time>
      </trkpt>
      <trkpt lat="62.633386825386" lon="17.970307701257">
        <ele>80.2</ele>
        <time>2017-12-11T18:32:25Z</time>
      </trkpt>
      <trkpt lat="62.63338900468" lon="17.970368386213">
        <ele>80.4</ele>
        <time>2017-12-11T18:32:26Z</time>
      </trkpt>
      <trkpt lat="62.63339151925" lon="17.970423203839">
        <ele>80.6</ele>
        <time>2017-12-11T18:32:27Z</time>
      </trkpt>
      <trkpt lat="62.633394955829" lon="17.970478859655">
        <ele>80.6</ele>
        <time>2017-12-11T18:32:28Z</time>
      </trkpt>
      <trkpt lat="62.633398476227" lon="17.970535856575">
        <ele>80.8</ele>
        <time>2017-12-11T18:32:29Z</time>
      </trkpt>
      <trkpt lat="62.63340157753" lon="17.970596290074">
        <ele>80.8</ele>
        <time>2017-12-11T18:32:30Z</time>
      </trkpt>
      <trkpt lat="62.633401745168" lon="17.970655717745">
        <ele>81</ele>
        <time>2017-12-11T18:32:31Z</time>
      </trkpt>
      <trkpt lat="62.633403756824" lon="17.970709529543">
        <ele>81</ele>
        <time>2017-12-11T18:32:32Z</time>
      </trkpt>
      <trkpt lat="62.633407947774" lon="17.970771136508">
        <ele>81.2</ele>
        <time>2017-12-11T18:32:33Z</time>
      </trkpt>
      <trkpt lat="62.633410210887" lon="17.970835090405">
        <ele>81.4</ele>
        <time>2017-12-11T18:32:34Z</time>
      </trkpt>
      <trkpt lat="62.633411216715" lon="17.970890075669">
        <ele>81.6</ele>
        <time>2017-12-11T18:32:35Z</time>
      </trkpt>
      <trkpt lat="62.633412474" lon="17.97095620886">
        <ele>81.6</ele>
        <time>2017-12-11T18:32:36Z</time>
      </trkpt>
      <trkpt lat="62.633412976914" lon="17.971013373418">
        <ele>81.6</ele>
        <time>2017-12-11T18:32:37Z</time>
      </trkpt>
      <trkpt lat="62.633411216715" lon="17.971068693958">
        <ele>81.6</ele>
        <time>2017-12-11T18:32:38Z</time>
      </trkpt>
      <trkpt lat="62.633411049077" lon="17.971132647855">
        <ele>81.8</ele>
        <time>2017-12-11T18:32:39Z</time>
      </trkpt>
      <trkpt lat="62.633410294706" lon="17.971186208196">
        <ele>81.8</ele>
        <time>2017-12-11T18:32:40Z</time>
      </trkpt>
      <trkpt lat="62.633409540335" lon="17.971246725514">
        <ele>82</ele>
        <time>2017-12-11T18:32:41Z</time>
      </trkpt>
      <trkpt lat="62.633409707973" lon="17.971312523429">
        <ele>82</ele>
        <time>2017-12-11T18:32:42Z</time>
      </trkpt>
      <trkpt lat="62.633407947774" lon="17.971369520349">
        <ele>82.2</ele>
        <time>2017-12-11T18:32:43Z</time>
      </trkpt>
      <trkpt lat="62.633402499539" lon="17.971432971332">
        <ele>82.2</ele>
        <time>2017-12-11T18:32:44Z</time>
      </trkpt>
      <trkpt lat="62.633400404064" lon="17.971489046243">
        <ele>82.4</ele>
        <time>2017-12-11T18:32:45Z</time>
      </trkpt>
      <trkpt lat="62.633398643865" lon="17.971552078131">
        <ele>82.4</ele>
        <time>2017-12-11T18:32:46Z</time>
      </trkpt>
      <trkpt lat="62.633398979141" lon="17.971608572137">
        <ele>82.6</ele>
        <time>2017-12-11T18:32:47Z</time>
      </trkpt>
      <trkpt lat="62.633395542562" lon="17.971668167446">
        <ele>82.6</ele>
        <time>2017-12-11T18:32:48Z</time>
      </trkpt>
      <trkpt lat="62.63338816649" lon="17.971730947877">
        <ele>82.6</ele>
        <time>2017-12-11T18:32:49Z</time>
      </trkpt>
      <trkpt lat="62.633384478454" lon="17.971791632833">
        <ele>82.6</ele>
        <time>2017-12-11T18:32:50Z</time>
      </trkpt>
      <trkpt lat="62.633379868409" lon="17.971855670549">
        <ele>82.8</ele>
        <time>2017-12-11T18:32:51Z</time>
      </trkpt>
      <trkpt lat="62.633371821785" lon="17.971915265858">
        <ele>82.8</ele>
        <time>2017-12-11T18:32:52Z</time>
      </trkpt>
      <trkpt lat="62.633369391034" lon="17.971968239466">
        <ele>83</ele>
        <time>2017-12-11T18:32:53Z</time>
      </trkpt>
      <trkpt lat="62.633364361894" lon="17.972042670738">
        <ele>83.2</ele>
        <time>2017-12-11T18:32:54Z</time>
      </trkpt>
      <trkpt lat="62.633358913659" lon="17.972103104237">
        <ele>83.2</ele>
        <time>2017-12-11T18:32:55Z</time>
      </trkpt>
      <trkpt lat="62.633351705225" lon="17.972166974315">
        <ele>83.4</ele>
        <time>2017-12-11T18:32:56Z</time>
      </trkpt>
      <trkpt lat="62.63334290423" lon="17.972230341479">
        <ele>83.4</ele>
        <time>2017-12-11T18:32:57Z</time>
      </trkpt>
      <trkpt lat="62.633334773787" lon="17.972283650363">
        <ele>83.6</ele>
        <time>2017-12-11T18:32:58Z</time>
      </trkpt>
      <trkpt lat="62.63332697862" lon="17.972340312007">
        <ele>83.6</ele>
        <time>2017-12-11T18:32:59Z</time>
      </trkpt>
      <trkpt lat="62.63331692034" lon="17.972405271732">
        <ele>83.8</ele>
        <time>2017-12-11T18:33:00Z</time>
      </trkpt>
      <trkpt lat="62.633307616431" lon="17.972465034679">
        <ele>83.8</ele>
        <time>2017-12-11T18:33:01Z</time>
      </trkpt>
      <trkpt lat="62.633298731617" lon="17.972526054911">
        <ele>84</ele>
        <time>2017-12-11T18:33:02Z</time>
      </trkpt>
      <trkpt lat="62.63329177464" lon="17.972575843397">
        <ele>84.2</ele>
        <time>2017-12-11T18:33:03Z</time>
      </trkpt>
      <trkpt lat="62.633278698876" lon="17.97263594162">
        <ele>84.2</ele>
        <time>2017-12-11T18:33:04Z</time>
      </trkpt>
      <trkpt lat="62.633269311148" lon="17.972694028187">
        <ele>84.2</ele>
        <time>2017-12-11T18:33:05Z</time>
      </trkpt>
      <trkpt lat="62.633259588144" lon="17.972759826102">
        <ele>84.4</ele>
        <time>2017-12-11T18:33:06Z</time>
      </trkpt>
      <trkpt lat="62.633249697502" lon="17.972824366732">
        <ele>84.4</ele>
        <time>2017-12-11T18:33:07Z</time>
      </trkpt>
      <trkpt lat="62.633237879023" lon="17.972882956213">
        <ele>84.4</ele>
        <time>2017-12-11T18:33:08Z</time>
      </trkpt>
      <trkpt lat="62.633225473811" lon="17.972947245386">
        <ele>84.4</ele>
        <time>2017-12-11T18:33:09Z</time>
      </trkpt>
      <trkpt lat="62.633216002264" lon="17.973008517075">
        <ele>84.6</ele>
        <time>2017-12-11T18:33:10Z</time>
      </trkpt>
      <trkpt lat="62.633210051115" lon="17.973071381325">
        <ele>84.8</ele>
        <time>2017-12-11T18:33:11Z</time>
      </trkpt>
      <trkpt lat="62.633199322283" lon="17.97313382648">
        <ele>84.8</ele>
        <time>2017-12-11T18:33:12Z</time>
      </trkpt>
      <trkpt lat="62.633189766917" lon="17.97319166159">
        <ele>84.8</ele>
        <time>2017-12-11T18:33:13Z</time>
      </trkpt>
      <trkpt lat="62.633176691153" lon="17.973253184736">
        <ele>85</ele>
        <time>2017-12-11T18:33:14Z</time>
      </trkpt>
      <trkpt lat="62.633165627045" lon="17.973312863864">
        <ele>85.2</ele>
        <time>2017-12-11T18:33:15Z</time>
      </trkpt>
      <trkpt lat="62.633154143842" lon="17.973368352042">
        <ele>85.4</ele>
        <time>2017-12-11T18:33:16Z</time>
      </trkpt>
      <trkpt lat="62.633142157725" lon="17.973425768057">
        <ele>85.4</ele>
        <time>2017-12-11T18:33:17Z</time>
      </trkpt>
      <trkpt lat="62.633132350902" lon="17.973486955927">
        <ele>85.6</ele>
        <time>2017-12-11T18:33:18Z</time>
      </trkpt>
      <trkpt lat="62.6331191075" lon="17.973549652539">
        <ele>85.8</ele>
        <time>2017-12-11T18:33:19Z</time>
      </trkpt>
      <trkpt lat="62.633105445003" lon="17.973610337495">
        <ele>85.6</ele>
        <time>2017-12-11T18:33:20Z</time>
      </trkpt>
      <trkpt lat="62.633095051447" lon="17.973670351899">
        <ele>85.8</ele>
        <time>2017-12-11T18:33:21Z</time>
      </trkpt>
      <trkpt lat="62.633079880208" lon="17.973725672439">
        <ele>85.8</ele>
        <time>2017-12-11T18:33:22Z</time>
      </trkpt>
      <trkpt lat="62.633066469168" lon="17.973773784545">
        <ele>86</ele>
        <time>2017-12-11T18:33:23Z</time>
      </trkpt>
      <trkpt lat="62.633052219938" lon="17.973840336831">
        <ele>86</ele>
        <time>2017-12-11T18:33:24Z</time>
      </trkpt>
      <trkpt lat="62.633036461966" lon="17.973900602692">
        <ele>86</ele>
        <time>2017-12-11T18:33:25Z</time>
      </trkpt>
      <trkpt lat="62.633022045098" lon="17.973963550761">
        <ele>86.2</ele>
        <time>2017-12-11T18:33:26Z</time>
      </trkpt>
      <trkpt lat="62.633006957678" lon="17.974026079735">
        <ele>86.4</ele>
        <time>2017-12-11T18:33:27Z</time>
      </trkpt>
      <trkpt lat="62.632993798095" lon="17.974082741379">
        <ele>86.4</ele>
        <time>2017-12-11T18:33:28Z</time>
      </trkpt>
      <trkpt lat="62.632978626856" lon="17.974139905937">
        <ele>86.4</ele>
        <time>2017-12-11T18:33:29Z</time>
      </trkpt>
      <trkpt lat="62.632962701246" lon="17.974205452395">
        <ele>86.6</ele>
        <time>2017-12-11T18:33:30Z</time>
      </trkpt>
      <trkpt lat="62.632949206387" lon="17.974261275849">
        <ele>86.6</ele>
        <time>2017-12-11T18:33:31Z</time>
      </trkpt>
      <trkpt lat="62.632935460071" lon="17.974319446235">
        <ele>86.8</ele>
        <time>2017-12-11T18:33:32Z</time>
      </trkpt>
      <trkpt lat="62.632922216669" lon="17.974375269689">
        <ele>86.8</ele>
        <time>2017-12-11T18:33:33Z</time>
      </trkpt>
      <trkpt lat="62.63290704543" lon="17.97443721193">
        <ele>86.8</ele>
        <time>2017-12-11T18:33:34Z</time>
      </trkpt>
      <trkpt lat="62.632892963838" lon="17.974493622117">
        <ele>86.8</ele>
        <time>2017-12-11T18:33:35Z</time>
      </trkpt>
      <trkpt lat="62.632863962464" lon="17.974518013446">
        <ele>87</ele>
        <time>2017-12-11T18:33:36Z</time>
      </trkpt>
      <trkpt lat="62.63283831385" lon="17.974536788902">
        <ele>87</ele>
        <time>2017-12-11T18:33:37Z</time>
      </trkpt>
      <trkpt lat="62.632810066847" lon="17.974543829698">
        <ele>86.8</ele>
        <time>2017-12-11T18:33:38Z</time>
      </trkpt>
      <trkpt lat="62.632781400749" lon="17.974541315128">
        <ele>86.8</ele>
        <time>2017-12-11T18:33:39Z</time>
      </trkpt>
      <trkpt lat="62.632755500678" lon="17.974521701482">
        <ele>86.8</ele>
        <time>2017-12-11T18:33:40Z</time>
      </trkpt>
      <trkpt lat="62.632726918399" lon="17.974498232162">
        <ele>86.8</ele>
        <time>2017-12-11T18:33:41Z</time>
      </trkpt>
      <trkpt lat="62.632703197622" lon="17.974471410082">
        <ele>86.8</ele>
        <time>2017-12-11T18:33:42Z</time>
      </trkpt>
      <trkpt lat="62.632677884284" lon="17.974453891911">
        <ele>87</ele>
        <time>2017-12-11T18:33:43Z</time>
      </trkpt>
      <trkpt lat="62.63265055929" lon="17.974420615768">
        <ele>87</ele>
        <time>2017-12-11T18:33:44Z</time>
      </trkpt>
      <trkpt lat="62.632627341427" lon="17.974400415389">
        <ele>87</ele>
        <time>2017-12-11T18:33:45Z</time>
      </trkpt>
      <trkpt lat="62.632603201555" lon="17.97438189139">
        <ele>87.2</ele>
        <time>2017-12-11T18:33:46Z</time>
      </trkpt>
      <trkpt lat="62.632575708923" lon="17.974363367391">
        <ele>87.2</ele>
        <time>2017-12-11T18:33:47Z</time>
      </trkpt>
      <trkpt lat="62.632548048653" lon="17.974341909727">
        <ele>87.2</ele>
        <time>2017-12-11T18:33:48Z</time>
      </trkpt>
      <trkpt lat="62.632520891297" lon="17.97431148343">
        <ele>87.2</ele>
        <time>2017-12-11T18:33:49Z</time>
      </trkpt>
      <trkpt lat="62.632494572131" lon="17.974280051305">
        <ele>87.2</ele>
        <time>2017-12-11T18:33:50Z</time>
      </trkpt>
      <trkpt lat="62.632471018992" lon="17.974250798474">
        <ele>87.2</ele>
        <time>2017-12-11T18:33:51Z</time>
      </trkpt>
      <trkpt lat="62.632442269075" lon="17.974229759905">
        <ele>87.2</ele>
        <time>2017-12-11T18:33:52Z</time>
      </trkpt>
      <trkpt lat="62.632418883574" lon="17.97420670968">
        <ele>87.2</ele>
        <time>2017-12-11T18:33:53Z</time>
      </trkpt>
      <trkpt lat="62.632390888028" lon="17.974177205392">
        <ele>87.2</ele>
        <time>2017-12-11T18:33:54Z</time>
      </trkpt>
      <trkpt lat="62.632364820319" lon="17.974149377484">
        <ele>87.2</ele>
        <time>2017-12-11T18:33:55Z</time>
      </trkpt>
      <trkpt lat="62.632341015723" lon="17.974115933703">
        <ele>87.2</ele>
        <time>2017-12-11T18:33:56Z</time>
      </trkpt>
      <trkpt lat="62.63231863605" lon="17.974081903189">
        <ele>87.2</ele>
        <time>2017-12-11T18:33:57Z</time>
      </trkpt>
      <trkpt lat="62.632294999092" lon="17.974058266231">
        <ele>87</ele>
        <time>2017-12-11T18:33:58Z</time>
      </trkpt>
      <trkpt lat="62.632265243347" lon="17.974029767771">
        <ele>87</ele>
        <time>2017-12-11T18:33:59Z</time>
      </trkpt>
      <trkpt lat="62.632234481774" lon="17.974002107501">
        <ele>87</ele>
        <time>2017-12-11T18:34:00Z</time>
      </trkpt>
      <trkpt lat="62.632205228943" lon="17.973972938489">
        <ele>87</ele>
        <time>2017-12-11T18:34:01Z</time>
      </trkpt>
      <trkpt lat="62.63217949651" lon="17.97394351802">
        <ele>86.8</ele>
        <time>2017-12-11T18:34:02Z</time>
      </trkpt>
      <trkpt lat="62.632153177344" lon="17.973917198854">
        <ele>86.8</ele>
        <time>2017-12-11T18:34:03Z</time>
      </trkpt>
      <trkpt lat="62.632123924513" lon="17.973884593263">
        <ele>86.8</ele>
        <time>2017-12-11T18:34:04Z</time>
      </trkpt>
      <trkpt lat="62.632101628659" lon="17.973859363744">
        <ele>86.8</ele>
        <time>2017-12-11T18:34:05Z</time>
      </trkpt>
      <trkpt lat="62.632075393312" lon="17.973831871112">
        <ele>86.8</ele>
        <time>2017-12-11T18:34:06Z</time>
      </trkpt>
      <trkpt lat="62.632049325603" lon="17.973803205014">
        <ele>86.8</ele>
        <time>2017-12-11T18:34:07Z</time>
      </trkpt>
      <trkpt lat="62.632026443016" lon="17.973775963839">
        <ele>86.8</ele>
        <time>2017-12-11T18:34:08Z</time>
      </trkpt>
      <trkpt lat="62.632002806058" lon="17.973746208094">
        <ele>86.8</ele>
        <time>2017-12-11T18:34:09Z</time>
      </trkpt>
      <trkpt lat="62.631984030602" lon="17.973708489544">
        <ele>86.8</ele>
        <time>2017-12-11T18:34:10Z</time>
      </trkpt>
      <trkpt lat="62.631962572938" lon="17.973680661636">
        <ele>86.8</ele>
        <time>2017-12-11T18:34:11Z</time>
      </trkpt>
      <trkpt lat="62.6319372596" lon="17.973649983882">
        <ele>86.8</ele>
        <time>2017-12-11T18:34:12Z</time>
      </trkpt>
      <trkpt lat="62.631916388669" lon="17.973623497078">
        <ele>86.8</ele>
        <time>2017-12-11T18:34:13Z</time>
      </trkpt>
      <trkpt lat="62.631890656236" lon="17.973595082437">
        <ele>86.8</ele>
        <time>2017-12-11T18:34:14Z</time>
      </trkpt>
      <trkpt lat="62.631866264907" lon="17.973568511814">
        <ele>86.8</ele>
        <time>2017-12-11T18:34:15Z</time>
      </trkpt>
      <trkpt lat="62.631841286845" lon="17.973537498784">
        <ele>86.8</ele>
        <time>2017-12-11T18:34:16Z</time>
      </trkpt>
      <trkpt lat="62.631818823353" lon="17.97351017379">
        <ele>86.8</ele>
        <time>2017-12-11T18:34:17Z</time>
      </trkpt>
      <trkpt lat="62.631793677653" lon="17.973482345882">
        <ele>86.6</ele>
        <time>2017-12-11T18:34:18Z</time>
      </trkpt>
      <trkpt lat="62.631766939392" lon="17.973453009232">
        <ele>86.8</ele>
        <time>2017-12-11T18:34:19Z</time>
      </trkpt>
      <trkpt lat="62.631742715701" lon="17.973423588763">
        <ele>86.6</ele>
        <time>2017-12-11T18:34:20Z</time>
      </trkpt>
      <trkpt lat="62.631720419847" lon="17.973388971516">
        <ele>86.6</ele>
        <time>2017-12-11T18:34:21Z</time>
      </trkpt>
      <trkpt lat="62.631697956355" lon="17.973350247138">
        <ele>86.6</ele>
        <time>2017-12-11T18:34:22Z</time>
      </trkpt>
      <trkpt lat="62.631678761804" lon="17.973313366778">
        <ele>86.6</ele>
        <time>2017-12-11T18:34:23Z</time>
      </trkpt>
      <trkpt lat="62.631655879217" lon="17.97326961326">
        <ele>86.6</ele>
        <time>2017-12-11T18:34:24Z</time>
      </trkpt>
      <trkpt lat="62.631635595019" lon="17.973233319633">
        <ele>86.4</ele>
        <time>2017-12-11T18:34:25Z</time>
      </trkpt>
      <trkpt lat="62.631613299165" lon="17.97318914702">
        <ele>86.6</ele>
        <time>2017-12-11T18:34:26Z</time>
      </trkpt>
      <trkpt lat="62.631590416578" lon="17.973147572796">
        <ele>86.4</ele>
        <time>2017-12-11T18:34:27Z</time>
      </trkpt>
      <trkpt lat="62.631568120724" lon="17.973106669124">
        <ele>86.4</ele>
        <time>2017-12-11T18:34:28Z</time>
      </trkpt>
      <trkpt lat="62.631546160146" lon="17.973057467371">
        <ele>86.2</ele>
        <time>2017-12-11T18:34:29Z</time>
      </trkpt>
      <trkpt lat="62.631525373034" lon="17.973003990849">
        <ele>86</ele>
        <time>2017-12-11T18:34:30Z</time>
      </trkpt>
      <trkpt lat="62.631506765216" lon="17.972955459648">
        <ele>85.8</ele>
        <time>2017-12-11T18:34:31Z</time>
      </trkpt>
      <trkpt lat="62.631485894285" lon="17.972902402221">
        <ele>85.8</ele>
        <time>2017-12-11T18:34:32Z</time>
      </trkpt>
      <trkpt lat="62.631470136313" lon="17.972855212124">
        <ele>85.6</ele>
        <time>2017-12-11T18:34:33Z</time>
      </trkpt>
      <trkpt lat="62.631450438848" lon="17.972794024254">
        <ele>85.4</ele>
        <time>2017-12-11T18:34:34Z</time>
      </trkpt>
      <trkpt lat="62.631428645908" lon="17.972740296275">
        <ele>85.4</ele>
        <time>2017-12-11T18:34:35Z</time>
      </trkpt>
      <trkpt lat="62.63140500895" lon="17.97268288026">
        <ele>85.2</ele>
        <time>2017-12-11T18:34:36Z</time>
      </trkpt>
      <trkpt lat="62.6313840542" lon="17.972620686562">
        <ele>85.2</ele>
        <time>2017-12-11T18:34:37Z</time>
      </trkpt>
      <trkpt lat="62.631363183269" lon="17.972570981895">
        <ele>85</ele>
        <time>2017-12-11T18:34:38Z</time>
      </trkpt>
      <trkpt lat="62.631336612646" lon="17.972517337735">
        <ele>84.8</ele>
        <time>2017-12-11T18:34:39Z</time>
      </trkpt>
      <trkpt lat="62.631314652068" lon="17.972460256996">
        <ele>84.6</ele>
        <time>2017-12-11T18:34:40Z</time>
      </trkpt>
      <trkpt lat="62.631296798621" lon="17.972406445198">
        <ele>84.4</ele>
        <time>2017-12-11T18:34:41Z</time>
      </trkpt>
      <trkpt lat="62.631274335129" lon="17.972351292296">
        <ele>84.2</ele>
        <time>2017-12-11T18:34:42Z</time>
      </trkpt>
      <trkpt lat="62.631254470026" lon="17.972297899593">
        <ele>84</ele>
        <time>2017-12-11T18:34:43Z</time>
      </trkpt>
      <trkpt lat="62.631233599095" lon="17.972237969008">
        <ele>83.6</ele>
        <time>2017-12-11T18:34:44Z</time>
      </trkpt>
      <trkpt lat="62.631214823639" lon="17.972172841645">
        <ele>83.4</ele>
        <time>2017-12-11T18:34:45Z</time>
      </trkpt>
      <trkpt lat="62.63119713783" lon="17.972109893576">
        <ele>83.4</ele>
        <time>2017-12-11T18:34:46Z</time>
      </trkpt>
      <trkpt lat="62.631175093433" lon="17.972054908312">
        <ele>83.2</ele>
        <time>2017-12-11T18:34:47Z</time>
      </trkpt>
      <trkpt lat="62.631155144511" lon="17.97199053532">
        <ele>83</ele>
        <time>2017-12-11T18:34:48Z</time>
      </trkpt>
      <trkpt lat="62.631138380711" lon="17.971926162328">
        <ele>83</ele>
        <time>2017-12-11T18:34:49Z</time>
      </trkpt>
      <trkpt lat="62.631121113997" lon="17.971864136268">
        <ele>82.8</ele>
        <time>2017-12-11T18:34:50Z</time>
      </trkpt>
      <trkpt lat="62.631103763464" lon="17.971794901774">
        <ele>82.6</ele>
        <time>2017-12-11T18:34:51Z</time>
      </trkpt>
      <trkpt lat="62.631089178958" lon="17.971730444963">
        <ele>82.4</ele>
        <time>2017-12-11T18:34:52Z</time>
      </trkpt>
      <trkpt lat="62.631076354651" lon="17.971671268749">
        <ele>82.4</ele>
        <time>2017-12-11T18:34:53Z</time>
      </trkpt>
      <trkpt lat="62.631060009946" lon="17.97159323326">
        <ele>82.2</ele>
        <time>2017-12-11T18:34:54Z</time>
      </trkpt>
      <trkpt lat="62.631046431268" lon="17.971530955743">
        <ele>82</ele>
        <time>2017-12-11T18:34:55Z</time>
      </trkpt>
      <trkpt lat="62.631028074907" lon="17.971458033213">
        <ele>82</ele>
        <time>2017-12-11T18:34:56Z</time>
      </trkpt>
      <trkpt lat="62.631012484573" lon="17.971391732384">
        <ele>82</ele>
        <time>2017-12-11T18:34:57Z</time>
      </trkpt>
      <trkpt lat="62.631004689406" lon="17.971331298885">
        <ele>82</ele>
        <time>2017-12-11T18:34:58Z</time>
      </trkpt>
      <trkpt lat="62.630995804592" lon="17.971264746599">
        <ele>81.8</ele>
        <time>2017-12-11T18:34:59Z</time>
      </trkpt>
      <trkpt lat="62.630984656665" lon="17.971194673915">
        <ele>81.6</ele>
        <time>2017-12-11T18:35:00Z</time>
      </trkpt>
      <trkpt lat="62.630973424919" lon="17.971130217104">
        <ele>81.4</ele>
        <time>2017-12-11T18:35:01Z</time>
      </trkpt>
      <trkpt lat="62.630960181517" lon="17.971062407533">
        <ele>81.4</ele>
        <time>2017-12-11T18:35:02Z</time>
      </trkpt>
      <trkpt lat="62.630951296703" lon="17.971001219663">
        <ele>81.2</ele>
        <time>2017-12-11T18:35:03Z</time>
      </trkpt>
      <trkpt lat="62.630941992794" lon="17.97093441592">
        <ele>81</ele>
        <time>2017-12-11T18:35:04Z</time>
      </trkpt>
      <trkpt lat="62.630931347781" lon="17.970871635489">
        <ele>81</ele>
        <time>2017-12-11T18:35:05Z</time>
      </trkpt>
      <trkpt lat="62.630921121863" lon="17.970799718787">
        <ele>80.8</ele>
        <time>2017-12-11T18:35:06Z</time>
      </trkpt>
      <trkpt lat="62.630912488506" lon="17.970728137361">
        <ele>80.8</ele>
        <time>2017-12-11T18:35:07Z</time>
      </trkpt>
      <trkpt lat="62.630906118262" lon="17.970662087989">
        <ele>80.6</ele>
        <time>2017-12-11T18:35:08Z</time>
      </trkpt>
      <trkpt lat="62.630897987819" lon="17.970587656717">
        <ele>80.6</ele>
        <time>2017-12-11T18:35:09Z</time>
      </trkpt>
      <trkpt lat="62.630894299783" lon="17.970519092775">
        <ele>80.4</ele>
        <time>2017-12-11T18:35:10Z</time>
      </trkpt>
      <trkpt lat="62.630888097177" lon="17.970447930444">
        <ele>80.2</ele>
        <time>2017-12-11T18:35:11Z</time>
      </trkpt>
      <trkpt lat="62.630883235675" lon="17.970379198864">
        <ele>79.8</ele>
        <time>2017-12-11T18:35:12Z</time>
      </trkpt>
      <trkpt lat="62.630881559295" lon="17.970290099267">
        <ele>79.8</ele>
        <time>2017-12-11T18:35:14Z</time>
      </trkpt>
      <trkpt lat="62.630884744417" lon="17.970257661314">
        <ele>79.8</ele>
        <time>2017-12-11T18:35:15Z</time>
      </trkpt>
      <trkpt lat="62.630886672254" lon="17.970230001044">
        <ele>79.8</ele>
        <time>2017-12-11T18:35:16Z</time>
      </trkpt>
      <trkpt lat="62.630887175168" lon="17.970205106801">
        <ele>79.8</ele>
        <time>2017-12-11T18:35:17Z</time>
      </trkpt>
      <trkpt lat="62.630888013358" lon="17.97018004492">
        <ele>79.8</ele>
        <time>2017-12-11T18:35:18Z</time>
      </trkpt>
      <trkpt lat="62.630889941195" lon="17.970153139021">
        <ele>80</ele>
        <time>2017-12-11T18:35:19Z</time>
      </trkpt>
      <trkpt lat="62.630894467421" lon="17.970142745465">
        <ele>79.8</ele>
        <time>2017-12-11T18:35:20Z</time>
      </trkpt>
      <trkpt lat="62.630900670027" lon="17.970116174842">
        <ele>79.8</ele>
        <time>2017-12-11T18:35:21Z</time>
      </trkpt>
      <trkpt lat="62.630901675855" lon="17.970100584508">
        <ele>79.6</ele>
        <time>2017-12-11T18:35:22Z</time>
      </trkpt>
      <trkpt lat="62.630906537357" lon="17.970093459893">
        <ele>79.4</ele>
        <time>2017-12-11T18:35:23Z</time>
      </trkpt>
      <trkpt lat="62.630913075239" lon="17.970098237576">
        <ele>79.4</ele>
        <time>2017-12-11T18:35:24Z</time>
      </trkpt>
      <trkpt lat="62.630918439655" lon="17.970106200381">
        <ele>79.2</ele>
        <time>2017-12-11T18:35:25Z</time>
      </trkpt>
      <trkpt lat="62.630920367492" lon="17.970117683584">
        <ele>79.2</ele>
        <time>2017-12-11T18:35:26Z</time>
      </trkpt>
      <trkpt lat="62.630921540958" lon="17.970127658045">
        <ele>79.2</ele>
        <time>2017-12-11T18:35:27Z</time>
      </trkpt>
      <trkpt lat="62.630921121863" lon="17.97013310628">
        <ele>79</ele>
        <time>2017-12-11T18:35:28Z</time>
      </trkpt>
      <trkpt lat="62.631196132002" lon="17.96997385018">
        <ele>78.6</ele>
        <time>2017-12-11T18:37:26Z</time>
      </trkpt>
      <trkpt lat="62.631230413973" lon="17.969953649801">
        <ele>78.6</ele>
        <time>2017-12-11T18:37:27Z</time>
      </trkpt>
      <trkpt lat="62.631261510822" lon="17.969938310924">
        <ele>78.6</ele>
        <time>2017-12-11T18:37:28Z</time>
      </trkpt>
      <trkpt lat="62.631296295707" lon="17.969920373658">
        <ele>78.4</ele>
        <time>2017-12-11T18:37:29Z</time>
      </trkpt>
      <trkpt lat="62.631329823307" lon="17.969905453876">
        <ele>78.4</ele>
        <time>2017-12-11T18:37:30Z</time>
      </trkpt>
      <trkpt lat="62.631364943468" lon="17.969886846058">
        <ele>78.4</ele>
        <time>2017-12-11T18:37:31Z</time>
      </trkpt>
      <trkpt lat="62.631399560715" lon="17.969865556032">
        <ele>78.4</ele>
        <time>2017-12-11T18:37:32Z</time>
      </trkpt>
      <trkpt lat="62.631428394451" lon="17.969847618766">
        <ele>78.2</ele>
        <time>2017-12-11T18:37:33Z</time>
      </trkpt>
      <trkpt lat="62.631467705562" lon="17.969830268233">
        <ele>78</ele>
        <time>2017-12-11T18:37:34Z</time>
      </trkpt>
      <trkpt lat="62.631497712764" lon="17.969816521917">
        <ele>78</ele>
        <time>2017-12-11T18:37:35Z</time>
      </trkpt>
      <trkpt lat="62.631533922572" lon="17.96980118304">
        <ele>77.8</ele>
        <time>2017-12-11T18:37:36Z</time>
      </trkpt>
      <trkpt lat="62.631564013593" lon="17.969784167783">
        <ele>77.8</ele>
        <time>2017-12-11T18:37:37Z</time>
      </trkpt>
      <trkpt lat="62.631592260596" lon="17.96976933182">
        <ele>77.8</ele>
        <time>2017-12-11T18:37:38Z</time>
      </trkpt>
      <trkpt lat="62.631625201463" lon="17.969746113957">
        <ele>77.8</ele>
        <time>2017-12-11T18:37:39Z</time>
      </trkpt>
      <trkpt lat="62.631654119018" lon="17.969721806447">
        <ele>77.6</ele>
        <time>2017-12-11T18:37:40Z</time>
      </trkpt>
      <trkpt lat="62.631683874763" lon="17.969691044874">
        <ele>77.6</ele>
        <time>2017-12-11T18:37:41Z</time>
      </trkpt>
      <trkpt lat="62.631715893621" lon="17.96965282341">
        <ele>77.6</ele>
        <time>2017-12-11T18:37:42Z</time>
      </trkpt>
      <trkpt lat="62.631744056805" lon="17.969623822036">
        <ele>77.6</ele>
        <time>2017-12-11T18:37:43Z</time>
      </trkpt>
      <trkpt lat="62.631775321292" lon="17.969585181477">
        <ele>77.4</ele>
        <time>2017-12-11T18:37:44Z</time>
      </trkpt>
      <trkpt lat="62.631803568295" lon="17.969555425732">
        <ele>77.2</ele>
        <time>2017-12-11T18:37:45Z</time>
      </trkpt>
      <trkpt lat="62.631832737307" lon="17.969537069371">
        <ele>77</ele>
        <time>2017-12-11T18:37:46Z</time>
      </trkpt>
      <trkpt lat="62.631861235767" lon="17.969525753806">
        <ele>77</ele>
        <time>2017-12-11T18:37:47Z</time>
      </trkpt>
      <trkpt lat="62.631889985684" lon="17.969526089082">
        <ele>76.8</ele>
        <time>2017-12-11T18:37:48Z</time>
      </trkpt>
      <trkpt lat="62.631921920723" lon="17.969530531489">
        <ele>76.8</ele>
        <time>2017-12-11T18:37:49Z</time>
      </trkpt>
      <trkpt lat="62.631950083907" lon="17.969536315">
        <ele>76.8</ele>
        <time>2017-12-11T18:37:50Z</time>
      </trkpt>
      <trkpt lat="62.631978917643" lon="17.969537823742">
        <ele>76.8</ele>
        <time>2017-12-11T18:37:51Z</time>
      </trkpt>
      <trkpt lat="62.632005655904" lon="17.969538410475">
        <ele>76.8</ele>
        <time>2017-12-11T18:37:52Z</time>
      </trkpt>
      <trkpt lat="62.632030466328" lon="17.969541008864">
        <ele>76.8</ele>
        <time>2017-12-11T18:37:53Z</time>
      </trkpt>
      <trkpt lat="62.632061982272" lon="17.969540841226">
        <ele>76.8</ele>
        <time>2017-12-11T18:37:54Z</time>
      </trkpt>
      <trkpt lat="62.632087127972" lon="17.969531788774">
        <ele>77</ele>
        <time>2017-12-11T18:37:55Z</time>
      </trkpt>
      <trkpt lat="62.63211663226" lon="17.969528100738">
        <ele>77.2</ele>
        <time>2017-12-11T18:37:56Z</time>
      </trkpt>
      <trkpt lat="62.632144879263" lon="17.969521730494">
        <ele>77.2</ele>
        <time>2017-12-11T18:37:57Z</time>
      </trkpt>
      <trkpt lat="62.632172874809" lon="17.969515527888">
        <ele>77.4</ele>
        <time>2017-12-11T18:37:58Z</time>
      </trkpt>
      <trkpt lat="62.63220296583" lon="17.969509912015">
        <ele>77.4</ele>
        <time>2017-12-11T18:37:59Z</time>
      </trkpt>
      <trkpt lat="62.632230709919" lon="17.969502200667">
        <ele>77.4</ele>
        <time>2017-12-11T18:38:00Z</time>
      </trkpt>
      <trkpt lat="62.632261136216" lon="17.969494656957">
        <ele>77.2</ele>
        <time>2017-12-11T18:38:01Z</time>
      </trkpt>
      <trkpt lat="62.632289550857" lon="17.969487113247">
        <ele>77.4</ele>
        <time>2017-12-11T18:38:02Z</time>
      </trkpt>
      <trkpt lat="62.632315786204" lon="17.969478312252">
        <ele>77.4</ele>
        <time>2017-12-11T18:38:03Z</time>
      </trkpt>
      <trkpt lat="62.632349732899" lon="17.969476971148">
        <ele>77.2</ele>
        <time>2017-12-11T18:38:04Z</time>
      </trkpt>
      <trkpt lat="62.632375884427" lon="17.969475881501">
        <ele>77.2</ele>
        <time>2017-12-11T18:38:05Z</time>
      </trkpt>
      <trkpt lat="62.632406310724" lon="17.969473786026">
        <ele>77.2</ele>
        <time>2017-12-11T18:38:06Z</time>
      </trkpt>
      <trkpt lat="62.632434557727" lon="17.969473869845">
        <ele>77.2</ele>
        <time>2017-12-11T18:38:07Z</time>
      </trkpt>
      <trkpt lat="62.632460122522" lon="17.969469595076">
        <ele>77.2</ele>
        <time>2017-12-11T18:38:08Z</time>
      </trkpt>
      <trkpt lat="62.63249130319" lon="17.969467667239">
        <ele>77.2</ele>
        <time>2017-12-11T18:38:09Z</time>
      </trkpt>
      <trkpt lat="62.632517454718" lon="17.969469846533">
        <ele>77.2</ele>
        <time>2017-12-11T18:38:10Z</time>
      </trkpt>
      <trkpt lat="62.63254327097" lon="17.969472947836">
        <ele>77.2</ele>
        <time>2017-12-11T18:38:11Z</time>
      </trkpt>
      <trkpt lat="62.632572859077" lon="17.969475630044">
        <ele>77.2</ele>
        <time>2017-12-11T18:38:12Z</time>
      </trkpt>
      <trkpt lat="62.632597669501" lon="17.969474372759">
        <ele>77.2</ele>
        <time>2017-12-11T18:38:13Z</time>
      </trkpt>
      <trkpt lat="62.632627173789" lon="17.969478563709">
        <ele>77.2</ele>
        <time>2017-12-11T18:38:14Z</time>
      </trkpt>
      <trkpt lat="62.632653660593" lon="17.969488957265">
        <ele>77.2</ele>
        <time>2017-12-11T18:38:15Z</time>
      </trkpt>
      <trkpt lat="62.632680650311" lon="17.969494321681">
        <ele>77.4</ele>
        <time>2017-12-11T18:38:16Z</time>
      </trkpt>
      <trkpt lat="62.632706550382" lon="17.96950027283">
        <ele>77.4</ele>
        <time>2017-12-11T18:38:17Z</time>
      </trkpt>
      <trkpt lat="62.632730690254" lon="17.969506223979">
        <ele>77.4</ele>
        <time>2017-12-11T18:38:18Z</time>
      </trkpt>
      <trkpt lat="62.63276120037" lon="17.969512426585">
        <ele>77.6</ele>
        <time>2017-12-11T18:38:19Z</time>
      </trkpt>
      <trkpt lat="62.632787770993" lon="17.969520221752">
        <ele>77.6</ele>
        <time>2017-12-11T18:38:20Z</time>
      </trkpt>
      <trkpt lat="62.632813838702" lon="17.969524077426">
        <ele>77.6</ele>
        <time>2017-12-11T18:38:21Z</time>
      </trkpt>
      <trkpt lat="62.63284166661" lon="17.969527849281">
        <ele>77.6</ele>
        <time>2017-12-11T18:38:22Z</time>
      </trkpt>
      <trkpt lat="62.632865722663" lon="17.969532794602">
        <ele>77.6</ele>
        <time>2017-12-11T18:38:23Z</time>
      </trkpt>
      <trkpt lat="62.632895143132" lon="17.969536985552">
        <ele>77.6</ele>
        <time>2017-12-11T18:38:24Z</time>
      </trkpt>
      <trkpt lat="62.632922300488" lon="17.969544613081">
        <ele>77.8</ele>
        <time>2017-12-11T18:38:25Z</time>
      </trkpt>
      <trkpt lat="62.632950798948" lon="17.969549893678">
        <ele>77.8</ele>
        <time>2017-12-11T18:38:26Z</time>
      </trkpt>
      <trkpt lat="62.6329766152" lon="17.969556263922">
        <ele>77.8</ele>
        <time>2017-12-11T18:38:27Z</time>
      </trkpt>
      <trkpt lat="62.633002179995" lon="17.969566406021">
        <ele>77.8</ele>
        <time>2017-12-11T18:38:28Z</time>
      </trkpt>
      <trkpt lat="62.633028834437" lon="17.969573027722">
        <ele>78</ele>
        <time>2017-12-11T18:38:29Z</time>
      </trkpt>
      <trkpt lat="62.633055907974" lon="17.969580822889">
        <ele>78</ele>
        <time>2017-12-11T18:38:30Z</time>
      </trkpt>
      <trkpt lat="62.633084154977" lon="17.969587612228">
        <ele>78</ele>
        <time>2017-12-11T18:38:31Z</time>
      </trkpt>
      <trkpt lat="62.633108965401" lon="17.969594233929">
        <ele>78.2</ele>
        <time>2017-12-11T18:38:32Z</time>
      </trkpt>
      <trkpt lat="62.633133943463" lon="17.969602364372">
        <ele>78.2</ele>
        <time>2017-12-11T18:38:33Z</time>
      </trkpt>
      <trkpt lat="62.633165124131" lon="17.969613093204">
        <ele>78.2</ele>
        <time>2017-12-11T18:38:34Z</time>
      </trkpt>
      <trkpt lat="62.633190940383" lon="17.96962097219">
        <ele>78.4</ele>
        <time>2017-12-11T18:38:35Z</time>
      </trkpt>
      <trkpt lat="62.633221534318" lon="17.969630527556">
        <ele>78.4</ele>
        <time>2017-12-11T18:38:36Z</time>
      </trkpt>
      <trkpt lat="62.633247518208" lon="17.969640502017">
        <ele>78.4</ele>
        <time>2017-12-11T18:38:37Z</time>
      </trkpt>
      <trkpt lat="62.63327165808" lon="17.969653577781">
        <ele>78.4</ele>
        <time>2017-12-11T18:38:38Z</time>
      </trkpt>
      <trkpt lat="62.633298983074" lon="17.969672437056">
        <ele>78.4</ele>
        <time>2017-12-11T18:38:39Z</time>
      </trkpt>
      <trkpt lat="62.633323961136" lon="17.969694481453">
        <ele>78.6</ele>
        <time>2017-12-11T18:38:40Z</time>
      </trkpt>
      <trkpt lat="62.633346508447" lon="17.969724740112">
        <ele>78.6</ele>
        <time>2017-12-11T18:38:41Z</time>
      </trkpt>
      <trkpt lat="62.633364110437" lon="17.969772097847">
        <ele>78.6</ele>
        <time>2017-12-11T18:38:42Z</time>
      </trkpt>
      <trkpt lat="62.633372995251" lon="17.969819874677">
        <ele>78.6</ele>
        <time>2017-12-11T18:38:43Z</time>
      </trkpt>
      <trkpt lat="62.633380790418" lon="17.969877877425">
        <ele>78.6</ele>
        <time>2017-12-11T18:38:44Z</time>
      </trkpt>
      <trkpt lat="62.633381880065" lon="17.969935544897">
        <ele>78.8</ele>
        <time>2017-12-11T18:38:45Z</time>
      </trkpt>
      <trkpt lat="62.633381712427" lon="17.969992038903">
        <ele>78.8</ele>
        <time>2017-12-11T18:38:46Z</time>
      </trkpt>
      <trkpt lat="62.633382131522" lon="17.970047862357">
        <ele>79</ele>
        <time>2017-12-11T18:38:47Z</time>
      </trkpt>
      <trkpt lat="62.633384562273" lon="17.97009957868">
        <ele>79.2</ele>
        <time>2017-12-11T18:38:48Z</time>
      </trkpt>
      <trkpt lat="62.633387495938" lon="17.97016411931">
        <ele>79.2</ele>
        <time>2017-12-11T18:38:49Z</time>
      </trkpt>
      <trkpt lat="62.633388669404" lon="17.970222960248">
        <ele>79.2</ele>
        <time>2017-12-11T18:38:50Z</time>
      </trkpt>
      <trkpt lat="62.633389926689" lon="17.970276185313">
        <ele>79.4</ele>
        <time>2017-12-11T18:38:51Z</time>
      </trkpt>
      <trkpt lat="62.633391770707" lon="17.970334188061">
        <ele>79.6</ele>
        <time>2017-12-11T18:38:52Z</time>
      </trkpt>
      <trkpt lat="62.633393698544" lon="17.970389340963">
        <ele>79.6</ele>
        <time>2017-12-11T18:38:53Z</time>
      </trkpt>
      <trkpt lat="62.633394620553" lon="17.970454635964">
        <ele>79.6</ele>
        <time>2017-12-11T18:38:54Z</time>
      </trkpt>
      <trkpt lat="62.633398727684" lon="17.970510375599">
        <ele>79.8</ele>
        <time>2017-12-11T18:38:55Z</time>
      </trkpt>
      <trkpt lat="62.633401493711" lon="17.970569970908">
        <ele>79.8</ele>
        <time>2017-12-11T18:38:56Z</time>
      </trkpt>
      <trkpt lat="62.633403002453" lon="17.970626632552">
        <ele>80</ele>
        <time>2017-12-11T18:38:57Z</time>
      </trkpt>
      <trkpt lat="62.633404175919" lon="17.970680695807">
        <ele>80</ele>
        <time>2017-12-11T18:38:58Z</time>
      </trkpt>
      <trkpt lat="62.633406271394" lon="17.970738111822">
        <ele>80.2</ele>
        <time>2017-12-11T18:38:59Z</time>
      </trkpt>
      <trkpt lat="62.633409456516" lon="17.970804915565">
        <ele>80.2</ele>
        <time>2017-12-11T18:39:00Z</time>
      </trkpt>
      <trkpt lat="62.633409205059" lon="17.970866103435">
        <ele>80.4</ele>
        <time>2017-12-11T18:39:01Z</time>
      </trkpt>
      <trkpt lat="62.633411300534" lon="17.970924525278">
        <ele>80.6</ele>
        <time>2017-12-11T18:39:02Z</time>
      </trkpt>
      <trkpt lat="62.633411719629" lon="17.970978420895">
        <ele>80.6</ele>
        <time>2017-12-11T18:39:03Z</time>
      </trkpt>
      <trkpt lat="62.633413060733" lon="17.971047739208">
        <ele>80.8</ele>
        <time>2017-12-11T18:39:04Z</time>
      </trkpt>
      <trkpt lat="62.633415491484" lon="17.971105574318">
        <ele>80.8</ele>
        <time>2017-12-11T18:39:05Z</time>
      </trkpt>
      <trkpt lat="62.633414820932" lon="17.971173383889">
        <ele>81</ele>
        <time>2017-12-11T18:39:06Z</time>
      </trkpt>
      <trkpt lat="62.633417084045" lon="17.971236667234">
        <ele>81.2</ele>
        <time>2017-12-11T18:39:07Z</time>
      </trkpt>
      <trkpt lat="62.633417838416" lon="17.971294083249">
        <ele>81.2</ele>
        <time>2017-12-11T18:39:08Z</time>
      </trkpt>
      <trkpt lat="62.633417838416" lon="17.971363401562">
        <ele>81.2</ele>
        <time>2017-12-11T18:39:09Z</time>
      </trkpt>
      <trkpt lat="62.633415659122" lon="17.971422996871">
        <ele>81.4</ele>
        <time>2017-12-11T18:39:10Z</time>
      </trkpt>
      <trkpt lat="62.633415910579" lon="17.971484017103">
        <ele>81.4</ele>
        <time>2017-12-11T18:39:11Z</time>
      </trkpt>
      <trkpt lat="62.633414066561" lon="17.971553335416">
        <ele>81.6</ele>
        <time>2017-12-11T18:39:12Z</time>
      </trkpt>
      <trkpt lat="62.633412474" lon="17.971611170526">
        <ele>81.6</ele>
        <time>2017-12-11T18:39:13Z</time>
      </trkpt>
      <trkpt lat="62.63340744486" lon="17.971680069744">
        <ele>81.6</ele>
        <time>2017-12-11T18:39:14Z</time>
      </trkpt>
      <trkpt lat="62.633403673005" lon="17.97174243108">
        <ele>81.8</ele>
        <time>2017-12-11T18:39:15Z</time>
      </trkpt>
      <trkpt lat="62.633399565874" lon="17.971805714425">
        <ele>81.8</ele>
        <time>2017-12-11T18:39:16Z</time>
      </trkpt>
      <trkpt lat="62.633395123467" lon="17.971868662494">
        <ele>82</ele>
        <time>2017-12-11T18:39:17Z</time>
      </trkpt>
      <trkpt lat="62.633391100155" lon="17.971926497604">
        <ele>82</ele>
        <time>2017-12-11T18:39:18Z</time>
      </trkpt>
      <trkpt lat="62.633386909205" lon="17.972004868369">
        <ele>82</ele>
        <time>2017-12-11T18:39:19Z</time>
      </trkpt>
      <trkpt lat="62.63338229916" lon="17.972068403171">
        <ele>82.2</ele>
        <time>2017-12-11T18:39:20Z</time>
      </trkpt>
      <trkpt lat="62.633377772934" lon="17.972129507222">
        <ele>82.4</ele>
        <time>2017-12-11T18:39:21Z</time>
      </trkpt>
      <trkpt lat="62.633370313043" lon="17.972193461119">
        <ele>82.6</ele>
        <time>2017-12-11T18:39:22Z</time>
      </trkpt>
      <trkpt lat="62.633363439885" lon="17.972247608193">
        <ele>82.6</ele>
        <time>2017-12-11T18:39:23Z</time>
      </trkpt>
      <trkpt lat="62.633354303614" lon="17.97231826761">
        <ele>82.8</ele>
        <time>2017-12-11T18:39:24Z</time>
      </trkpt>
      <trkpt lat="62.63334374242" lon="17.972383730249">
        <ele>83</ele>
        <time>2017-12-11T18:39:25Z</time>
      </trkpt>
      <trkpt lat="62.633335528158" lon="17.972444666662">
        <ele>83</ele>
        <time>2017-12-11T18:39:26Z</time>
      </trkpt>
      <trkpt lat="62.633327984448" lon="17.972504010514">
        <ele>83.2</ele>
        <time>2017-12-11T18:39:27Z</time>
      </trkpt>
      <trkpt lat="62.633319770186" lon="17.972561677986">
        <ele>83.2</ele>
        <time>2017-12-11T18:39:28Z</time>
      </trkpt>
      <trkpt lat="62.633310885372" lon="17.97261833963">
        <ele>83.2</ele>
        <time>2017-12-11T18:39:29Z</time>
      </trkpt>
      <trkpt lat="62.633299234531" lon="17.972684305183">
        <ele>83.4</ele>
        <time>2017-12-11T18:39:30Z</time>
      </trkpt>
      <trkpt lat="62.633287667509" lon="17.972746917976">
        <ele>83.6</ele>
        <time>2017-12-11T18:39:31Z</time>
      </trkpt>
      <trkpt lat="62.633279537066" lon="17.972808692579">
        <ele>83.6</ele>
        <time>2017-12-11T18:39:32Z</time>
      </trkpt>
      <trkpt lat="62.633267634768" lon="17.972861163273">
        <ele>83.6</ele>
        <time>2017-12-11T18:39:33Z</time>
      </trkpt>
      <trkpt lat="62.633253636995" lon="17.972927799378">
        <ele>83.8</ele>
        <time>2017-12-11T18:39:34Z</time>
      </trkpt>
      <trkpt lat="62.633242069973" lon="17.972985718307">
        <ele>83.8</ele>
        <time>2017-12-11T18:39:35Z</time>
      </trkpt>
      <trkpt lat="62.633230922046" lon="17.973036847897">
        <ele>84</ele>
        <time>2017-12-11T18:39:36Z</time>
      </trkpt>
      <trkpt lat="62.633216924273" lon="17.973111446807">
        <ele>84</ele>
        <time>2017-12-11T18:39:37Z</time>
      </trkpt>
      <trkpt lat="62.63320627926" lon="17.973166599709">
        <ele>84</ele>
        <time>2017-12-11T18:39:38Z</time>
      </trkpt>
      <trkpt lat="62.633192365306" lon="17.973230050692">
        <ele>84.2</ele>
        <time>2017-12-11T18:39:39Z</time>
      </trkpt>
      <trkpt lat="62.633177445524" lon="17.97328386249">
        <ele>84.2</ele>
        <time>2017-12-11T18:39:40Z</time>
      </trkpt>
      <trkpt lat="62.633164453579" lon="17.973343122523">
        <ele>84.4</ele>
        <time>2017-12-11T18:39:41Z</time>
      </trkpt>
      <trkpt lat="62.633149952892" lon="17.973405819135">
        <ele>84.4</ele>
        <time>2017-12-11T18:39:42Z</time>
      </trkpt>
      <trkpt lat="62.633139140241" lon="17.973461977865">
        <ele>84.6</ele>
        <time>2017-12-11T18:39:43Z</time>
      </trkpt>
      <trkpt lat="62.633125980658" lon="17.973531379997">
        <ele>84.6</ele>
        <time>2017-12-11T18:39:44Z</time>
      </trkpt>
      <trkpt lat="62.63310904922" lon="17.973586197623">
        <ele>84.8</ele>
        <time>2017-12-11T18:39:45Z</time>
      </trkpt>
      <trkpt lat="62.633093710343" lon="17.973648139864">
        <ele>84.8</ele>
        <time>2017-12-11T18:39:46Z</time>
      </trkpt>
      <trkpt lat="62.633078622923" lon="17.973704885327">
        <ele>85</ele>
        <time>2017-12-11T18:39:47Z</time>
      </trkpt>
      <trkpt lat="62.633065630978" lon="17.973760960238">
        <ele>85</ele>
        <time>2017-12-11T18:39:48Z</time>
      </trkpt>
      <trkpt lat="62.633048531902" lon="17.973834972415">
        <ele>85</ele>
        <time>2017-12-11T18:39:49Z</time>
      </trkpt>
      <trkpt lat="62.633036378147" lon="17.973894651543">
        <ele>85.2</ele>
        <time>2017-12-11T18:39:50Z</time>
      </trkpt>
      <trkpt lat="62.633022799469" lon="17.973955504137">
        <ele>85.4</ele>
        <time>2017-12-11T18:39:51Z</time>
      </trkpt>
      <trkpt lat="62.633007795868" lon="17.974021721147">
        <ele>85.4</ele>
        <time>2017-12-11T18:39:52Z</time>
      </trkpt>
      <trkpt lat="62.63299505538" lon="17.974080897361">
        <ele>85.6</ele>
        <time>2017-12-11T18:39:53Z</time>
      </trkpt>
      <trkpt lat="62.632979548865" lon="17.974153233158">
        <ele>85.8</ele>
        <time>2017-12-11T18:39:54Z</time>
      </trkpt>
      <trkpt lat="62.632966640739" lon="17.974216181227">
        <ele>85.8</ele>
        <time>2017-12-11T18:39:55Z</time>
      </trkpt>
      <trkpt lat="62.632953564975" lon="17.974273848699">
        <ele>85.8</ele>
        <time>2017-12-11T18:39:56Z</time>
      </trkpt>
      <trkpt lat="62.632938142279" lon="17.974333024913">
        <ele>85.8</ele>
        <time>2017-12-11T18:39:57Z</time>
      </trkpt>
      <trkpt lat="62.632923306316" lon="17.974386501435">
        <ele>86</ele>
        <time>2017-12-11T18:39:58Z</time>
      </trkpt>
      <trkpt lat="62.632905620507" lon="17.974445007097">
        <ele>86</ele>
        <time>2017-12-11T18:39:59Z</time>
      </trkpt>
      <trkpt lat="62.63288106154" lon="17.974499740904">
        <ele>86</ele>
        <time>2017-12-11T18:40:00Z</time>
      </trkpt>
      <trkpt lat="62.632855832021" lon="17.974540728395">
        <ele>86</ele>
        <time>2017-12-11T18:40:01Z</time>
      </trkpt>
      <trkpt lat="62.632825321905" lon="17.974566628466">
        <ele>86</ele>
        <time>2017-12-11T18:40:02Z</time>
      </trkpt>
      <trkpt lat="62.632797326359" lon="17.974577608755">
        <ele>86.2</ele>
        <time>2017-12-11T18:40:03Z</time>
      </trkpt>
      <trkpt lat="62.632762206198" lon="17.974580039506">
        <ele>86.2</ele>
        <time>2017-12-11T18:40:04Z</time>
      </trkpt>
      <trkpt lat="62.632734965023" lon="17.974568304846">
        <ele>86.4</ele>
        <time>2017-12-11T18:40:05Z</time>
      </trkpt>
      <trkpt lat="62.63270755621" lon="17.974551289589">
        <ele>86.4</ele>
        <time>2017-12-11T18:40:06Z</time>
      </trkpt>
      <trkpt lat="62.632682661967" lon="17.97453360378">
        <ele>86.6</ele>
        <time>2017-12-11T18:40:07Z</time>
      </trkpt>
      <trkpt lat="62.632658354457" lon="17.974511475564">
        <ele>86.4</ele>
        <time>2017-12-11T18:40:08Z</time>
      </trkpt>
      <trkpt lat="62.632630861825" lon="17.974486581321">
        <ele>86.6</ele>
        <time>2017-12-11T18:40:09Z</time>
      </trkpt>
      <trkpt lat="62.632607727781" lon="17.974463950191">
        <ele>86.6</ele>
        <time>2017-12-11T18:40:10Z</time>
      </trkpt>
      <trkpt lat="62.632588197954" lon="17.974446599658">
        <ele>86.6</ele>
        <time>2017-12-11T18:40:11Z</time>
      </trkpt>
      <trkpt lat="62.632562381702" lon="17.974421118682">
        <ele>86.4</ele>
        <time>2017-12-11T18:40:12Z</time>
      </trkpt>
      <trkpt lat="62.632540169667" lon="17.974395134792">
        <ele>86.4</ele>
        <time>2017-12-11T18:40:13Z</time>
      </trkpt>
      <trkpt lat="62.632517370899" lon="17.974362361563">
        <ele>86.4</ele>
        <time>2017-12-11T18:40:14Z</time>
      </trkpt>
      <trkpt lat="62.63249297957" lon="17.974331516171">
        <ele>86.4</ele>
        <time>2017-12-11T18:40:15Z</time>
      </trkpt>
      <trkpt lat="62.632470516078" lon="17.974305783738">
        <ele>86.4</ele>
        <time>2017-12-11T18:40:16Z</time>
      </trkpt>
      <trkpt lat="62.63244771731" lon="17.974285331902">
        <ele>86.6</ele>
        <time>2017-12-11T18:40:17Z</time>
      </trkpt>
      <trkpt lat="62.632423158343" lon="17.974263036048">
        <ele>86.6</ele>
        <time>2017-12-11T18:40:18Z</time>
      </trkpt>
      <trkpt lat="62.632396000987" lon="17.974239818185">
        <ele>86.6</ele>
        <time>2017-12-11T18:40:19Z</time>
      </trkpt>
      <trkpt lat="62.632372950762" lon="17.974212744648">
        <ele>86.6</ele>
        <time>2017-12-11T18:40:20Z</time>
      </trkpt>
      <trkpt lat="62.632347050691" lon="17.97418491674">
        <ele>86.4</ele>
        <time>2017-12-11T18:40:21Z</time>
      </trkpt>
      <trkpt lat="62.632320144792" lon="17.974167230931">
        <ele>86.4</ele>
        <time>2017-12-11T18:40:22Z</time>
      </trkpt>
      <trkpt lat="62.632295502006" lon="17.974141749955">
        <ele>86.4</ele>
        <time>2017-12-11T18:40:23Z</time>
      </trkpt>
      <trkpt lat="62.632267757917" lon="17.974107887079">
        <ele>86.4</ele>
        <time>2017-12-11T18:40:24Z</time>
      </trkpt>
      <trkpt lat="62.632239594733" lon="17.974080310628">
        <ele>86.4</ele>
        <time>2017-12-11T18:40:25Z</time>
      </trkpt>
      <trkpt lat="62.632213107929" lon="17.974058769145">
        <ele>86.4</ele>
        <time>2017-12-11T18:40:26Z</time>
      </trkpt>
      <trkpt lat="62.632189051876" lon="17.97403320435">
        <ele>86.4</ele>
        <time>2017-12-11T18:40:27Z</time>
      </trkpt>
      <trkpt lat="62.632165079642" lon="17.974009902668">
        <ele>86.4</ele>
        <time>2017-12-11T18:40:28Z</time>
      </trkpt>
      <trkpt lat="62.63214010158" lon="17.973987522995">
        <ele>86.2</ele>
        <time>2017-12-11T18:40:29Z</time>
      </trkpt>
      <trkpt lat="62.632114704423" lon="17.973956509965">
        <ele>86.2</ele>
        <time>2017-12-11T18:40:30Z</time>
      </trkpt>
      <trkpt lat="62.632091318922" lon="17.973922898546">
        <ele>86.2</ele>
        <time>2017-12-11T18:40:31Z</time>
      </trkpt>
      <trkpt lat="62.632070783267" lon="17.973894651543">
        <ele>86.2</ele>
        <time>2017-12-11T18:40:32Z</time>
      </trkpt>
      <trkpt lat="62.632047397766" lon="17.973871182223">
        <ele>86.2</ele>
        <time>2017-12-11T18:40:33Z</time>
      </trkpt>
      <trkpt lat="62.632017977297" lon="17.973837570804">
        <ele>86.2</ele>
        <time>2017-12-11T18:40:34Z</time>
      </trkpt>
      <trkpt lat="62.63199760928" lon="17.973805971041">
        <ele>86.2</ele>
        <time>2017-12-11T18:40:35Z</time>
      </trkpt>
      <trkpt lat="62.631977325082" lon="17.973774287459">
        <ele>86.2</ele>
        <time>2017-12-11T18:40:36Z</time>
      </trkpt>
      <trkpt lat="62.631955532142" lon="17.97374319061">
        <ele>86.2</ele>
        <time>2017-12-11T18:40:37Z</time>
      </trkpt>
      <trkpt lat="62.631937175781" lon="17.973712345218">
        <ele>86</ele>
        <time>2017-12-11T18:40:38Z</time>
      </trkpt>
      <trkpt lat="62.631915299022" lon="17.973677308876">
        <ele>86</ele>
        <time>2017-12-11T18:40:39Z</time>
      </trkpt>
      <trkpt lat="62.631890823874" lon="17.973647301674">
        <ele>86</ele>
        <time>2017-12-11T18:40:40Z</time>
      </trkpt>
      <trkpt lat="62.631868444201" lon="17.973619473766">
        <ele>86</ele>
        <time>2017-12-11T18:40:41Z</time>
      </trkpt>
      <trkpt lat="62.631843801415" lon="17.973584185967">
        <ele>86</ele>
        <time>2017-12-11T18:40:42Z</time>
      </trkpt>
      <trkpt lat="62.631821840837" lon="17.973558285896">
        <ele>86</ele>
        <time>2017-12-11T18:40:43Z</time>
      </trkpt>
      <trkpt lat="62.631797617146" lon="17.973526183219">
        <ele>86</ele>
        <time>2017-12-11T18:40:44Z</time>
      </trkpt>
      <trkpt lat="62.631775405111" lon="17.973489721954">
        <ele>86</ele>
        <time>2017-12-11T18:40:45Z</time>
      </trkpt>
      <trkpt lat="62.631751768153" lon="17.973454350336">
        <ele>86</ele>
        <time>2017-12-11T18:40:46Z</time>
      </trkpt>
      <trkpt lat="62.631728634109" lon="17.973421409469">
        <ele>86</ele>
        <time>2017-12-11T18:40:47Z</time>
      </trkpt>
      <trkpt lat="62.631706170617" lon="17.973383439462">
        <ele>86</ele>
        <time>2017-12-11T18:40:48Z</time>
      </trkpt>
      <trkpt lat="62.631681779288" lon="17.973337255193">
        <ele>86</ele>
        <time>2017-12-11T18:40:49Z</time>
      </trkpt>
      <trkpt lat="62.631659734891" lon="17.973301129204">
        <ele>86</ele>
        <time>2017-12-11T18:40:50Z</time>
      </trkpt>
      <trkpt lat="62.631636097933" lon="17.973261985731">
        <ele>85.8</ele>
        <time>2017-12-11T18:40:51Z</time>
      </trkpt>
      <trkpt lat="62.631615478459" lon="17.97321848367">
        <ele>85.8</ele>
        <time>2017-12-11T18:40:52Z</time>
      </trkpt>
      <trkpt lat="62.631592009139" lon="17.973182860595">
        <ele>85.8</ele>
        <time>2017-12-11T18:40:53Z</time>
      </trkpt>
      <trkpt lat="62.631567366353" lon="17.973135586679">
        <ele>85.6</ele>
        <time>2017-12-11T18:40:54Z</time>
      </trkpt>
      <trkpt lat="62.631549764363" lon="17.973091162609">
        <ele>85.6</ele>
        <time>2017-12-11T18:40:55Z</time>
      </trkpt>
      <trkpt lat="62.63153073745" lon="17.973047157634">
        <ele>85.6</ele>
        <time>2017-12-11T18:40:56Z</time>
      </trkpt>
      <trkpt lat="62.631509028329" lon="17.973000805727">
        <ele>85.4</ele>
        <time>2017-12-11T18:40:57Z</time>
      </trkpt>
      <trkpt lat="62.631490085235" lon="17.972953783268">
        <ele>85.2</ele>
        <time>2017-12-11T18:40:58Z</time>
      </trkpt>
      <trkpt lat="62.631470471589" lon="17.972909107741">
        <ele>85.2</ele>
        <time>2017-12-11T18:40:59Z</time>
      </trkpt>
      <trkpt lat="62.631449349201" lon="17.972864348395">
        <ele>85</ele>
        <time>2017-12-11T18:41:00Z</time>
      </trkpt>
      <trkpt lat="62.63143015465" lon="17.972818583221">
        <ele>85</ele>
        <time>2017-12-11T18:41:01Z</time>
      </trkpt>
      <trkpt lat="62.631409618995" lon="17.972773153323">
        <ele>84.8</ele>
        <time>2017-12-11T18:41:02Z</time>
      </trkpt>
      <trkpt lat="62.631395118308" lon="17.972732249651">
        <ele>84.6</ele>
        <time>2017-12-11T18:41:03Z</time>
      </trkpt>
      <trkpt lat="62.631375504662" lon="17.972684221364">
        <ele>84.6</ele>
        <time>2017-12-11T18:41:04Z</time>
      </trkpt>
      <trkpt lat="62.631359914328" lon="17.972639545837">
        <ele>84.4</ele>
        <time>2017-12-11T18:41:05Z</time>
      </trkpt>
      <trkpt lat="62.63134046832" lon="17.972585734039">
        <ele>84</ele>
        <time>2017-12-11T18:41:06Z</time>
      </trkpt>
      <trkpt lat="62.631324375072" lon="17.972536867562">
        <ele>83.8</ele>
        <time>2017-12-11T18:41:07Z</time>
      </trkpt>
      <trkpt lat="62.631307611272" lon="17.97248925837">
        <ele>83.6</ele>
        <time>2017-12-11T18:41:08Z</time>
      </trkpt>
      <trkpt lat="62.631289003454" lon="17.972435865667">
        <ele>83.4</ele>
        <time>2017-12-11T18:41:09Z</time>
      </trkpt>
      <trkpt lat="62.631266791419" lon="17.972384149344">
        <ele>83.4</ele>
        <time>2017-12-11T18:41:10Z</time>
      </trkpt>
      <trkpt lat="62.631244579384" lon="17.97233335503">
        <ele>83.2</ele>
        <time>2017-12-11T18:41:11Z</time>
      </trkpt>
      <trkpt lat="62.631221948254" lon="17.972274430273">
        <ele>83</ele>
        <time>2017-12-11T18:41:12Z</time>
      </trkpt>
      <trkpt lat="62.631203172798" lon="17.972224725606">
        <ele>83</ele>
        <time>2017-12-11T18:41:13Z</time>
      </trkpt>
      <trkpt lat="62.631181631315" lon="17.972164208288">
        <ele>82.8</ele>
        <time>2017-12-11T18:41:14Z</time>
      </trkpt>
      <trkpt lat="62.631162939678" lon="17.972101427857">
        <ele>82.8</ele>
        <time>2017-12-11T18:41:15Z</time>
      </trkpt>
      <trkpt lat="62.631143577489" lon="17.972036887227">
        <ele>82.6</ele>
        <time>2017-12-11T18:41:16Z</time>
      </trkpt>
      <trkpt lat="62.63112253892" lon="17.971970670217">
        <ele>82.4</ele>
        <time>2017-12-11T18:41:17Z</time>
      </trkpt>
      <trkpt lat="62.631104853111" lon="17.971903028284">
        <ele>82.2</ele>
        <time>2017-12-11T18:41:18Z</time>
      </trkpt>
      <trkpt lat="62.631075516461" lon="17.971833626152">
        <ele>82</ele>
        <time>2017-12-11T18:41:19Z</time>
      </trkpt>
      <trkpt lat="62.631049197295" lon="17.971768666427">
        <ele>82</ele>
        <time>2017-12-11T18:41:20Z</time>
      </trkpt>
      <trkpt lat="62.631030002744" lon="17.971705383082">
        <ele>82</ele>
        <time>2017-12-11T18:41:21Z</time>
      </trkpt>
      <trkpt lat="62.631015921152" lon="17.97163765733">
        <ele>82</ele>
        <time>2017-12-11T18:41:22Z</time>
      </trkpt>
      <trkpt lat="62.631001755741" lon="17.971570853587">
        <ele>81.8</ele>
        <time>2017-12-11T18:41:23Z</time>
      </trkpt>
      <trkpt lat="62.630987255054" lon="17.971481418714">
        <ele>81.8</ele>
        <time>2017-12-11T18:41:24Z</time>
      </trkpt>
      <trkpt lat="62.630966887037" lon="17.971407741813">
        <ele>81.6</ele>
        <time>2017-12-11T18:41:25Z</time>
      </trkpt>
      <trkpt lat="62.630952553988" lon="17.971333897274">
        <ele>81.6</ele>
        <time>2017-12-11T18:41:26Z</time>
      </trkpt>
      <trkpt lat="62.630938891491" lon="17.971259885097">
        <ele>81.4</ele>
        <time>2017-12-11T18:41:27Z</time>
      </trkpt>
      <trkpt lat="62.630927827383" lon="17.971190231508">
        <ele>81.2</ele>
        <time>2017-12-11T18:41:28Z</time>
      </trkpt>
      <trkpt lat="62.630918355836" lon="17.971117895711">
        <ele>81</ele>
        <time>2017-12-11T18:41:29Z</time>
      </trkpt>
      <trkpt lat="62.630908213737" lon="17.97104254243">
        <ele>80.8</ele>
        <time>2017-12-11T18:41:30Z</time>
      </trkpt>
      <trkpt lat="62.630895640887" lon="17.970971631556">
        <ele>80.8</ele>
        <time>2017-12-11T18:41:31Z</time>
      </trkpt>
      <trkpt lat="62.630883738589" lon="17.970897870836">
        <ele>80.6</ele>
        <time>2017-12-11T18:41:32Z</time>
      </trkpt>
      <trkpt lat="62.630874853775" lon="17.970834168396">
        <ele>80.4</ele>
        <time>2017-12-11T18:41:33Z</time>
      </trkpt>
      <trkpt lat="62.630862029468" lon="17.970754791803">
        <ele>80.4</ele>
        <time>2017-12-11T18:41:34Z</time>
      </trkpt>
      <trkpt lat="62.630852809378" lon="17.970682791282">
        <ele>80.2</ele>
        <time>2017-12-11T18:41:35Z</time>
      </trkpt>
      <trkpt lat="62.630840487985" lon="17.97060584544">
        <ele>80.2</ele>
        <time>2017-12-11T18:41:36Z</time>
      </trkpt>
      <trkpt lat="62.630829088601" lon="17.970536108032">
        <ele>79.8</ele>
        <time>2017-12-11T18:41:37Z</time>
      </trkpt>
      <trkpt lat="62.630818192131" lon="17.970468969013">
        <ele>79.6</ele>
        <time>2017-12-11T18:41:38Z</time>
      </trkpt>
      <trkpt lat="62.630808385308" lon="17.970399063967">
        <ele>79.6</ele>
        <time>2017-12-11T18:41:39Z</time>
      </trkpt>
      <trkpt lat="62.630802266521" lon="17.970339384839">
        <ele>79.6</ele>
        <time>2017-12-11T18:41:40Z</time>
      </trkpt>
      <trkpt lat="62.630797907933" lon="17.97028817143">
        <ele>79.6</ele>
        <time>2017-12-11T18:41:41Z</time>
      </trkpt>
      <trkpt lat="62.630792711155" lon="17.970216841461">
        <ele>79.2</ele>
        <time>2017-12-11T18:41:43Z</time>
      </trkpt>
      <trkpt lat="62.630791286232" lon="17.970189432648">
        <ele>79.2</ele>
        <time>2017-12-11T18:41:44Z</time>
      </trkpt>
      <trkpt lat="62.630792040603" lon="17.970164454586">
        <ele>79.4</ele>
        <time>2017-12-11T18:41:45Z</time>
      </trkpt>
      <trkpt lat="62.630799584313" lon="17.97014651732">
        <ele>79.2</ele>
        <time>2017-12-11T18:41:46Z</time>
      </trkpt>
      <trkpt lat="62.630810648421" lon="17.97013897361">
        <ele>79.2</ele>
        <time>2017-12-11T18:41:47Z</time>
      </trkpt>
      <trkpt lat="62.630820455244" lon="17.970133609194">
        <ele>79.2</ele>
        <time>2017-12-11T18:41:48Z</time>
      </trkpt>
      <trkpt lat="62.630820622882" lon="17.970130424072">
        <ele>79.2</ele>
        <time>2017-12-11T18:41:49Z</time>
      </trkpt>
      <trkpt lat="62.630833028094" lon="17.970115252833">
        <ele>79.2</ele>
        <time>2017-12-11T18:41:50Z</time>
      </trkpt>
      <trkpt lat="62.630833279551" lon="17.970117683584">
        <ele>79.2</ele>
        <time>2017-12-11T18:41:51Z</time>
      </trkpt>
      <trkpt lat="62.630831770809" lon="17.970120449611">
        <ele>79</ele>
        <time>2017-12-11T18:41:52Z</time>
      </trkpt>
      <trkpt lat="62.631119856712" lon="17.970006036676">
        <ele>78.8</ele>
        <time>2017-12-11T18:43:44Z</time>
      </trkpt>
      <trkpt lat="62.631143912765" lon="17.96999480493">
        <ele>78.8</ele>
        <time>2017-12-11T18:43:45Z</time>
      </trkpt>
      <trkpt lat="62.631169812836" lon="17.969979549872">
        <ele>78.4</ele>
        <time>2017-12-11T18:43:46Z</time>
      </trkpt>
      <trkpt lat="62.631192360147" lon="17.969965300642">
        <ele>78.4</ele>
        <time>2017-12-11T18:43:47Z</time>
      </trkpt>
      <trkpt lat="62.631212309069" lon="17.969953817439">
        <ele>78.4</ele>
        <time>2017-12-11T18:43:48Z</time>
      </trkpt>
      <trkpt lat="62.631238544416" lon="17.969939819666">
        <ele>78.2</ele>
        <time>2017-12-11T18:43:49Z</time>
      </trkpt>
      <trkpt lat="62.631259918261" lon="17.969930012843">
        <ele>78.2</ele>
        <time>2017-12-11T18:43:50Z</time>
      </trkpt>
      <trkpt lat="62.631282130296" lon="17.969915763613">
        <ele>78.2</ele>
        <time>2017-12-11T18:43:51Z</time>
      </trkpt>
      <trkpt lat="62.631306689263" lon="17.969906878799">
        <ele>78</ele>
        <time>2017-12-11T18:43:52Z</time>
      </trkpt>
      <trkpt lat="62.631325045624" lon="17.969897491071">
        <ele>77.8</ele>
        <time>2017-12-11T18:43:53Z</time>
      </trkpt>
      <trkpt lat="62.631348514944" lon="17.969884750583">
        <ele>78</ele>
        <time>2017-12-11T18:43:54Z</time>
      </trkpt>
      <trkpt lat="62.631373912101" lon="17.969875279036">
        <ele>77.8</ele>
        <time>2017-12-11T18:43:55Z</time>
      </trkpt>
      <trkpt lat="62.631398471068" lon="17.969866645679">
        <ele>77.8</ele>
        <time>2017-12-11T18:43:56Z</time>
      </trkpt>
      <trkpt lat="62.631424203501" lon="17.969861616539">
        <ele>77.8</ele>
        <time>2017-12-11T18:43:57Z</time>
      </trkpt>
      <trkpt lat="62.631447924278" lon="17.969854994838">
        <ele>77.8</ele>
        <time>2017-12-11T18:43:58Z</time>
      </trkpt>
      <trkpt lat="62.63147038777" lon="17.969842338169">
        <ele>77.8</ele>
        <time>2017-12-11T18:43:59Z</time>
      </trkpt>
      <trkpt lat="62.631493437995" lon="17.969829849138">
        <ele>77.8</ele>
        <time>2017-12-11T18:44:00Z</time>
      </trkpt>
      <trkpt lat="62.631518835152" lon="17.969818449754">
        <ele>77.8</ele>
        <time>2017-12-11T18:44:01Z</time>
      </trkpt>
      <trkpt lat="62.631539789902" lon="17.969807134189">
        <ele>77.6</ele>
        <time>2017-12-11T18:44:02Z</time>
      </trkpt>
      <trkpt lat="62.631561918118" lon="17.969788358733">
        <ele>77.8</ele>
        <time>2017-12-11T18:44:03Z</time>
      </trkpt>
      <trkpt lat="62.631586644723" lon="17.969773019856">
        <ele>77.8</ele>
        <time>2017-12-11T18:44:04Z</time>
      </trkpt>
      <trkpt lat="62.631606928921" lon="17.96975927354">
        <ele>77.6</ele>
        <time>2017-12-11T18:44:05Z</time>
      </trkpt>
      <trkpt lat="62.631630984974" lon="17.969739240799">
        <ele>77.6</ele>
        <time>2017-12-11T18:44:06Z</time>
      </trkpt>
      <trkpt lat="62.631653867561" lon="17.969718788963">
        <ele>77.6</ele>
        <time>2017-12-11T18:44:07Z</time>
      </trkpt>
      <trkpt lat="62.631673565026" lon="17.969697750394">
        <ele>77.4</ele>
        <time>2017-12-11T18:44:08Z</time>
      </trkpt>
      <trkpt lat="62.63169669907" lon="17.969668497563">
        <ele>77.4</ele>
        <time>2017-12-11T18:44:09Z</time>
      </trkpt>
      <trkpt lat="62.631718156734" lon="17.96963941237">
        <ele>77.2</ele>
        <time>2017-12-11T18:44:10Z</time>
      </trkpt>
      <trkpt lat="62.631736764552" lon="17.969616026869">
        <ele>77.2</ele>
        <time>2017-12-11T18:44:11Z</time>
      </trkpt>
      <trkpt lat="62.631760317691" lon="17.969594066291">
        <ele>77</ele>
        <time>2017-12-11T18:44:12Z</time>
      </trkpt>
      <trkpt lat="62.63178051807" lon="17.969580990527">
        <ele>76.8</ele>
        <time>2017-12-11T18:44:13Z</time>
      </trkpt>
      <trkpt lat="62.631803316838" lon="17.969571770437">
        <ele>76.8</ele>
        <time>2017-12-11T18:44:14Z</time>
      </trkpt>
      <trkpt lat="62.631823349579" lon="17.969567914763">
        <ele>76.6</ele>
        <time>2017-12-11T18:44:15Z</time>
      </trkpt>
      <trkpt lat="62.631845561614" lon="17.96956062251">
        <ele>76.6</ele>
        <time>2017-12-11T18:44:16Z</time>
      </trkpt>
      <trkpt lat="62.631864504708" lon="17.969556180103">
        <ele>76.6</ele>
        <time>2017-12-11T18:44:17Z</time>
      </trkpt>
      <trkpt lat="62.631886884381" lon="17.969558443216">
        <ele>76.6</ele>
        <time>2017-12-11T18:44:18Z</time>
      </trkpt>
      <trkpt lat="62.631910186063" lon="17.969560790148">
        <ele>76.6</ele>
        <time>2017-12-11T18:44:19Z</time>
      </trkpt>
      <trkpt lat="62.631931140813" lon="17.969556934474">
        <ele>76.8</ele>
        <time>2017-12-11T18:44:20Z</time>
      </trkpt>
      <trkpt lat="62.631955364504" lon="17.969554168447">
        <ele>76.8</ele>
        <time>2017-12-11T18:44:21Z</time>
      </trkpt>
      <trkpt lat="62.631979839652" lon="17.969551989153">
        <ele>76.8</ele>
        <time>2017-12-11T18:44:22Z</time>
      </trkpt>
      <trkpt lat="62.631999034203" lon="17.969549306945">
        <ele>77</ele>
        <time>2017-12-11T18:44:23Z</time>
      </trkpt>
      <trkpt lat="62.632025856283" lon="17.969545115995">
        <ele>77</ele>
        <time>2017-12-11T18:44:24Z</time>
      </trkpt>
      <trkpt lat="62.632049409422" lon="17.969540589769">
        <ele>77.2</ele>
        <time>2017-12-11T18:44:25Z</time>
      </trkpt>
      <trkpt lat="62.632072292009" lon="17.969536817914">
        <ele>77.2</ele>
        <time>2017-12-11T18:44:26Z</time>
      </trkpt>
      <trkpt lat="62.632097186252" lon="17.969531704955">
        <ele>77.2</ele>
        <time>2017-12-11T18:44:27Z</time>
      </trkpt>
      <trkpt lat="62.632121493762" lon="17.96952374215">
        <ele>77.2</ele>
        <time>2017-12-11T18:44:28Z</time>
      </trkpt>
      <trkpt lat="62.632146052729" lon="17.969520808485">
        <ele>77.2</ele>
        <time>2017-12-11T18:44:29Z</time>
      </trkpt>
      <trkpt lat="62.632172120438" lon="17.969514773517">
        <ele>77.2</ele>
        <time>2017-12-11T18:44:30Z</time>
      </trkpt>
      <trkpt lat="62.632200618898" lon="17.96950530197">
        <ele>77.2</ele>
        <time>2017-12-11T18:44:31Z</time>
      </trkpt>
      <trkpt lat="62.632225094046" lon="17.96949692007">
        <ele>77.2</ele>
        <time>2017-12-11T18:44:32Z</time>
      </trkpt>
      <trkpt lat="62.632246132615" lon="17.969493315853">
        <ele>77.2</ele>
        <time>2017-12-11T18:44:33Z</time>
      </trkpt>
      <trkpt lat="62.632274128161" lon="17.969488119075">
        <ele>77.2</ele>
        <time>2017-12-11T18:44:34Z</time>
      </trkpt>
      <trkpt lat="62.632296591653" lon="17.969481581193">
        <ele>77.2</ele>
        <time>2017-12-11T18:44:35Z</time>
      </trkpt>
      <trkpt lat="62.632323581371" lon="17.969477306424">
        <ele>77.2</ele>
        <time>2017-12-11T18:44:36Z</time>
      </trkpt>
      <trkpt lat="62.632348978528" lon="17.969477725519">
        <ele>77.2</ele>
        <time>2017-12-11T18:44:37Z</time>
      </trkpt>
      <trkpt lat="62.632370100916" lon="17.969478731347">
        <ele>77.2</ele>
        <time>2017-12-11T18:44:38Z</time>
      </trkpt>
      <trkpt lat="62.632396839177" lon="17.969485604505">
        <ele>77.2</ele>
        <time>2017-12-11T18:44:39Z</time>
      </trkpt>
      <trkpt lat="62.632421062868" lon="17.969489963093">
        <ele>77.2</ele>
        <time>2017-12-11T18:44:40Z</time>
      </trkpt>
      <trkpt lat="62.632442101437" lon="17.969487280885">
        <ele>77.2</ele>
        <time>2017-12-11T18:44:41Z</time>
      </trkpt>
      <trkpt lat="62.632466241309" lon="17.96948686179">
        <ele>77.2</ele>
        <time>2017-12-11T18:44:42Z</time>
      </trkpt>
      <trkpt lat="62.632489291534" lon="17.969480240089">
        <ele>77.2</ele>
        <time>2017-12-11T18:44:43Z</time>
      </trkpt>
      <trkpt lat="62.632515778338" lon="17.969475797682">
        <ele>77.2</ele>
        <time>2017-12-11T18:44:44Z</time>
      </trkpt>
      <trkpt lat="62.632540253486" lon="17.969481497374">
        <ele>77.2</ele>
        <time>2017-12-11T18:44:45Z</time>
      </trkpt>
      <trkpt lat="62.632564980091" lon="17.969486777971">
        <ele>77.2</ele>
        <time>2017-12-11T18:44:46Z</time>
      </trkpt>
      <trkpt lat="62.632588617049" lon="17.969486442695">
        <ele>77.2</ele>
        <time>2017-12-11T18:44:47Z</time>
      </trkpt>
      <trkpt lat="62.632612673102" lon="17.969489543998">
        <ele>77.2</ele>
        <time>2017-12-11T18:44:48Z</time>
      </trkpt>
      <trkpt lat="62.632638740811" lon="17.969496417156">
        <ele>77.2</ele>
        <time>2017-12-11T18:44:49Z</time>
      </trkpt>
      <trkpt lat="62.632661874855" lon="17.969498261174">
        <ele>77.2</ele>
        <time>2017-12-11T18:44:50Z</time>
      </trkpt>
      <trkpt lat="62.632684422166" lon="17.969500943382">
        <ele>77.2</ele>
        <time>2017-12-11T18:44:51Z</time>
      </trkpt>
      <trkpt lat="62.632708310581" lon="17.969514773517">
        <ele>77.2</ele>
        <time>2017-12-11T18:44:52Z</time>
      </trkpt>
      <trkpt lat="62.632728762417" lon="17.969522736322">
        <ele>77.4</ele>
        <time>2017-12-11T18:44:53Z</time>
      </trkpt>
      <trkpt lat="62.632754913945" lon="17.969522820141">
        <ele>77.4</ele>
        <time>2017-12-11T18:44:54Z</time>
      </trkpt>
      <trkpt lat="62.632782406577" lon="17.969535057715">
        <ele>77.4</ele>
        <time>2017-12-11T18:44:55Z</time>
      </trkpt>
      <trkpt lat="62.632808306648" lon="17.969540673588">
        <ele>77.4</ele>
        <time>2017-12-11T18:44:56Z</time>
      </trkpt>
      <trkpt lat="62.632832278882" lon="17.96954721147">
        <ele>77.6</ele>
        <time>2017-12-11T18:44:57Z</time>
      </trkpt>
      <trkpt lat="62.632854993831" lon="17.96955559337">
        <ele>77.6</ele>
        <time>2017-12-11T18:44:58Z</time>
      </trkpt>
      <trkpt lat="62.632881564454" lon="17.969562634166">
        <ele>77.6</ele>
        <time>2017-12-11T18:44:59Z</time>
      </trkpt>
      <trkpt lat="62.63290536905" lon="17.969568082401">
        <ele>77.8</ele>
        <time>2017-12-11T18:45:00Z</time>
      </trkpt>
      <trkpt lat="62.632932274949" lon="17.969571183704">
        <ele>77.8</ele>
        <time>2017-12-11T18:45:01Z</time>
      </trkpt>
      <trkpt lat="62.632956750097" lon="17.969578559776">
        <ele>77.8</ele>
        <time>2017-12-11T18:45:02Z</time>
      </trkpt>
      <trkpt lat="62.632977537209" lon="17.969581996355">
        <ele>77.8</ele>
        <time>2017-12-11T18:45:03Z</time>
      </trkpt>
      <trkpt lat="62.633006035669" lon="17.969587779866">
        <ele>78</ele>
        <time>2017-12-11T18:45:04Z</time>
      </trkpt>
      <trkpt lat="62.633029672627" lon="17.969590964988">
        <ele>78</ele>
        <time>2017-12-11T18:45:05Z</time>
      </trkpt>
      <trkpt lat="62.63305372868" lon="17.969593731015">
        <ele>78</ele>
        <time>2017-12-11T18:45:06Z</time>
      </trkpt>
      <trkpt lat="62.633080047846" lon="17.969599346888">
        <ele>78</ele>
        <time>2017-12-11T18:45:07Z</time>
      </trkpt>
      <trkpt lat="62.633103014252" lon="17.969605717132">
        <ele>78</ele>
        <time>2017-12-11T18:45:08Z</time>
      </trkpt>
      <trkpt lat="62.633128746685" lon="17.969611249186">
        <ele>78.2</ele>
        <time>2017-12-11T18:45:09Z</time>
      </trkpt>
      <trkpt lat="62.633154395299" lon="17.969618373801">
        <ele>78.2</ele>
        <time>2017-12-11T18:45:10Z</time>
      </trkpt>
      <trkpt lat="62.633178786628" lon="17.969625666054">
        <ele>78.2</ele>
        <time>2017-12-11T18:45:11Z</time>
      </trkpt>
      <trkpt lat="62.633204099966" lon="17.969627258615">
        <ele>78.2</ele>
        <time>2017-12-11T18:45:12Z</time>
      </trkpt>
      <trkpt lat="62.633228994209" lon="17.969626671882">
        <ele>78.2</ele>
        <time>2017-12-11T18:45:13Z</time>
      </trkpt>
      <trkpt lat="62.633255983927" lon="17.969627929167">
        <ele>78.2</ele>
        <time>2017-12-11T18:45:14Z</time>
      </trkpt>
      <trkpt lat="62.633278698876" lon="17.969622564751">
        <ele>78.2</ele>
        <time>2017-12-11T18:45:15Z</time>
      </trkpt>
      <trkpt lat="62.63330518568" lon="17.969610410996">
        <ele>78.2</ele>
        <time>2017-12-11T18:45:16Z</time>
      </trkpt>
      <trkpt lat="62.63332697862" lon="17.96959331192">
        <ele>78.4</ele>
        <time>2017-12-11T18:45:17Z</time>
      </trkpt>
      <trkpt lat="62.633345586438" lon="17.969568250039">
        <ele>78.4</ele>
        <time>2017-12-11T18:45:18Z</time>
      </trkpt>
      <trkpt lat="62.633364361894" lon="17.969526927272">
        <ele>78.4</ele>
        <time>2017-12-11T18:45:19Z</time>
      </trkpt>
      <trkpt lat="62.633379281676" lon="17.969478396071">
        <ele>78.4</ele>
        <time>2017-12-11T18:45:20Z</time>
      </trkpt>
      <trkpt lat="62.633390094327" lon="17.969429529594">
        <ele>78.4</ele>
        <time>2017-12-11T18:45:21Z</time>
      </trkpt>
      <trkpt lat="62.633400236426" lon="17.969374795787">
        <ele>78.2</ele>
        <time>2017-12-11T18:45:22Z</time>
      </trkpt>
      <trkpt lat="62.633411132896" lon="17.96932592931">
        <ele>78.2</ele>
        <time>2017-12-11T18:45:23Z</time>
      </trkpt>
      <trkpt lat="62.633422616099" lon="17.969263819431">
        <ele>78.2</ele>
        <time>2017-12-11T18:45:24Z</time>
      </trkpt>
      <trkpt lat="62.633433931664" lon="17.969210426728">
        <ele>78</ele>
        <time>2017-12-11T18:45:25Z</time>
      </trkpt>
      <trkpt lat="62.63344432522" lon="17.96915577674">
        <ele>78</ele>
        <time>2017-12-11T18:45:26Z</time>
      </trkpt>
      <trkpt lat="62.633447342704" lon="17.96909961801">
        <ele>77.6</ele>
        <time>2017-12-11T18:45:27Z</time>
      </trkpt>
      <trkpt lat="62.633451785111" lon="17.96904932661">
        <ele>77.6</ele>
        <time>2017-12-11T18:45:28Z</time>
      </trkpt>
      <trkpt lat="62.633458825907" lon="17.968992497328">
        <ele>77.6</ele>
        <time>2017-12-11T18:45:29Z</time>
      </trkpt>
      <trkpt lat="62.633464944694" lon="17.968936757693">
        <ele>77.6</ele>
        <time>2017-12-11T18:45:30Z</time>
      </trkpt>
      <trkpt lat="62.633469135644" lon="17.968875402185">
        <ele>77.4</ele>
        <time>2017-12-11T18:45:31Z</time>
      </trkpt>
      <trkpt lat="62.63347701463" lon="17.968813292306">
        <ele>77.4</ele>
        <time>2017-12-11T18:45:32Z</time>
      </trkpt>
      <trkpt lat="62.633482630503" lon="17.96875931287">
        <ele>77.2</ele>
        <time>2017-12-11T18:45:33Z</time>
      </trkpt>
      <trkpt lat="62.633490174213" lon="17.968701142484">
        <ele>77</ele>
        <time>2017-12-11T18:45:34Z</time>
      </trkpt>
      <trkpt lat="62.633495706267" lon="17.968643726469">
        <ele>76.8</ele>
        <time>2017-12-11T18:45:35Z</time>
      </trkpt>
      <trkpt lat="62.633501154502" lon="17.968597290743">
        <ele>76.4</ele>
        <time>2017-12-11T18:45:36Z</time>
      </trkpt>
      <trkpt lat="62.633509201126" lon="17.968525709317">
        <ele>76.4</ele>
        <time>2017-12-11T18:45:37Z</time>
      </trkpt>
      <trkpt lat="62.633514649361" lon="17.968472148976">
        <ele>76.2</ele>
        <time>2017-12-11T18:45:38Z</time>
      </trkpt>
      <trkpt lat="62.633521522519" lon="17.968409703821">
        <ele>76</ele>
        <time>2017-12-11T18:45:39Z</time>
      </trkpt>
      <trkpt lat="62.633525713469" lon="17.968353964186">
        <ele>75.8</ele>
        <time>2017-12-11T18:45:40Z</time>
      </trkpt>
      <trkpt lat="62.633530407333" lon="17.96829998475">
        <ele>75.6</ele>
        <time>2017-12-11T18:45:41Z</time>
      </trkpt>
      <trkpt lat="62.633537029034" lon="17.968233516283">
        <ele>75.2</ele>
        <time>2017-12-11T18:45:42Z</time>
      </trkpt>
      <trkpt lat="62.633541722898" lon="17.96818263815">
        <ele>75</ele>
        <time>2017-12-11T18:45:43Z</time>
      </trkpt>
      <trkpt lat="62.633545830029" lon="17.968124383945">
        <ele>74.8</ele>
        <time>2017-12-11T18:45:44Z</time>
      </trkpt>
      <trkpt lat="62.633550523893" lon="17.968067135568">
        <ele>74.6</ele>
        <time>2017-12-11T18:45:45Z</time>
      </trkpt>
      <trkpt lat="62.633556977956" lon="17.968005528603">
        <ele>74.4</ele>
        <time>2017-12-11T18:45:46Z</time>
      </trkpt>
      <trkpt lat="62.633560582173" lon="17.967955991574">
        <ele>74.2</ele>
        <time>2017-12-11T18:45:47Z</time>
      </trkpt>
      <trkpt lat="62.633565276037" lon="17.967898994654">
        <ele>74</ele>
        <time>2017-12-11T18:45:48Z</time>
      </trkpt>
      <trkpt lat="62.633570137539" lon="17.96784149482">
        <ele>73.8</ele>
        <time>2017-12-11T18:45:49Z</time>
      </trkpt>
      <trkpt lat="62.633575585774" lon="17.967789107945">
        <ele>73.6</ele>
        <time>2017-12-11T18:45:50Z</time>
      </trkpt>
      <trkpt lat="62.633582878027" lon="17.967732278663">
        <ele>73.4</ele>
        <time>2017-12-11T18:45:51Z</time>
      </trkpt>
      <trkpt lat="62.633593606859" lon="17.967669414413">
        <ele>73.4</ele>
        <time>2017-12-11T18:45:52Z</time>
      </trkpt>
      <trkpt lat="62.633598468361" lon="17.967624571248">
        <ele>73.2</ele>
        <time>2017-12-11T18:45:53Z</time>
      </trkpt>
      <trkpt lat="62.633602910768" lon="17.967565646491">
        <ele>73</ele>
        <time>2017-12-11T18:45:54Z</time>
      </trkpt>
      <trkpt lat="62.633610957392" lon="17.96751208615">
        <ele>72.8</ele>
        <time>2017-12-11T18:45:55Z</time>
      </trkpt>
      <trkpt lat="62.633616908541" lon="17.967455340687">
        <ele>72.8</ele>
        <time>2017-12-11T18:45:56Z</time>
      </trkpt>
      <trkpt lat="62.633623027328" lon="17.967403792002">
        <ele>72.6</ele>
        <time>2017-12-11T18:45:57Z</time>
      </trkpt>
      <trkpt lat="62.633631073952" lon="17.967352997688">
        <ele>72.2</ele>
        <time>2017-12-11T18:45:58Z</time>
      </trkpt>
      <trkpt lat="62.633640294042" lon="17.967297425691">
        <ele>72</ele>
        <time>2017-12-11T18:45:59Z</time>
      </trkpt>
      <trkpt lat="62.633647251019" lon="17.967243530074">
        <ele>71.6</ele>
        <time>2017-12-11T18:46:00Z</time>
      </trkpt>
      <trkpt lat="62.633653956539" lon="17.967184605317">
        <ele>71.4</ele>
        <time>2017-12-11T18:46:01Z</time>
      </trkpt>
      <trkpt lat="62.633663008991" lon="17.967130290605">
        <ele>71.2</ele>
        <time>2017-12-11T18:46:02Z</time>
      </trkpt>
      <trkpt lat="62.63366979833" lon="17.967077652273">
        <ele>70.8</ele>
        <time>2017-12-11T18:46:03Z</time>
      </trkpt>
      <trkpt lat="62.633676671488" lon="17.967018643697">
        <ele>70.6</ele>
        <time>2017-12-11T18:46:04Z</time>
      </trkpt>
      <trkpt lat="62.633682622637" lon="17.96695804256">
        <ele>70.4</ele>
        <time>2017-12-11T18:46:05Z</time>
      </trkpt>
      <trkpt lat="62.633689495795" lon="17.966892915197">
        <ele>70.2</ele>
        <time>2017-12-11T18:46:06Z</time>
      </trkpt>
      <trkpt lat="62.633694860211" lon="17.966833319888">
        <ele>70</ele>
        <time>2017-12-11T18:46:07Z</time>
      </trkpt>
      <trkpt lat="62.633701565731" lon="17.966777664072">
        <ele>69.8</ele>
        <time>2017-12-11T18:46:08Z</time>
      </trkpt>
      <trkpt lat="62.633710785821" lon="17.966714632184">
        <ele>69.4</ele>
        <time>2017-12-11T18:46:09Z</time>
      </trkpt>
      <trkpt lat="62.633717072246" lon="17.966654450142">
        <ele>69.2</ele>
        <time>2017-12-11T18:46:10Z</time>
      </trkpt>
      <trkpt lat="62.633721347015" lon="17.966600303068">
        <ele>69</ele>
        <time>2017-12-11T18:46:11Z</time>
      </trkpt>
      <trkpt lat="62.633728890725" lon="17.96653727118">
        <ele>68.6</ele>
        <time>2017-12-11T18:46:12Z</time>
      </trkpt>
      <trkpt lat="62.633735680064" lon="17.966484549029">
        <ele>68.6</ele>
        <time>2017-12-11T18:46:13Z</time>
      </trkpt>
      <trkpt lat="62.633743475231" lon="17.966422858245">
        <ele>68.4</ele>
        <time>2017-12-11T18:46:14Z</time>
      </trkpt>
      <trkpt lat="62.63375110276" lon="17.966368459714">
        <ele>68.2</ele>
        <time>2017-12-11T18:46:15Z</time>
      </trkpt>
      <trkpt lat="62.633759065565" lon="17.966306517473">
        <ele>68.2</ele>
        <time>2017-12-11T18:46:16Z</time>
      </trkpt>
      <trkpt lat="62.633766776913" lon="17.966250861657">
        <ele>68</ele>
        <time>2017-12-11T18:46:17Z</time>
      </trkpt>
      <trkpt lat="62.633773398614" lon="17.966190763434">
        <ele>67.8</ele>
        <time>2017-12-11T18:46:18Z</time>
      </trkpt>
      <trkpt lat="62.633781612876" lon="17.966127228632">
        <ele>67.6</ele>
        <time>2017-12-11T18:46:19Z</time>
      </trkpt>
      <trkpt lat="62.63378798312" lon="17.966074757938">
        <ele>67.2</ele>
        <time>2017-12-11T18:46:20Z</time>
      </trkpt>
      <trkpt lat="62.633790832966" lon="17.966014911172">
        <ele>67</ele>
        <time>2017-12-11T18:46:21Z</time>
      </trkpt>
      <trkpt lat="62.633797622305" lon="17.965952382198">
        <ele>66.6</ele>
        <time>2017-12-11T18:46:22Z</time>
      </trkpt>
      <trkpt lat="62.633800891246" lon="17.965904018635">
        <ele>66.2</ele>
        <time>2017-12-11T18:46:23Z</time>
      </trkpt>
      <trkpt lat="62.633803824911" lon="17.965835538512">
        <ele>66</ele>
        <time>2017-12-11T18:46:24Z</time>
      </trkpt>
      <trkpt lat="62.633807093852" lon="17.965772255167">
        <ele>66</ele>
        <time>2017-12-11T18:46:25Z</time>
      </trkpt>
      <trkpt lat="62.633809440784" lon="17.965716096437">
        <ele>65.8</ele>
        <time>2017-12-11T18:46:26Z</time>
      </trkpt>
      <trkpt lat="62.633809859879" lon="17.965660440621">
        <ele>65.6</ele>
        <time>2017-12-11T18:46:27Z</time>
      </trkpt>
      <trkpt lat="62.633809608422" lon="17.965605790633">
        <ele>65.2</ele>
        <time>2017-12-11T18:46:28Z</time>
      </trkpt>
      <trkpt lat="62.633810111336" lon="17.965549464265">
        <ele>65</ele>
        <time>2017-12-11T18:46:29Z</time>
      </trkpt>
      <trkpt lat="62.633808351137" lon="17.9654962392">
        <ele>64.8</ele>
        <time>2017-12-11T18:46:30Z</time>
      </trkpt>
      <trkpt lat="62.633808351137" lon="17.96543672771">
        <ele>64.6</ele>
        <time>2017-12-11T18:46:31Z</time>
      </trkpt>
      <trkpt lat="62.633807345309" lon="17.965383251188">
        <ele>64.4</ele>
        <time>2017-12-11T18:46:32Z</time>
      </trkpt>
      <trkpt lat="62.633805249834" lon="17.965336647824">
        <ele>64.4</ele>
        <time>2017-12-11T18:46:33Z</time>
      </trkpt>
      <trkpt lat="62.633801477979" lon="17.965282668388">
        <ele>64.2</ele>
        <time>2017-12-11T18:46:34Z</time>
      </trkpt>
      <trkpt lat="62.633797957581" lon="17.96523472392">
        <ele>64</ele>
        <time>2017-12-11T18:46:35Z</time>
      </trkpt>
      <trkpt lat="62.633794772459" lon="17.965183510511">
        <ele>63.8</ele>
        <time>2017-12-11T18:46:36Z</time>
      </trkpt>
      <trkpt lat="62.633790749147" lon="17.965136488052">
        <ele>63.8</ele>
        <time>2017-12-11T18:46:37Z</time>
      </trkpt>
      <trkpt lat="62.633787396387" lon="17.965094830009">
        <ele>63.6</ele>
        <time>2017-12-11T18:46:38Z</time>
      </trkpt>
      <trkpt lat="62.63378463036" lon="17.965049735387">
        <ele>63.4</ele>
        <time>2017-12-11T18:46:39Z</time>
      </trkpt>
      <trkpt lat="62.633780020315" lon="17.965010508095">
        <ele>63.4</ele>
        <time>2017-12-11T18:46:40Z</time>
      </trkpt>
      <trkpt lat="62.633781612876" lon="17.964962479808">
        <ele>63</ele>
        <time>2017-12-11T18:46:41Z</time>
      </trkpt>
      <trkpt lat="62.633786390559" lon="17.96491453534">
        <ele>62.8</ele>
        <time>2017-12-11T18:46:42Z</time>
      </trkpt>
      <trkpt lat="62.633795694468" lon="17.964877152066">
        <ele>62.6</ele>
        <time>2017-12-11T18:46:43Z</time>
      </trkpt>
      <trkpt lat="62.633809943698" lon="17.964836918946">
        <ele>62.2</ele>
        <time>2017-12-11T18:46:44Z</time>
      </trkpt>
      <trkpt lat="62.633825114937" lon="17.964809426314">
        <ele>62.2</ele>
        <time>2017-12-11T18:46:45Z</time>
      </trkpt>
      <trkpt lat="62.633843387479" lon="17.964789225935">
        <ele>62</ele>
        <time>2017-12-11T18:46:46Z</time>
      </trkpt>
      <trkpt lat="62.633865599514" lon="17.964782520415">
        <ele>61.8</ele>
        <time>2017-12-11T18:46:47Z</time>
      </trkpt>
      <trkpt lat="62.633891415766" lon="17.964782855691">
        <ele>61.8</ele>
        <time>2017-12-11T18:46:48Z</time>
      </trkpt>
      <trkpt lat="62.633916477647" lon="17.964780089664">
        <ele>61.6</ele>
        <time>2017-12-11T18:46:49Z</time>
      </trkpt>
      <trkpt lat="62.63394221008" lon="17.964780257302">
        <ele>61.4</ele>
        <time>2017-12-11T18:46:50Z</time>
      </trkpt>
      <trkpt lat="62.633965260305" lon="17.964779000017">
        <ele>61.4</ele>
        <time>2017-12-11T18:46:51Z</time>
      </trkpt>
      <trkpt lat="62.633986466512" lon="17.96476449933">
        <ele>61.2</ele>
        <time>2017-12-11T18:46:52Z</time>
      </trkpt>
      <trkpt lat="62.634006163977" lon="17.964740946191">
        <ele>61.2</ele>
        <time>2017-12-11T18:46:53Z</time>
      </trkpt>
      <trkpt lat="62.634031477315" lon="17.964712112455">
        <ele>61.2</ele>
        <time>2017-12-11T18:46:54Z</time>
      </trkpt>
      <trkpt lat="62.634053856988" lon="17.964689565144">
        <ele>61.2</ele>
        <time>2017-12-11T18:46:55Z</time>
      </trkpt>
      <trkpt lat="62.634079086507" lon="17.964672046973">
        <ele>61</ele>
        <time>2017-12-11T18:46:56Z</time>
      </trkpt>
      <trkpt lat="62.634103394017" lon="17.964665257634">
        <ele>61</ele>
        <time>2017-12-11T18:46:57Z</time>
      </trkpt>
      <trkpt lat="62.634126025147" lon="17.964661653417">
        <ele>61</ele>
        <time>2017-12-11T18:46:58Z</time>
      </trkpt>
      <trkpt lat="62.634152931046" lon="17.964657797743">
        <ele>61</ele>
        <time>2017-12-11T18:46:59Z</time>
      </trkpt>
      <trkpt lat="62.634179166393" lon="17.964655618449">
        <ele>60.8</ele>
        <time>2017-12-11T18:47:00Z</time>
      </trkpt>
      <trkpt lat="62.634205485559" lon="17.964658300657">
        <ele>60.8</ele>
        <time>2017-12-11T18:47:01Z</time>
      </trkpt>
      <trkpt lat="62.634232559096" lon="17.964661821055">
        <ele>60.8</ele>
        <time>2017-12-11T18:47:02Z</time>
      </trkpt>
      <trkpt lat="62.634258459167" lon="17.964661821055">
        <ele>60.6</ele>
        <time>2017-12-11T18:47:03Z</time>
      </trkpt>
      <trkpt lat="62.634285113609" lon="17.964660815227">
        <ele>60.6</ele>
        <time>2017-12-11T18:47:04Z</time>
      </trkpt>
      <trkpt lat="62.634309588757" lon="17.964657713924">
        <ele>60.4</ele>
        <time>2017-12-11T18:47:05Z</time>
      </trkpt>
      <trkpt lat="62.634338338674" lon="17.964659390304">
        <ele>60.4</ele>
        <time>2017-12-11T18:47:06Z</time>
      </trkpt>
      <trkpt lat="62.634363987288" lon="17.964660731408">
        <ele>60.4</ele>
        <time>2017-12-11T18:47:07Z</time>
      </trkpt>
      <trkpt lat="62.634387875703" lon="17.964662994521">
        <ele>60.4</ele>
        <time>2017-12-11T18:47:08Z</time>
      </trkpt>
      <trkpt lat="62.634417631448" lon="17.964666179643">
        <ele>60.4</ele>
        <time>2017-12-11T18:47:09Z</time>
      </trkpt>
      <trkpt lat="62.634442693329" lon="17.964666263462">
        <ele>60.2</ele>
        <time>2017-12-11T18:47:10Z</time>
      </trkpt>
      <trkpt lat="62.634465575916" lon="17.964667101652">
        <ele>60.2</ele>
        <time>2017-12-11T18:47:11Z</time>
      </trkpt>
      <trkpt lat="62.634494074376" lon="17.964668442756">
        <ele>60.2</ele>
        <time>2017-12-11T18:47:12Z</time>
      </trkpt>
      <trkpt lat="62.634518381886" lon="17.964667856023">
        <ele>60</ele>
        <time>2017-12-11T18:47:13Z</time>
      </trkpt>
      <trkpt lat="62.634545455423" lon="17.964667185471">
        <ele>60</ele>
        <time>2017-12-11T18:47:14Z</time>
      </trkpt>
      <trkpt lat="62.634569511476" lon="17.964668358937">
        <ele>60</ele>
        <time>2017-12-11T18:47:15Z</time>
      </trkpt>
      <trkpt lat="62.634597339384" lon="17.96466894567">
        <ele>60</ele>
        <time>2017-12-11T18:47:16Z</time>
      </trkpt>
      <trkpt lat="62.634622401265" lon="17.964667436928">
        <ele>60</ele>
        <time>2017-12-11T18:47:17Z</time>
      </trkpt>
      <trkpt lat="62.634649390983" lon="17.964669029489">
        <ele>59.8</ele>
        <time>2017-12-11T18:47:18Z</time>
      </trkpt>
      <trkpt lat="62.634677554167" lon="17.964669616222">
        <ele>59.8</ele>
        <time>2017-12-11T18:47:19Z</time>
      </trkpt>
      <trkpt lat="62.634704208609" lon="17.964670286774">
        <ele>59.8</ele>
        <time>2017-12-11T18:47:20Z</time>
      </trkpt>
      <trkpt lat="62.634731198327" lon="17.96466894567">
        <ele>59.8</ele>
        <time>2017-12-11T18:47:21Z</time>
      </trkpt>
      <trkpt lat="62.63475776895" lon="17.964668358937">
        <ele>59.8</ele>
        <time>2017-12-11T18:47:22Z</time>
      </trkpt>
      <trkpt lat="62.63478123827" lon="17.964664335625">
        <ele>59.6</ele>
        <time>2017-12-11T18:47:23Z</time>
      </trkpt>
      <trkpt lat="62.634811916024" lon="17.964662826883">
        <ele>59.6</ele>
        <time>2017-12-11T18:47:24Z</time>
      </trkpt>
      <trkpt lat="62.634835972077" lon="17.964657881562">
        <ele>59.4</ele>
        <time>2017-12-11T18:47:25Z</time>
      </trkpt>
      <trkpt lat="62.63486170451" lon="17.964656456639">
        <ele>59.4</ele>
        <time>2017-12-11T18:47:26Z</time>
      </trkpt>
      <trkpt lat="62.634886598753" lon="17.964654780259">
        <ele>59.4</ele>
        <time>2017-12-11T18:47:27Z</time>
      </trkpt>
      <trkpt lat="62.63490948134" lon="17.964647068911">
        <ele>59.2</ele>
        <time>2017-12-11T18:47:28Z</time>
      </trkpt>
      <trkpt lat="62.634934375583" lon="17.964639860477">
        <ele>59.2</ele>
        <time>2017-12-11T18:47:29Z</time>
      </trkpt>
      <trkpt lat="62.634960694749" lon="17.964637262088">
        <ele>59.2</ele>
        <time>2017-12-11T18:47:30Z</time>
      </trkpt>
      <trkpt lat="62.634986091906" lon="17.964630808025">
        <ele>59.2</ele>
        <time>2017-12-11T18:47:31Z</time>
      </trkpt>
      <trkpt lat="62.635011572882" lon="17.964624353962">
        <ele>59</ele>
        <time>2017-12-11T18:47:32Z</time>
      </trkpt>
      <trkpt lat="62.635037053858" lon="17.964619241003">
        <ele>59</ele>
        <time>2017-12-11T18:47:33Z</time>
      </trkpt>
      <trkpt lat="62.635063456843" lon="17.96461111056">
        <ele>59</ele>
        <time>2017-12-11T18:47:34Z</time>
      </trkpt>
      <trkpt lat="62.635088351086" lon="17.964602393384">
        <ele>59</ele>
        <time>2017-12-11T18:47:35Z</time>
      </trkpt>
      <trkpt lat="62.635116849546" lon="17.964591329276">
        <ele>59</ele>
        <time>2017-12-11T18:47:36Z</time>
      </trkpt>
      <trkpt lat="62.635140318866" lon="17.964578840245">
        <ele>58.8</ele>
        <time>2017-12-11T18:47:37Z</time>
      </trkpt>
      <trkpt lat="62.635162866177" lon="17.964569368698">
        <ele>58.8</ele>
        <time>2017-12-11T18:47:38Z</time>
      </trkpt>
      <trkpt lat="62.635190526447" lon="17.964557885495">
        <ele>58.8</ele>
        <time>2017-12-11T18:47:39Z</time>
      </trkpt>
      <trkpt lat="62.635215336871" lon="17.964550844699">
        <ele>58.8</ele>
        <time>2017-12-11T18:47:40Z</time>
      </trkpt>
      <trkpt lat="62.635240650209" lon="17.964544558274">
        <ele>58.8</ele>
        <time>2017-12-11T18:47:41Z</time>
      </trkpt>
      <trkpt lat="62.635269232488" lon="17.9645407026">
        <ele>58.8</ele>
        <time>2017-12-11T18:47:42Z</time>
      </trkpt>
      <trkpt lat="62.635292701808" lon="17.964534080899">
        <ele>58.8</ele>
        <time>2017-12-11T18:47:43Z</time>
      </trkpt>
      <trkpt lat="62.635320445897" lon="17.964527543017">
        <ele>58.8</ele>
        <time>2017-12-11T18:47:44Z</time>
      </trkpt>
      <trkpt lat="62.635345172502" lon="17.964519412574">
        <ele>58.6</ele>
        <time>2017-12-11T18:47:45Z</time>
      </trkpt>
      <trkpt lat="62.635372497496" lon="17.964507510276">
        <ele>58.6</ele>
        <time>2017-12-11T18:47:46Z</time>
      </trkpt>
      <trkpt lat="62.635396972644" lon="17.964493428684">
        <ele>58.4</ele>
        <time>2017-12-11T18:47:47Z</time>
      </trkpt>
      <trkpt lat="62.635423459448" lon="17.964478005988">
        <ele>58.4</ele>
        <time>2017-12-11T18:47:48Z</time>
      </trkpt>
      <trkpt lat="62.635450532985" lon="17.964463170025">
        <ele>58.4</ele>
        <time>2017-12-11T18:47:49Z</time>
      </trkpt>
      <trkpt lat="62.635477522703" lon="17.96444933989">
        <ele>58.2</ele>
        <time>2017-12-11T18:47:50Z</time>
      </trkpt>
      <trkpt lat="62.635505602068" lon="17.964436431764">
        <ele>58.2</ele>
        <time>2017-12-11T18:47:51Z</time>
      </trkpt>
      <trkpt lat="62.635530915406" lon="17.964421595801">
        <ele>58.2</ele>
        <time>2017-12-11T18:47:52Z</time>
      </trkpt>
      <trkpt lat="62.635552289251" lon="17.964409525865">
        <ele>58</ele>
        <time>2017-12-11T18:47:53Z</time>
      </trkpt>
      <trkpt lat="62.63558087153" lon="17.96439485754">
        <ele>58</ele>
        <time>2017-12-11T18:47:54Z</time>
      </trkpt>
      <trkpt lat="62.63560517904" lon="17.964380775948">
        <ele>58</ele>
        <time>2017-12-11T18:47:55Z</time>
      </trkpt>
      <trkpt lat="62.635629738007" lon="17.964364095967">
        <ele>57.8</ele>
        <time>2017-12-11T18:47:56Z</time>
      </trkpt>
      <trkpt lat="62.63565463225" lon="17.964348337995">
        <ele>57.8</ele>
        <time>2017-12-11T18:47:57Z</time>
      </trkpt>
      <trkpt lat="62.635675670819" lon="17.964336519516">
        <ele>57.8</ele>
        <time>2017-12-11T18:47:58Z</time>
      </trkpt>
      <trkpt lat="62.635698804863" lon="17.964319001345">
        <ele>57.8</ele>
        <time>2017-12-11T18:47:59Z</time>
      </trkpt>
      <trkpt lat="62.635724034382" lon="17.964308104875">
        <ele>57.8</ele>
        <time>2017-12-11T18:48:00Z</time>
      </trkpt>
      <trkpt lat="62.635749431539" lon="17.964294107102">
        <ele>57.8</ele>
        <time>2017-12-11T18:48:01Z</time>
      </trkpt>
      <trkpt lat="62.635774158144" lon="17.964275080189">
        <ele>57.6</ele>
        <time>2017-12-11T18:48:02Z</time>
      </trkpt>
      <trkpt lat="62.635799136206" lon="17.96425739438">
        <ele>57.6</ele>
        <time>2017-12-11T18:48:03Z</time>
      </trkpt>
      <trkpt lat="62.635824617182" lon="17.964238283648">
        <ele>57.6</ele>
        <time>2017-12-11T18:48:04Z</time>
      </trkpt>
      <trkpt lat="62.635848589416" lon="17.964218167088">
        <ele>57.6</ele>
        <time>2017-12-11T18:48:05Z</time>
      </trkpt>
      <trkpt lat="62.63587507622" lon="17.964194278673">
        <ele>57.6</ele>
        <time>2017-12-11T18:48:06Z</time>
      </trkpt>
      <trkpt lat="62.635901563024" lon="17.964173994475">
        <ele>57.6</ele>
        <time>2017-12-11T18:48:07Z</time>
      </trkpt>
      <trkpt lat="62.635922098679" lon="17.96416100253">
        <ele>57.4</ele>
        <time>2017-12-11T18:48:08Z</time>
      </trkpt>
      <trkpt lat="62.635950848596" lon="17.964142729988">
        <ele>57.2</ele>
        <time>2017-12-11T18:48:09Z</time>
      </trkpt>
      <trkpt lat="62.635976916305" lon="17.964111716958">
        <ele>57.2</ele>
        <time>2017-12-11T18:48:10Z</time>
      </trkpt>
      <trkpt lat="62.635998038693" lon="17.96409227095">
        <ele>57.2</ele>
        <time>2017-12-11T18:48:11Z</time>
      </trkpt>
      <trkpt lat="62.636022346203" lon="17.964074501322">
        <ele>57</ele>
        <time>2017-12-11T18:48:12Z</time>
      </trkpt>
      <trkpt lat="62.636046150799" lon="17.964054887676">
        <ele>57</ele>
        <time>2017-12-11T18:48:13Z</time>
      </trkpt>
      <trkpt lat="62.636071799413" lon="17.964027562682">
        <ele>57</ele>
        <time>2017-12-11T18:48:14Z</time>
      </trkpt>
      <trkpt lat="62.636094011448" lon="17.964002752258">
        <ele>57</ele>
        <time>2017-12-11T18:48:15Z</time>
      </trkpt>
      <trkpt lat="62.636119073329" lon="17.963975259626">
        <ele>57</ele>
        <time>2017-12-11T18:48:16Z</time>
      </trkpt>
      <trkpt lat="62.636138519337" lon="17.96395564598">
        <ele>56.8</ele>
        <time>2017-12-11T18:48:17Z</time>
      </trkpt>
      <trkpt lat="62.636160982829" lon="17.963939468913">
        <ele>56.8</ele>
        <time>2017-12-11T18:48:18Z</time>
      </trkpt>
      <trkpt lat="62.636184116873" lon="17.963910467539">
        <ele>56.8</ele>
        <time>2017-12-11T18:48:19Z</time>
      </trkpt>
      <trkpt lat="62.636205155442" lon="17.963884735106">
        <ele>56.6</ele>
        <time>2017-12-11T18:48:20Z</time>
      </trkpt>
      <trkpt lat="62.636226529287" lon="17.963861852519">
        <ele>56.6</ele>
        <time>2017-12-11T18:48:21Z</time>
      </trkpt>
      <trkpt lat="62.636247735494" lon="17.963836036267">
        <ele>56.6</ele>
        <time>2017-12-11T18:48:22Z</time>
      </trkpt>
      <trkpt lat="62.636264666932" lon="17.963812231671">
        <ele>56.6</ele>
        <time>2017-12-11T18:48:23Z</time>
      </trkpt>
      <trkpt lat="62.636288387709" lon="17.963779039347">
        <ele>56.6</ele>
        <time>2017-12-11T18:48:24Z</time>
      </trkpt>
      <trkpt lat="62.636309593916" lon="17.963752468724">
        <ele>56.6</ele>
        <time>2017-12-11T18:48:25Z</time>
      </trkpt>
      <trkpt lat="62.636327112087" lon="17.963732268345">
        <ele>56.6</ele>
        <time>2017-12-11T18:48:26Z</time>
      </trkpt>
      <trkpt lat="62.636345552267" lon="17.963709553396">
        <ele>56.6</ele>
        <time>2017-12-11T18:48:27Z</time>
      </trkpt>
      <trkpt lat="62.636365501189" lon="17.963683988601">
        <ele>56.4</ele>
        <time>2017-12-11T18:48:28Z</time>
      </trkpt>
      <trkpt lat="62.636387294129" lon="17.9636606031">
        <ele>56.4</ele>
        <time>2017-12-11T18:48:29Z</time>
      </trkpt>
      <trkpt lat="62.636407997422" lon="17.963652891752">
        <ele>56.2</ele>
        <time>2017-12-11T18:48:30Z</time>
      </trkpt>
      <trkpt lat="62.636432724027" lon="17.963659261996">
        <ele>56.4</ele>
        <time>2017-12-11T18:48:31Z</time>
      </trkpt>
      <trkpt lat="62.636455858071" lon="17.963667224801">
        <ele>56.4</ele>
        <time>2017-12-11T18:48:32Z</time>
      </trkpt>
      <trkpt lat="62.636478237744" lon="17.96367569052">
        <ele>56.4</ele>
        <time>2017-12-11T18:48:33Z</time>
      </trkpt>
      <trkpt lat="62.636500449779" lon="17.963699578935">
        <ele>56.4</ele>
        <time>2017-12-11T18:48:34Z</time>
      </trkpt>
      <trkpt lat="62.636517297398" lon="17.963722964436">
        <ele>56.4</ele>
        <time>2017-12-11T18:48:35Z</time>
      </trkpt>
      <trkpt lat="62.636532300999" lon="17.963750121792">
        <ele>56.2</ele>
        <time>2017-12-11T18:48:36Z</time>
      </trkpt>
      <trkpt lat="62.636552920473" lon="17.963800748468">
        <ele>56</ele>
        <time>2017-12-11T18:48:37Z</time>
      </trkpt>
      <trkpt lat="62.636564990409" lon="17.963832180593">
        <ele>56</ele>
        <time>2017-12-11T18:48:38Z</time>
      </trkpt>
      <trkpt lat="62.636581167476" lon="17.963872748989">
        <ele>56</ele>
        <time>2017-12-11T18:48:39Z</time>
      </trkpt>
      <trkpt lat="62.636602038407" lon="17.963915161403">
        <ele>56</ele>
        <time>2017-12-11T18:48:40Z</time>
      </trkpt>
      <trkpt lat="62.636616371456" lon="17.963953382867">
        <ele>56</ele>
        <time>2017-12-11T18:48:41Z</time>
      </trkpt>
      <trkpt lat="62.63663279998" lon="17.963995376186">
        <ele>56</ele>
        <time>2017-12-11T18:48:42Z</time>
      </trkpt>
      <trkpt lat="62.636649312323" lon="17.964038962066">
        <ele>56</ele>
        <time>2017-12-11T18:48:43Z</time>
      </trkpt>
      <trkpt lat="62.636665154114" lon="17.964083469955">
        <ele>56</ele>
        <time>2017-12-11T18:48:44Z</time>
      </trkpt>
      <trkpt lat="62.636680409172" lon="17.964120937048">
        <ele>56</ele>
        <time>2017-12-11T18:48:45Z</time>
      </trkpt>
      <trkpt lat="62.636699603723" lon="17.964166283127">
        <ele>56</ele>
        <time>2017-12-11T18:48:46Z</time>
      </trkpt>
      <trkpt lat="62.636717792446" lon="17.964203414944">
        <ele>56</ele>
        <time>2017-12-11T18:48:47Z</time>
      </trkpt>
      <trkpt lat="62.636738579558" lon="17.964238786562">
        <ele>56</ele>
        <time>2017-12-11T18:48:48Z</time>
      </trkpt>
      <trkpt lat="62.636764814905" lon="17.964268961402">
        <ele>56</ele>
        <time>2017-12-11T18:48:49Z</time>
      </trkpt>
      <trkpt lat="62.636788368044" lon="17.964290670523">
        <ele>56</ele>
        <time>2017-12-11T18:48:50Z</time>
      </trkpt>
      <trkpt lat="62.636814016658" lon="17.96431020035">
        <ele>56</ele>
        <time>2017-12-11T18:48:51Z</time>
      </trkpt>
      <trkpt lat="62.636839078539" lon="17.96433366967">
        <ele>56.2</ele>
        <time>2017-12-11T18:48:52Z</time>
      </trkpt>
      <trkpt lat="62.63685827309" lon="17.964349008547">
        <ele>56.2</ele>
        <time>2017-12-11T18:48:53Z</time>
      </trkpt>
      <trkpt lat="62.636884424618" lon="17.96437138822">
        <ele>56</ele>
        <time>2017-12-11T18:48:54Z</time>
      </trkpt>
      <trkpt lat="62.636908983585" lon="17.964390750409">
        <ele>56</ele>
        <time>2017-12-11T18:48:55Z</time>
      </trkpt>
      <trkpt lat="62.63693203381" lon="17.964405502553">
        <ele>56</ele>
        <time>2017-12-11T18:48:56Z</time>
      </trkpt>
      <trkpt lat="62.636955084035" lon="17.964419584145">
        <ele>55.8</ele>
        <time>2017-12-11T18:48:57Z</time>
      </trkpt>
      <trkpt lat="62.636977631346" lon="17.964431821719">
        <ele>55.8</ele>
        <time>2017-12-11T18:48:58Z</time>
      </trkpt>
      <trkpt lat="62.63700076539" lon="17.964439533067">
        <ele>55.8</ele>
        <time>2017-12-11T18:48:59Z</time>
      </trkpt>
      <trkpt lat="62.637022390692" lon="17.964437521411">
        <ele>55.8</ele>
        <time>2017-12-11T18:49:00Z</time>
      </trkpt>
      <trkpt lat="62.637047284935" lon="17.964422601629">
        <ele>55.8</ele>
        <time>2017-12-11T18:49:01Z</time>
      </trkpt>
      <trkpt lat="62.637066647124" lon="17.964400976327">
        <ele>55.8</ele>
        <time>2017-12-11T18:49:02Z</time>
      </trkpt>
      <trkpt lat="62.637083159467" lon="17.964378848111">
        <ele>55.6</ele>
        <time>2017-12-11T18:49:03Z</time>
      </trkpt>
      <trkpt lat="62.637101767285" lon="17.964353199497">
        <ele>55.6</ele>
        <time>2017-12-11T18:49:04Z</time>
      </trkpt>
      <trkpt lat="62.637119117818" lon="17.964336016602">
        <ele>55.4</ele>
        <time>2017-12-11T18:49:05Z</time>
      </trkpt>
      <trkpt lat="62.637137222722" lon="17.964313804567">
        <ele>55.4</ele>
        <time>2017-12-11T18:49:06Z</time>
      </trkpt>
      <trkpt lat="62.637155579083" lon="17.964286060478">
        <ele>55.4</ele>
        <time>2017-12-11T18:49:07Z</time>
      </trkpt>
      <trkpt lat="62.637173516349" lon="17.964260914778">
        <ele>55.4</ele>
        <time>2017-12-11T18:49:08Z</time>
      </trkpt>
      <trkpt lat="62.637192627081" lon="17.964231745766">
        <ele>55.2</ele>
        <time>2017-12-11T18:49:09Z</time>
      </trkpt>
      <trkpt lat="62.637211653994" lon="17.964204839867">
        <ele>55.2</ele>
        <time>2017-12-11T18:49:10Z</time>
      </trkpt>
      <trkpt lat="62.637231602916" lon="17.964178185425">
        <ele>55</ele>
        <time>2017-12-11T18:49:11Z</time>
      </trkpt>
      <trkpt lat="62.637251635657" lon="17.964147340033">
        <ele>54.8</ele>
        <time>2017-12-11T18:49:12Z</time>
      </trkpt>
      <trkpt lat="62.637270159656" lon="17.964122697247">
        <ele>54.6</ele>
        <time>2017-12-11T18:49:13Z</time>
      </trkpt>
      <trkpt lat="62.637295640632" lon="17.96410400561">
        <ele>54.6</ele>
        <time>2017-12-11T18:49:14Z</time>
      </trkpt>
      <trkpt lat="62.637316846839" lon="17.964095539891">
        <ele>54.4</ele>
        <time>2017-12-11T18:49:15Z</time>
      </trkpt>
      <trkpt lat="62.637337047218" lon="17.964093612054">
        <ele>54.4</ele>
        <time>2017-12-11T18:49:16Z</time>
      </trkpt>
      <trkpt lat="62.637353224285" lon="17.964095204615">
        <ele>54.2</ele>
        <time>2017-12-11T18:49:17Z</time>
      </trkpt>
      <trkpt lat="62.637368144067" lon="17.964097803004">
        <ele>54.2</ele>
        <time>2017-12-11T18:49:18Z</time>
      </trkpt>
      <trkpt lat="62.637381387469" lon="17.964103335058">
        <ele>54</ele>
        <time>2017-12-11T18:49:19Z</time>
      </trkpt>
      <trkpt lat="62.637394630871" lon="17.964118171021">
        <ele>54</ele>
        <time>2017-12-11T18:49:20Z</time>
      </trkpt>
      <trkpt lat="62.637406030255" lon="17.964130073319">
        <ele>53.6</ele>
        <time>2017-12-11T18:49:21Z</time>
      </trkpt>
      <trkpt lat="62.637416759087" lon="17.96413920959">
        <ele>53.6</ele>
        <time>2017-12-11T18:49:22Z</time>
      </trkpt>
      <trkpt lat="62.637427320281" lon="17.964151028069">
        <ele>53.6</ele>
        <time>2017-12-11T18:49:23Z</time>
      </trkpt>
      <trkpt lat="62.637438132932" lon="17.964166786041">
        <ele>53.6</ele>
        <time>2017-12-11T18:49:24Z</time>
      </trkpt>
    </trkseg>
  </trk>
</gpx>